Wetterdaten: Sonntag, 05.02.2023
Datum Zeit Temp. 2m Temp +5 cm Feuchte A. Luftdruck Regen Wind Richtung Richtung Sonnenschein UV Solar Taupunkt Windchill Windben
05.02.2023 00:00 3,3 C 2,8 C 92 % 1039,1 hPa 0,0 l/m 0,0 km/h (0 Bft) N 0 0 min 0,0 UV-I 0 W/m 2,1 C 3,3 C 0,0 km/h (0 Bft)
05.02.2023 00:01 3,3 C 2,8 C 92 % 1039,1 hPa 0,0 l/m 0,0 km/h (0 Bft) N 0 0 min 0,0 UV-I 0 W/m 2,1 C 3,3 C 0,0 km/h (0 Bft)
05.02.2023 00:02 3,3 C 2,8 C 92 % 1039,0 hPa 0,0 l/m 0,0 km/h (0 Bft) N 0 0 min 0,0 UV-I 0 W/m 2,1 C 3,3 C 0,0 km/h (0 Bft)
05.02.2023 00:03 3,3 C 2,8 C 92 % 1039,1 hPa 0,0 l/m 0,0 km/h (0 Bft) N 0 0 min 0,0 UV-I 0 W/m 2,1 C 3,3 C 0,0 km/h (0 Bft)
05.02.2023 00:04 3,3 C 2,8 C 92 % 1039,1 hPa 0,0 l/m 0,0 km/h (0 Bft) N 0 0 min 0,0 UV-I 0 W/m 2,1 C 3,3 C 0,0 km/h (0 Bft)
05.02.2023 00:05 3,3 C 2,8 C 92 % 1039,2 hPa 0,0 l/m 0,0 km/h (0 Bft) N 0 0 min 0,0 UV-I 0 W/m 2,1 C 3,3 C 0,0 km/h (0 Bft)
05.02.2023 00:06 3,4 C 2,8 C 92 % 1039,2 hPa 0,0 l/m 0,0 km/h (0 Bft) N 0 0 min 0,0 UV-I 0 W/m 2,2 C 3,4 C 0,0 km/h (0 Bft)
05.02.2023 00:07 3,4 C 2,8 C 92 % 1039,1 hPa 0,0 l/m 0,0 km/h (0 Bft) N 0 0 min 0,0 UV-I 0 W/m 2,2 C 3,4 C 0,0 km/h (0 Bft)
05.02.2023 00:08 3,3 C 2,8 C 92 % 1039,2 hPa 0,0 l/m 3,2 km/h (1 Bft) NW 315 0 min 0,0 UV-I 0 W/m 2,1 C 3,3 C 4,8 km/h (1 Bft)
05.02.2023 00:09 3,4 C 2,8 C 92 % 1039,3 hPa 0,0 l/m 1,6 km/h (1 Bft) NW 315 0 min 0,0 UV-I 0 W/m 2,2 C 3,4 C 3,2 km/h (1 Bft)
05.02.2023 00:10 3,3 C 2,8 C 92 % 1039,2 hPa 0,0 l/m 0,0 km/h (0 Bft) NW 315 0 min 0,0 UV-I 0 W/m 2,1 C 3,3 C 1,6 km/h (1 Bft)
05.02.2023 00:11 3,4 C 2,8 C 92 % 1039,3 hPa 0,0 l/m 0,0 km/h (0 Bft) N 0 0 min 0,0 UV-I 0 W/m 2,2 C 3,4 C 0,0 km/h (0 Bft)
05.02.2023 00:12 3,4 C 2,8 C 92 % 1039,2 hPa 0,0 l/m 0,0 km/h (0 Bft) N 0 0 min 0,0 UV-I 0 W/m 2,2 C 3,4 C 0,0 km/h (0 Bft)
05.02.2023 00:13 3,4 C 2,8 C 92 % 1039,2 hPa 0,0 l/m 0,0 km/h (0 Bft) N 0 0 min 0,0 UV-I 0 W/m 2,2 C 3,4 C 0,0 km/h (0 Bft)
05.02.2023 00:14 3,3 C 2,8 C 92 % 1039,3 hPa 0,0 l/m 0,0 km/h (0 Bft) NW 315 0 min 0,0 UV-I 0 W/m 2,1 C 3,3 C 1,6 km/h (1 Bft)
05.02.2023 00:15 3,4 C 2,8 C 92 % 1039,2 hPa 0,0 l/m 0,0 km/h (0 Bft) N 0 0 min 0,0 UV-I 0 W/m 2,2 C 3,4 C 0,0 km/h (0 Bft)
05.02.2023 00:16 3,4 C 2,8 C 92 % 1039,2 hPa 0,0 l/m 0,0 km/h (0 Bft) W-NW 292 0 min 0,0 UV-I 0 W/m 2,2 C 3,4 C 1,6 km/h (1 Bft)
05.02.2023 00:17 3,4 C 2,8 C 92 % 1039,2 hPa 0,0 l/m 0,0 km/h (0 Bft) W-NW 292 0 min 0,0 UV-I 0 W/m 2,2 C 3,4 C 3,2 km/h (1 Bft)
05.02.2023 00:18 3,4 C 2,8 C 92 % 1039,1 hPa 0,0 l/m 0,0 km/h (0 Bft) W-NW 292 0 min 0,0 UV-I 0 W/m 2,2 C 3,4 C 1,6 km/h (1 Bft)
05.02.2023 00:19 3,3 C 2,8 C 92 % 1039,2 hPa 0,0 l/m 0,0 km/h (0 Bft) W-NW 292 0 min 0,0 UV-I 0 W/m 2,1 C 3,3 C 3,2 km/h (1 Bft)
05.02.2023 00:20 3,3 C 2,8 C 92 % 1039,1 hPa 0,0 l/m 0,0 km/h (0 Bft) W-NW 292 0 min 0,0 UV-I 0 W/m 2,1 C 3,3 C 1,6 km/h (1 Bft)
05.02.2023 00:21 3,3 C 2,8 C 92 % 1039,1 hPa 0,0 l/m 1,6 km/h (1 Bft) W-NW 292 0 min 0,0 UV-I 0 W/m 2,1 C 3,3 C 3,2 km/h (1 Bft)
05.02.2023 00:22 3,4 C 2,8 C 92 % 1039,1 hPa 0,0 l/m 0,0 km/h (0 Bft) W-NW 292 0 min 0,0 UV-I 0 W/m 2,2 C 3,4 C 1,6 km/h (1 Bft)
05.02.2023 00:23 3,4 C 2,8 C 92 % 1039,2 hPa 0,0 l/m 0,0 km/h (0 Bft) W-NW 292 0 min 0,0 UV-I 0 W/m 2,2 C 3,4 C 1,6 km/h (1 Bft)
05.02.2023 00:24 3,4 C 2,8 C 92 % 1039,2 hPa 0,0 l/m 0,0 km/h (0 Bft) W-NW 292 0 min 0,0 UV-I 0 W/m 2,2 C 3,4 C 1,6 km/h (1 Bft)
05.02.2023 00:25 3,3 C 2,8 C 92 % 1039,2 hPa 0,0 l/m 0,0 km/h (0 Bft) N 0 0 min 0,0 UV-I 0 W/m 2,1 C 3,3 C 0,0 km/h (0 Bft)
05.02.2023 00:26 3,4 C 2,8 C 92 % 1039,2 hPa 0,0 l/m 0,0 km/h (0 Bft) N 0 0 min 0,0 UV-I 0 W/m 2,2 C 3,4 C 0,0 km/h (0 Bft)
05.02.2023 00:27 3,3 C 2,8 C 92 % 1039,3 hPa 0,0 l/m 0,0 km/h (0 Bft) N 0 0 min 0,0 UV-I 0 W/m 2,1 C 3,3 C 0,0 km/h (0 Bft)
05.02.2023 00:28 3,4 C 3,3 C 93 % 1039,3 hPa 0,0 l/m 0,0 km/h (0 Bft) N 0 0 min 0,0 UV-I 0 W/m 2,4 C 3,4 C 0,0 km/h (0 Bft)
05.02.2023 00:29 3,4 C 2,8 C 93 % 1039,3 hPa 0,0 l/m 0,0 km/h (0 Bft) W-NW 292 0 min 0,0 UV-I 0 W/m 2,4 C 3,4 C 1,6 km/h (1 Bft)
05.02.2023 00:30 3,4 C 2,8 C 93 % 1039,3 hPa 0,0 l/m 0,0 km/h (0 Bft) W-NW 292 0 min 0,0 UV-I 0 W/m 2,4 C 3,4 C 1,6 km/h (1 Bft)
05.02.2023 00:31 3,4 C 2,8 C 93 % 1039,2 hPa 0,0 l/m 0,0 km/h (0 Bft) N 0 0 min 0,0 UV-I 0 W/m 2,4 C 3,4 C 0,0 km/h (0 Bft)
05.02.2023 00:32 3,4 C 2,8 C 93 % 1039,2 hPa 0,0 l/m 0,0 km/h (0 Bft) N 0 0 min 0,0 UV-I 0 W/m 2,4 C 3,4 C 0,0 km/h (0 Bft)
05.02.2023 00:33 3,4 C 2,8 C 93 % 1039,3 hPa 0,0 l/m 0,0 km/h (0 Bft) N 0 0 min 0,0 UV-I 0 W/m 2,4 C 3,4 C 0,0 km/h (0 Bft)
05.02.2023 00:34 3,4 C 2,8 C 93 % 1039,3 hPa 0,0 l/m 0,0 km/h (0 Bft) W-NW 292 0 min 0,0 UV-I 0 W/m 2,4 C 3,4 C 1,6 km/h (1 Bft)
05.02.2023 00:35 3,4 C 2,8 C 92 % 1039,2 hPa 0,0 l/m 0,0 km/h (0 Bft) N 0 0 min 0,0 UV-I 0 W/m 2,2 C 3,4 C 0,0 km/h (0 Bft)
05.02.2023 00:36 3,4 C 3,3 C 93 % 1039,3 hPa 0,0 l/m 0,0 km/h (0 Bft) N 0 0 min 0,0 UV-I 0 W/m 2,4 C 3,4 C 0,0 km/h (0 Bft)
05.02.2023 00:37 3,4 C 3,3 C 92 % 1039,3 hPa 0,0 l/m 0,0 km/h (0 Bft) N 0 0 min 0,0 UV-I 0 W/m 2,2 C 3,4 C 0,0 km/h (0 Bft)
05.02.2023 00:38 3,4 C 3,3 C 92 % 1039,3 hPa 0,0 l/m 0,0 km/h (0 Bft) N 0 0 min 0,0 UV-I 0 W/m 2,2 C 3,4 C 0,0 km/h (0 Bft)
05.02.2023 00:39 3,4 C 3,3 C 92 % 1039,2 hPa 0,0 l/m 0,0 km/h (0 Bft) N 0 0 min 0,0 UV-I 0 W/m 2,2 C 3,4 C 0,0 km/h (0 Bft)
05.02.2023 00:40 3,4 C 3,3 C 92 % 1039,2 hPa 0,0 l/m 0,0 km/h (0 Bft) N 0 0 min 0,0 UV-I 0 W/m 2,2 C 3,4 C 0,0 km/h (0 Bft)
05.02.2023 00:41 3,4 C 3,3 C 92 % 1039,3 hPa 0,0 l/m 0,0 km/h (0 Bft) N 0 0 min 0,0 UV-I 0 W/m 2,2 C 3,4 C 0,0 km/h (0 Bft)
05.02.2023 00:42 3,4 C 3,3 C 92 % 1039,2 hPa 0,0 l/m 0,0 km/h (0 Bft) N 0 0 min 0,0 UV-I 0 W/m 2,2 C 3,4 C 0,0 km/h (0 Bft)
05.02.2023 00:43 3,4 C 3,3 C 93 % 1039,3 hPa 0,0 l/m 0,0 km/h (0 Bft) N 0 0 min 0,0 UV-I 0 W/m 2,4 C 3,4 C 0,0 km/h (0 Bft)
05.02.2023 00:44 3,4 C 3,3 C 92 % 1039,3 hPa 0,0 l/m 1,6 km/h (1 Bft) W-NW 292 0 min 0,0 UV-I 0 W/m 2,2 C 3,4 C 3,2 km/h (1 Bft)
05.02.2023 00:45 3,4 C 3,3 C 92 % 1039,2 hPa 0,0 l/m 0,0 km/h (0 Bft) W-NW 292 0 min 0,0 UV-I 0 W/m 2,2 C 3,4 C 3,2 km/h (1 Bft)
05.02.2023 00:46 3,5 C 3,3 C 92 % 1039,3 hPa 0,0 l/m 1,6 km/h (1 Bft) W 270 0 min 0,0 UV-I 0 W/m 2,3 C 3,5 C 4,8 km/h (1 Bft)
05.02.2023 00:47 3,5 C 3,3 C 93 % 1039,3 hPa 0,0 l/m 3,2 km/h (1 Bft) W-SW 247 0 min 0,0 UV-I 0 W/m 2,5 C 3,5 C 6,4 km/h (2 Bft)
05.02.2023 00:48 3,5 C 3,3 C 93 % 1039,3 hPa 0,0 l/m 1,6 km/h (1 Bft) W-SW 247 0 min 0,0 UV-I 0 W/m 2,5 C 3,5 C 6,4 km/h (2 Bft)
05.02.2023 00:49 3,6 C 3,3 C 93 % 1039,2 hPa 0,0 l/m 1,6 km/h (1 Bft) W-SW 247 0 min 0,0 UV-I 0 W/m 2,6 C 3,6 C 3,2 km/h (1 Bft)
05.02.2023 00:50 3,6 C 3,3 C 93 % 1039,2 hPa 0,0 l/m 1,6 km/h (1 Bft) W-SW 247 0 min 0,0 UV-I 0 W/m 2,6 C 3,6 C 4,8 km/h (1 Bft)
05.02.2023 00:51 3,6 C 3,3 C 93 % 1039,3 hPa 0,0 l/m 0,0 km/h (0 Bft) W-SW 247 0 min 0,0 UV-I 0 W/m 2,6 C 3,6 C 3,2 km/h (1 Bft)
05.02.2023 00:52 3,6 C 3,3 C 93 % 1039,3 hPa 0,0 l/m 1,6 km/h (1 Bft) W-SW 247 0 min 0,0 UV-I 0 W/m 2,6 C 3,6 C 3,2 km/h (1 Bft)
05.02.2023 00:53 3,7 C 3,3 C 93 % 1039,3 hPa 0,0 l/m 0,0 km/h (0 Bft) W-SW 247 0 min 0,0 UV-I 0 W/m 2,7 C 3,7 C 1,6 km/h (1 Bft)
05.02.2023 00:54 3,7 C 3,3 C 93 % 1039,3 hPa 0,0 l/m 0,0 km/h (0 Bft) W-SW 247 0 min 0,0 UV-I 0 W/m 2,7 C 3,7 C 1,6 km/h (1 Bft)
05.02.2023 00:55 3,7 C 3,3 C 93 % 1039,2 hPa 0,0 l/m 1,6 km/h (1 Bft) W-SW 247 0 min 0,0 UV-I 0 W/m 2,7 C 3,7 C 3,2 km/h (1 Bft)
05.02.2023 00:56 3,7 C 3,3 C 93 % 1039,2 hPa 0,0 l/m 1,6 km/h (1 Bft) W-SW 247 0 min 0,0 UV-I 0 W/m 2,7 C 3,7 C 3,2 km/h (1 Bft)
05.02.2023 00:57 3,7 C 3,3 C 93 % 1039,2 hPa 0,0 l/m 0,0 km/h (0 Bft) N 0 0 min 0,0 UV-I 0 W/m 2,7 C 3,7 C 0,0 km/h (0 Bft)
05.02.2023 00:58 3,7 C 3,3 C 93 % 1039,3 hPa 0,0 l/m 0,0 km/h (0 Bft) N 0 0 min 0,0 UV-I 0 W/m 2,7 C 3,7 C 0,0 km/h (0 Bft)
05.02.2023 00:59 3,7 C 3,3 C 93 % 1039,2 hPa 0,0 l/m 1,6 km/h (1 Bft) W-SW 247 0 min 0,0 UV-I 0 W/m 2,7 C 3,7 C 3,2 km/h (1 Bft)
05.02.2023 01:00 3,7 C 3,3 C 93 % 1039,3 hPa 0,0 l/m 0,0 km/h (0 Bft) W-SW 247 0 min 0,0 UV-I 0 W/m 2,7 C 3,7 C 1,6 km/h (1 Bft)
05.02.2023 01:01 3,8 C 3,3 C 93 % 1039,2 hPa 0,0 l/m 0,0 km/h (0 Bft) W-SW 247 0 min 0,0 UV-I 0 W/m 2,8 C 3,8 C 1,6 km/h (1 Bft)
05.02.2023 01:02 3,8 C 3,3 C 93 % 1039,4 hPa 0,0 l/m 0,0 km/h (0 Bft) N 0 0 min 0,0 UV-I 0 W/m 2,8 C 3,8 C 0,0 km/h (0 Bft)
05.02.2023 01:03 3,8 C 3,3 C 93 % 1039,2 hPa 0,0 l/m 1,6 km/h (1 Bft) W-SW 247 0 min 0,0 UV-I 0 W/m 2,8 C 3,8 C 3,2 km/h (1 Bft)
05.02.2023 01:04 3,8 C 3,3 C 93 % 1039,2 hPa 0,0 l/m 0,0 km/h (0 Bft) W-SW 247 0 min 0,0 UV-I 0 W/m 2,8 C 3,8 C 1,6 km/h (1 Bft)
05.02.2023 01:05 3,8 C 3,3 C 93 % 1039,3 hPa 0,0 l/m 0,0 km/h (0 Bft) W-SW 247 0 min 0,0 UV-I 0 W/m 2,8 C 3,8 C 3,2 km/h (1 Bft)
05.02.2023 01:06 3,8 C 3,3 C 93 % 1039,3 hPa 0,0 l/m 1,6 km/h (1 Bft) W-SW 247 0 min 0,0 UV-I 0 W/m 2,8 C 3,8 C 3,2 km/h (1 Bft)
05.02.2023 01:07 3,8 C 3,9 C 93 % 1039,3 hPa 0,0 l/m 1,6 km/h (1 Bft) W-SW 247 0 min 0,0 UV-I 0 W/m 2,8 C 3,8 C 4,8 km/h (1 Bft)
05.02.2023 01:08 3,8 C 3,9 C 93 % 1039,2 hPa 0,0 l/m 0,0 km/h (0 Bft) W-SW 247 0 min 0,0 UV-I 0 W/m 2,8 C 3,8 C 1,6 km/h (1 Bft)
05.02.2023 01:09 3,8 C 3,9 C 93 % 1039,1 hPa 0,0 l/m 0,0 km/h (0 Bft) W-SW 247 0 min 0,0 UV-I 0 W/m 2,8 C 3,8 C 1,6 km/h (1 Bft)
05.02.2023 01:10 3,9 C 3,9 C 93 % 1039,1 hPa 0,0 l/m 0,0 km/h (0 Bft) W-SW 247 0 min 0,0 UV-I 0 W/m 2,9 C 3,9 C 1,6 km/h (1 Bft)
05.02.2023 01:11 3,9 C 3,9 C 93 % 1039,1 hPa 0,0 l/m 0,0 km/h (0 Bft) W-SW 247 0 min 0,0 UV-I 0 W/m 2,9 C 3,9 C 3,2 km/h (1 Bft)
05.02.2023 01:12 3,9 C 3,9 C 93 % 1039,2 hPa 0,0 l/m 3,2 km/h (1 Bft) W-SW 247 0 min 0,0 UV-I 0 W/m 2,9 C 3,9 C 6,4 km/h (2 Bft)
05.02.2023 01:13 3,9 C 3,9 C 93 % 1039,0 hPa 0,0 l/m 3,2 km/h (1 Bft) W-SW 247 0 min 0,0 UV-I 0 W/m 2,9 C 3,9 C 4,8 km/h (1 Bft)
05.02.2023 01:14 3,9 C 3,9 C 93 % 1039,0 hPa 0,0 l/m 3,2 km/h (1 Bft) W-SW 247 0 min 0,0 UV-I 0 W/m 2,9 C 3,9 C 4,8 km/h (1 Bft)
05.02.2023 01:15 3,9 C 3,9 C 93 % 1039,0 hPa 0,0 l/m 1,6 km/h (1 Bft) W-SW 247 0 min 0,0 UV-I 0 W/m 2,9 C 3,9 C 3,2 km/h (1 Bft)
05.02.2023 01:16 3,9 C 3,9 C 93 % 1039,0 hPa 0,0 l/m 1,6 km/h (1 Bft) W-SW 247 0 min 0,0 UV-I 0 W/m 2,9 C 3,9 C 3,2 km/h (1 Bft)
05.02.2023 01:17 4,0 C 3,9 C 93 % 1039,0 hPa 0,0 l/m 1,6 km/h (1 Bft) W-SW 247 0 min 0,0 UV-I 0 W/m 3,0 C 4,0 C 4,8 km/h (1 Bft)
05.02.2023 01:18 3,9 C 3,9 C 93 % 1039,0 hPa 0,0 l/m 0,0 km/h (0 Bft) W-SW 247 0 min 0,0 UV-I 0 W/m 2,9 C 3,9 C 3,2 km/h (1 Bft)
05.02.2023 01:19 4,0 C 3,9 C 93 % 1038,9 hPa 0,0 l/m 1,6 km/h (1 Bft) W-SW 247 0 min 0,0 UV-I 0 W/m 3,0 C 4,0 C 4,8 km/h (1 Bft)
05.02.2023 01:20 4,0 C 3,9 C 93 % 1039,0 hPa 0,0 l/m 0,0 km/h (0 Bft) W-SW 247 0 min 0,0 UV-I 0 W/m 3,0 C 4,0 C 1,6 km/h (1 Bft)
05.02.2023 01:21 4,0 C 3,9 C 93 % 1038,9 hPa 0,0 l/m 1,6 km/h (1 Bft) W-SW 247 0 min 0,0 UV-I 0 W/m 3,0 C 4,0 C 3,2 km/h (1 Bft)
05.02.2023 01:22 4,1 C 3,9 C 93 % 1039,0 hPa 0,0 l/m 1,6 km/h (1 Bft) W-SW 247 0 min 0,0 UV-I 0 W/m 3,1 C 4,1 C 3,2 km/h (1 Bft)
05.02.2023 01:23 4,0 C 3,9 C 93 % 1039,0 hPa 0,0 l/m 0,0 km/h (0 Bft) W-SW 247 0 min 0,0 UV-I 0 W/m 3,0 C 4,0 C 1,6 km/h (1 Bft)
05.02.2023 01:24 4,1 C 3,9 C 93 % 1038,9 hPa 0,0 l/m 0,0 km/h (0 Bft) N 0 0 min 0,0 UV-I 0 W/m 3,1 C 4,1 C 0,0 km/h (0 Bft)
05.02.2023 01:25 4,1 C 3,9 C 93 % 1039,0 hPa 0,0 l/m 0,0 km/h (0 Bft) W-SW 247 0 min 0,0 UV-I 0 W/m 3,1 C 4,1 C 1,6 km/h (1 Bft)
05.02.2023 01:26 4,1 C 3,9 C 93 % 1038,9 hPa 0,0 l/m 0,0 km/h (0 Bft) W-SW 247 0 min 0,0 UV-I 0 W/m 3,1 C 4,1 C 1,6 km/h (1 Bft)
05.02.2023 01:27 4,1 C 3,9 C 93 % 1038,9 hPa 0,0 l/m 0,0 km/h (0 Bft) W-SW 247 0 min 0,0 UV-I 0 W/m 3,1 C 4,1 C 1,6 km/h (1 Bft)
05.02.2023 01:28 4,1 C 3,9 C 93 % 1038,9 hPa 0,0 l/m 0,0 km/h (0 Bft) N 0 0 min 0,0 UV-I 0 W/m 3,1 C 4,1 C 0,0 km/h (0 Bft)
05.02.2023 01:29 4,1 C 3,9 C 93 % 1038,8 hPa 0,0 l/m 0,0 km/h (0 Bft) N 0 0 min 0,0 UV-I 0 W/m 3,1 C 4,1 C 0,0 km/h (0 Bft)
05.02.2023 01:30 4,1 C 3,9 C 93 % 1038,9 hPa 0,0 l/m 0,0 km/h (0 Bft) W-SW 247 0 min 0,0 UV-I 0 W/m 3,1 C 4,1 C 1,6 km/h (1 Bft)
05.02.2023 01:31 4,1 C 3,9 C 93 % 1038,8 hPa 0,0 l/m 0,0 km/h (0 Bft) W-SW 247 0 min 0,0 UV-I 0 W/m 3,1 C 4,1 C 1,6 km/h (1 Bft)
05.02.2023 01:32 4,1 C 3,9 C 93 % 1038,8 hPa 0,0 l/m 0,0 km/h (0 Bft) N 0 0 min 0,0 UV-I 0 W/m 3,1 C 4,1 C 0,0 km/h (0 Bft)
05.02.2023 01:33 4,1 C 3,9 C 93 % 1038,8 hPa 0,0 l/m 0,0 km/h (0 Bft) N 0 0 min 0,0 UV-I 0 W/m 3,1 C 4,1 C 0,0 km/h (0 Bft)
05.02.2023 01:34 4,1 C 3,9 C 93 % 1038,8 hPa 0,0 l/m 0,0 km/h (0 Bft) N 0 0 min 0,0 UV-I 0 W/m 3,1 C 4,1 C 0,0 km/h (0 Bft)
05.02.2023 01:35 4,1 C 3,9 C 93 % 1038,7 hPa 0,0 l/m 1,6 km/h (1 Bft) W-SW 247 0 min 0,0 UV-I 0 W/m 3,1 C 4,1 C 3,2 km/h (1 Bft)
05.02.2023 01:36 4,1 C 3,9 C 93 % 1038,8 hPa 0,0 l/m 3,2 km/h (1 Bft) W-SW 247 0 min 0,0 UV-I 0 W/m 3,1 C 4,1 C 3,2 km/h (1 Bft)
05.02.2023 01:37 4,1 C 3,9 C 93 % 1038,7 hPa 0,0 l/m 1,6 km/h (1 Bft) W-SW 247 0 min 0,0 UV-I 0 W/m 3,1 C 4,1 C 3,2 km/h (1 Bft)
05.02.2023 01:38 4,1 C 3,9 C 93 % 1038,8 hPa 0,0 l/m 1,6 km/h (1 Bft) W-SW 247 0 min 0,0 UV-I 0 W/m 3,1 C 4,1 C 3,2 km/h (1 Bft)
05.02.2023 01:39 4,1 C 3,9 C 93 % 1038,7 hPa 0,0 l/m 0,0 km/h (0 Bft) W-SW 247 0 min 0,0 UV-I 0 W/m 3,1 C 4,1 C 1,6 km/h (1 Bft)
05.02.2023 01:40 4,2 C 3,9 C 93 % 1038,7 hPa 0,0 l/m 0,0 km/h (0 Bft) W-SW 247 0 min 0,0 UV-I 0 W/m 3,2 C 4,2 C 1,6 km/h (1 Bft)
05.02.2023 01:41 4,2 C 3,9 C 93 % 1038,7 hPa 0,0 l/m 0,0 km/h (0 Bft) N 0 0 min 0,0 UV-I 0 W/m 3,2 C 4,2 C 0,0 km/h (0 Bft)
05.02.2023 01:42 4,2 C 3,9 C 93 % 1038,6 hPa 0,0 l/m 0,0 km/h (0 Bft) W-SW 247 0 min 0,0 UV-I 0 W/m 3,2 C 4,2 C 1,6 km/h (1 Bft)
05.02.2023 01:43 4,2 C 3,9 C 93 % 1038,6 hPa 0,0 l/m 0,0 km/h (0 Bft) W-SW 247 0 min 0,0 UV-I 0 W/m 3,2 C 4,2 C 1,6 km/h (1 Bft)
05.02.2023 01:44 4,2 C 3,9 C 93 % 1038,7 hPa 0,0 l/m 0,0 km/h (0 Bft) W-SW 247 0 min 0,0 UV-I 0 W/m 3,2 C 4,2 C 1,6 km/h (1 Bft)
05.02.2023 01:45 4,2 C 3,9 C 93 % 1038,7 hPa 0,0 l/m 0,0 km/h (0 Bft) W-SW 247 0 min 0,0 UV-I 0 W/m 3,2 C 4,2 C 1,6 km/h (1 Bft)
05.02.2023 01:46 4,2 C 3,9 C 93 % 1038,6 hPa 0,0 l/m 0,0 km/h (0 Bft) W-SW 247 0 min 0,0 UV-I 0 W/m 3,2 C 4,2 C 1,6 km/h (1 Bft)
05.02.2023 01:47 4,2 C 3,9 C 93 % 1038,7 hPa 0,0 l/m 1,6 km/h (1 Bft) W-SW 247 0 min 0,0 UV-I 0 W/m 3,2 C 4,2 C 3,2 km/h (1 Bft)
05.02.2023 01:48 4,2 C 3,9 C 93 % 1038,6 hPa 0,0 l/m 1,6 km/h (1 Bft) W-SW 247 0 min 0,0 UV-I 0 W/m 3,2 C 4,2 C 3,2 km/h (1 Bft)
05.02.2023 01:49 4,2 C 3,9 C 93 % 1038,6 hPa 0,0 l/m 1,6 km/h (1 Bft) W-SW 247 0 min 0,0 UV-I 0 W/m 3,2 C 4,2 C 3,2 km/h (1 Bft)
05.02.2023 01:50 4,2 C 3,9 C 93 % 1038,6 hPa 0,0 l/m 0,0 km/h (0 Bft) W-SW 247 0 min 0,0 UV-I 0 W/m 3,2 C 4,2 C 1,6 km/h (1 Bft)
05.02.2023 01:51 4,2 C 3,9 C 93 % 1038,6 hPa 0,0 l/m 0,0 km/h (0 Bft) N 0 0 min 0,0 UV-I 0 W/m 3,2 C 4,2 C 0,0 km/h (0 Bft)
05.02.2023 01:52 4,2 C 3,9 C 93 % 1038,6 hPa 0,0 l/m 0,0 km/h (0 Bft) W-SW 247 0 min 0,0 UV-I 0 W/m 3,2 C 4,2 C 1,6 km/h (1 Bft)
05.02.2023 01:53 4,2 C 3,9 C 93 % 1038,6 hPa 0,0 l/m 0,0 km/h (0 Bft) N 0 0 min 0,0 UV-I 0 W/m 3,2 C 4,2 C 0,0 km/h (0 Bft)
05.02.2023 01:54 4,2 C 3,9 C 93 % 1038,5 hPa 0,0 l/m 0,0 km/h (0 Bft) N 0 0 min 0,0 UV-I 0 W/m 3,2 C 4,2 C 0,0 km/h (0 Bft)
05.02.2023 01:55 4,2 C 3,9 C 93 % 1038,6 hPa 0,0 l/m 0,0 km/h (0 Bft) N 0 0 min 0,0 UV-I 0 W/m 3,2 C 4,2 C 0,0 km/h (0 Bft)
05.02.2023 01:56 4,2 C 3,9 C 93 % 1038,6 hPa 0,0 l/m 0,0 km/h (0 Bft) W-SW 247 0 min 0,0 UV-I 0 W/m 3,2 C 4,2 C 1,6 km/h (1 Bft)
05.02.2023 01:57 4,2 C 3,9 C 93 % 1038,6 hPa 0,0 l/m 0,0 km/h (0 Bft) W-SW 247 0 min 0,0 UV-I 0 W/m 3,2 C 4,2 C 1,6 km/h (1 Bft)
05.02.2023 01:58 4,2 C 3,9 C 93 % 1038,6 hPa 0,0 l/m 0,0 km/h (0 Bft) W-SW 247 0 min 0,0 UV-I 0 W/m 3,2 C 4,2 C 1,6 km/h (1 Bft)
05.02.2023 01:59 4,2 C 3,9 C 93 % 1038,6 hPa 0,0 l/m 0,0 km/h (0 Bft) W-SW 247 0 min 0,0 UV-I 0 W/m 3,2 C 4,2 C 1,6 km/h (1 Bft)
05.02.2023 02:00 4,2 C 3,9 C 93 % 1038,7 hPa 0,0 l/m 0,0 km/h (0 Bft) N 0 0 min 0,0 UV-I 0 W/m 3,2 C 4,2 C 0,0 km/h (0 Bft)
05.02.2023 02:01 4,2 C 3,9 C 93 % 1038,5 hPa 0,0 l/m 0,0 km/h (0 Bft) W-SW 247 0 min 0,0 UV-I 0 W/m 3,2 C 4,2 C 1,6 km/h (1 Bft)
05.02.2023 02:02 4,2 C 3,9 C 93 % 1038,5 hPa 0,0 l/m 0,0 km/h (0 Bft) N 0 0 min 0,0 UV-I 0 W/m 3,2 C 4,2 C 0,0 km/h (0 Bft)
05.02.2023 02:03 4,2 C 3,9 C 93 % 1038,5 hPa 0,0 l/m 0,0 km/h (0 Bft) N 0 0 min 0,0 UV-I 0 W/m 3,2 C 4,2 C 0,0 km/h (0 Bft)
05.02.2023 02:04 4,2 C 3,9 C 93 % 1038,5 hPa 0,0 l/m 0,0 km/h (0 Bft) N 0 0 min 0,0 UV-I 0 W/m 3,2 C 4,2 C 0,0 km/h (0 Bft)
05.02.2023 02:05 4,2 C 3,9 C 93 % 1038,4 hPa 0,0 l/m 0,0 km/h (0 Bft) N 0 0 min 0,0 UV-I 0 W/m 3,2 C 4,2 C 0,0 km/h (0 Bft)
05.02.2023 02:06 4,2 C 3,9 C 93 % 1038,3 hPa 0,0 l/m 0,0 km/h (0 Bft) N 0 0 min 0,0 UV-I 0 W/m 3,2 C 4,2 C 0,0 km/h (0 Bft)
05.02.2023 02:07 4,2 C 3,9 C 93 % 1038,3 hPa 0,0 l/m 0,0 km/h (0 Bft) N 0 0 min 0,0 UV-I 0 W/m 3,2 C 4,2 C 0,0 km/h (0 Bft)
05.02.2023 02:08 4,2 C 3,9 C 93 % 1038,4 hPa 0,0 l/m 0,0 km/h (0 Bft) N 0 0 min 0,0 UV-I 0 W/m 3,2 C 4,2 C 0,0 km/h (0 Bft)
05.02.2023 02:09 4,2 C 3,9 C 93 % 1038,5 hPa 0,0 l/m 0,0 km/h (0 Bft) N 0 0 min 0,0 UV-I 0 W/m 3,2 C 4,2 C 0,0 km/h (0 Bft)
05.02.2023 02:10 4,2 C 3,9 C 93 % 1038,5 hPa 0,0 l/m 0,0 km/h (0 Bft) W-SW 247 0 min 0,0 UV-I 0 W/m 3,2 C 4,2 C 1,6 km/h (1 Bft)
05.02.2023 02:11 4,3 C 3,9 C 93 % 1038,5 hPa 0,0 l/m 0,0 km/h (0 Bft) N 0 0 min 0,0 UV-I 0 W/m 3,3 C 4,3 C 0,0 km/h (0 Bft)
05.02.2023 02:12 4,2 C 3,9 C 93 % 1038,5 hPa 0,0 l/m 0,0 km/h (0 Bft) N 0 0 min 0,0 UV-I 0 W/m 3,2 C 4,2 C 0,0 km/h (0 Bft)
05.02.2023 02:13 4,2 C 3,9 C 93 % 1038,6 hPa 0,0 l/m 0,0 km/h (0 Bft) N 0 0 min 0,0 UV-I 0 W/m 3,2 C 4,2 C 0,0 km/h (0 Bft)
05.02.2023 02:14 4,2 C 3,9 C 93 % 1038,5 hPa 0,0 l/m 0,0 km/h (0 Bft) N 0 0 min 0,0 UV-I 0 W/m 3,2 C 4,2 C 0,0 km/h (0 Bft)
05.02.2023 02:15 4,3 C 3,9 C 93 % 1038,4 hPa 0,0 l/m 0,0 km/h (0 Bft) W-SW 247 0 min 0,0 UV-I 0 W/m 3,3 C 4,3 C 1,6 km/h (1 Bft)
05.02.2023 02:16 4,3 C 3,9 C 93 % 1038,3 hPa 0,0 l/m 0,0 km/h (0 Bft) N 0 0 min 0,0 UV-I 0 W/m 3,3 C 4,3 C 0,0 km/h (0 Bft)
05.02.2023 02:17 4,3 C 3,9 C 93 % 1038,5 hPa 0,0 l/m 1,6 km/h (1 Bft) NW 315 0 min 0,0 UV-I 0 W/m 3,3 C 4,3 C 4,8 km/h (1 Bft)
05.02.2023 02:18 4,3 C 3,9 C 93 % 1038,4 hPa 0,0 l/m 1,6 km/h (1 Bft) NW 315 0 min 0,0 UV-I 0 W/m 3,3 C 4,3 C 3,2 km/h (1 Bft)
05.02.2023 02:19 4,3 C 3,9 C 93 % 1038,4 hPa 0,0 l/m 0,0 km/h (0 Bft) NW 315 0 min 0,0 UV-I 0 W/m 3,3 C 4,3 C 3,2 km/h (1 Bft)
05.02.2023 02:20 4,3 C 3,9 C 93 % 1038,3 hPa 0,0 l/m 0,0 km/h (0 Bft) NW 315 0 min 0,0 UV-I 0 W/m 3,3 C 4,3 C 1,6 km/h (1 Bft)
05.02.2023 02:21 4,3 C 3,9 C 93 % 1038,4 hPa 0,0 l/m 0,0 km/h (0 Bft) N 0 0 min 0,0 UV-I 0 W/m 3,3 C 4,3 C 0,0 km/h (0 Bft)
05.02.2023 02:22 4,3 C 3,9 C 93 % 1038,5 hPa 0,0 l/m 0,0 km/h (0 Bft) NW 315 0 min 0,0 UV-I 0 W/m 3,3 C 4,3 C 1,6 km/h (1 Bft)
05.02.2023 02:23 4,3 C 3,9 C 93 % 1038,4 hPa 0,0 l/m 1,6 km/h (1 Bft) NW 315 0 min 0,0 UV-I 0 W/m 3,3 C 4,3 C 3,2 km/h (1 Bft)
05.02.2023 02:24 4,3 C 3,9 C 93 % 1038,3 hPa 0,0 l/m 1,6 km/h (1 Bft) W 270 0 min 0,0 UV-I 0 W/m 3,3 C 4,3 C 3,2 km/h (1 Bft)
05.02.2023 02:25 4,3 C 3,9 C 93 % 1038,3 hPa 0,0 l/m 1,6 km/h (1 Bft) W 270 0 min 0,0 UV-I 0 W/m 3,3 C 4,3 C 3,2 km/h (1 Bft)
05.02.2023 02:26 4,3 C 3,9 C 93 % 1038,2 hPa 0,0 l/m 0,0 km/h (0 Bft) W 270 0 min 0,0 UV-I 0 W/m 3,3 C 4,3 C 1,6 km/h (1 Bft)
05.02.2023 02:27 4,3 C 3,9 C 93 % 1038,3 hPa 0,0 l/m 0,0 km/h (0 Bft) W 270 0 min 0,0 UV-I 0 W/m 3,3 C 4,3 C 3,2 km/h (1 Bft)
05.02.2023 02:28 4,3 C 3,9 C 93 % 1038,3 hPa 0,0 l/m 1,6 km/h (1 Bft) W 270 0 min 0,0 UV-I 0 W/m 3,3 C 4,3 C 4,8 km/h (1 Bft)
05.02.2023 02:29 4,4 C 3,9 C 93 % 1038,3 hPa 0,0 l/m 0,0 km/h (0 Bft) W 270 0 min 0,0 UV-I 0 W/m 3,4 C 4,4 C 1,6 km/h (1 Bft)
05.02.2023 02:30 4,4 C 3,9 C 93 % 1038,2 hPa 0,0 l/m 0,0 km/h (0 Bft) W 270 0 min 0,0 UV-I 0 W/m 3,4 C 4,4 C 1,6 km/h (1 Bft)
05.02.2023 02:31 4,4 C 3,9 C 93 % 1038,3 hPa 0,0 l/m 0,0 km/h (0 Bft) N 0 0 min 0,0 UV-I 0 W/m 3,4 C 4,4 C 0,0 km/h (0 Bft)
05.02.2023 02:32 4,4 C 3,9 C 93 % 1038,2 hPa 0,0 l/m 0,0 km/h (0 Bft) W 270 0 min 0,0 UV-I 0 W/m 3,4 C 4,4 C 1,6 km/h (1 Bft)
05.02.2023 02:33 4,4 C 3,9 C 93 % 1038,3 hPa 0,0 l/m 1,6 km/h (1 Bft) W 270 0 min 0,0 UV-I 0 W/m 3,4 C 4,4 C 3,2 km/h (1 Bft)
05.02.2023 02:34 4,4 C 3,9 C 93 % 1038,2 hPa 0,0 l/m 1,6 km/h (1 Bft) W 270 0 min 0,0 UV-I 0 W/m 3,4 C 4,4 C 3,2 km/h (1 Bft)
05.02.2023 02:35 4,4 C 3,9 C 93 % 1038,2 hPa 0,0 l/m 4,8 km/h (1 Bft) W 270 0 min 0,0 UV-I 0 W/m 3,4 C 4,4 C 9,7 km/h (2 Bft)
05.02.2023 02:36 4,4 C 3,9 C 93 % 1038,2 hPa 0,0 l/m 0,0 km/h (0 Bft) N 0 0 min 0,0 UV-I 0 W/m 3,4 C 4,4 C 8,0 km/h (2 Bft)
05.02.2023 02:37 4,4 C 3,9 C 93 % 1038,2 hPa 0,0 l/m 1,6 km/h (1 Bft) W 270 0 min 0,0 UV-I 0 W/m 3,4 C 4,4 C 4,8 km/h (1 Bft)
05.02.2023 02:38 4,4 C 3,9 C 93 % 1038,1 hPa 0,0 l/m 3,2 km/h (1 Bft) W 270 0 min 0,0 UV-I 0 W/m 3,4 C 4,4 C 3,2 km/h (1 Bft)
05.02.2023 02:39 4,4 C 3,9 C 93 % 1038,1 hPa 0,0 l/m 1,6 km/h (1 Bft) W 270 0 min 0,0 UV-I 0 W/m 3,4 C 4,4 C 4,8 km/h (1 Bft)
05.02.2023 02:40 4,4 C 3,9 C 93 % 1038,1 hPa 0,0 l/m 0,0 km/h (0 Bft) N 0 0 min 0,0 UV-I 0 W/m 3,4 C 4,4 C 0,0 km/h (0 Bft)
05.02.2023 02:41 4,4 C 3,9 C 93 % 1038,1 hPa 0,0 l/m 0,0 km/h (0 Bft) N 0 0 min 0,0 UV-I 0 W/m 3,4 C 4,4 C 0,0 km/h (0 Bft)
05.02.2023 02:42 4,4 C 3,9 C 93 % 1038,1 hPa 0,0 l/m 0,0 km/h (0 Bft) N 0 0 min 0,0 UV-I 0 W/m 3,4 C 4,4 C 0,0 km/h (0 Bft)
05.02.2023 02:43 4,4 C 3,9 C 93 % 1038,0 hPa 0,0 l/m 0,0 km/h (0 Bft) N 0 0 min 0,0 UV-I 0 W/m 3,4 C 4,4 C 0,0 km/h (0 Bft)
05.02.2023 02:44 4,3 C 3,9 C 93 % 1038,0 hPa 0,0 l/m 0,0 km/h (0 Bft) W 270 0 min 0,0 UV-I 0 W/m 3,3 C 4,3 C 4,8 km/h (1 Bft)
05.02.2023 02:45 4,4 C 3,9 C 93 % 1038,1 hPa 0,0 l/m 3,2 km/h (1 Bft) W-NW 292 0 min 0,0 UV-I 0 W/m 3,4 C 4,4 C 6,4 km/h (2 Bft)
05.02.2023 02:46 4,3 C 3,9 C 93 % 1038,1 hPa 0,0 l/m 1,6 km/h (1 Bft) W-NW 292 0 min 0,0 UV-I 0 W/m 3,3 C 4,3 C 3,2 km/h (1 Bft)
05.02.2023 02:47 4,4 C 3,9 C 93 % 1038,0 hPa 0,0 l/m 0,0 km/h (0 Bft) NW 315 0 min 0,0 UV-I 0 W/m 3,4 C 4,4 C 6,4 km/h (2 Bft)
05.02.2023 02:48 4,3 C 3,9 C 93 % 1038,1 hPa 0,0 l/m 1,6 km/h (1 Bft) W 270 0 min 0,0 UV-I 0 W/m 3,3 C 4,3 C 4,8 km/h (1 Bft)
05.02.2023 02:49 4,3 C 3,9 C 93 % 1038,0 hPa 0,0 l/m 1,6 km/h (1 Bft) W 270 0 min 0,0 UV-I 0 W/m 3,3 C 4,3 C 4,8 km/h (1 Bft)
05.02.2023 02:50 4,3 C 3,9 C 93 % 1038,0 hPa 0,0 l/m 0,0 km/h (0 Bft) W 270 0 min 0,0 UV-I 0 W/m 3,3 C 4,3 C 1,6 km/h (1 Bft)
05.02.2023 02:51 4,3 C 3,9 C 93 % 1038,0 hPa 0,0 l/m 0,0 km/h (0 Bft) N 0 0 min 0,0 UV-I 0 W/m 3,3 C 4,3 C 0,0 km/h (0 Bft)
05.02.2023 02:52 4,3 C 3,9 C 93 % 1038,0 hPa 0,0 l/m 0,0 km/h (0 Bft) N 0 0 min 0,0 UV-I 0 W/m 3,3 C 4,3 C 0,0 km/h (0 Bft)
05.02.2023 02:53 4,3 C 3,9 C 93 % 1038,0 hPa 0,0 l/m 0,0 km/h (0 Bft) N 0 0 min 0,0 UV-I 0 W/m 3,3 C 4,3 C 0,0 km/h (0 Bft)
05.02.2023 02:54 4,3 C 3,9 C 93 % 1038,1 hPa 0,0 l/m 0,0 km/h (0 Bft) N 0 0 min 0,0 UV-I 0 W/m 3,3 C 4,3 C 0,0 km/h (0 Bft)
05.02.2023 02:55 4,3 C 3,9 C 93 % 1038,1 hPa 0,0 l/m 0,0 km/h (0 Bft) N 0 0 min 0,0 UV-I 0 W/m 3,3 C 4,3 C 0,0 km/h (0 Bft)
05.02.2023 02:56 4,3 C 3,9 C 93 % 1038,0 hPa 0,0 l/m 0,0 km/h (0 Bft) W 270 0 min 0,0 UV-I 0 W/m 3,3 C 4,3 C 1,6 km/h (1 Bft)
05.02.2023 02:57 4,3 C 3,9 C 93 % 1038,0 hPa 0,0 l/m 0,0 km/h (0 Bft) W 270 0 min 0,0 UV-I 0 W/m 3,3 C 4,3 C 1,6 km/h (1 Bft)
05.02.2023 02:58 4,3 C 3,9 C 93 % 1038,0 hPa 0,0 l/m 0,0 km/h (0 Bft) W 270 0 min 0,0 UV-I 0 W/m 3,3 C 4,3 C 1,6 km/h (1 Bft)
05.02.2023 02:59 4,3 C 3,9 C 93 % 1038,0 hPa 0,0 l/m 0,0 km/h (0 Bft) N 0 0 min 0,0 UV-I 0 W/m 3,3 C 4,3 C 0,0 km/h (0 Bft)
05.02.2023 03:00 4,3 C 3,9 C 93 % 1038,0 hPa 0,0 l/m 0,0 km/h (0 Bft) W 270 0 min 0,0 UV-I 0 W/m 3,3 C 4,3 C 1,6 km/h (1 Bft)
05.02.2023 03:01 4,3 C 3,9 C 93 % 1037,8 hPa 0,0 l/m 0,0 km/h (0 Bft) W 270 0 min 0,0 UV-I 0 W/m 3,3 C 4,3 C 1,6 km/h (1 Bft)
05.02.2023 03:02 4,3 C 3,9 C 93 % 1038,0 hPa 0,0 l/m 0,0 km/h (0 Bft) N 0 0 min 0,0 UV-I 0 W/m 3,3 C 4,3 C 0,0 km/h (0 Bft)
05.02.2023 03:03 4,3 C 3,9 C 93 % 1037,9 hPa 0,0 l/m 0,0 km/h (0 Bft) N 0 0 min 0,0 UV-I 0 W/m 3,3 C 4,3 C 0,0 km/h (0 Bft)
05.02.2023 03:04 4,3 C 3,9 C 93 % 1037,9 hPa 0,0 l/m 0,0 km/h (0 Bft) N 0 0 min 0,0 UV-I 0 W/m 3,3 C 4,3 C 0,0 km/h (0 Bft)
05.02.2023 03:05 4,2 C 3,9 C 93 % 1037,9 hPa 0,0 l/m 0,0 km/h (0 Bft) N 0 0 min 0,0 UV-I 0 W/m 3,2 C 4,2 C 0,0 km/h (0 Bft)
05.02.2023 03:06 4,2 C 3,9 C 93 % 1037,8 hPa 0,0 l/m 0,0 km/h (0 Bft) N 0 0 min 0,0 UV-I 0 W/m 3,2 C 4,2 C 0,0 km/h (0 Bft)
05.02.2023 03:07 4,2 C 3,9 C 93 % 1037,9 hPa 0,0 l/m 0,0 km/h (0 Bft) N 0 0 min 0,0 UV-I 0 W/m 3,2 C 4,2 C 0,0 km/h (0 Bft)
05.02.2023 03:08 4,2 C 3,9 C 93 % 1037,9 hPa 0,0 l/m 0,0 km/h (0 Bft) N 0 0 min 0,0 UV-I 0 W/m 3,2 C 4,2 C 0,0 km/h (0 Bft)
05.02.2023 03:09 4,3 C 3,3 C 93 % 1038,0 hPa 0,0 l/m 0,0 km/h (0 Bft) W 270 0 min 0,0 UV-I 0 W/m 3,3 C 4,3 C 1,6 km/h (1 Bft)
05.02.2023 03:10 4,2 C 3,3 C 93 % 1038,0 hPa 0,0 l/m 0,0 km/h (0 Bft) W 270 0 min 0,0 UV-I 0 W/m 3,2 C 4,2 C 1,6 km/h (1 Bft)
05.02.2023 03:11 4,2 C 3,3 C 93 % 1037,9 hPa 0,0 l/m 0,0 km/h (0 Bft) W 270 0 min 0,0 UV-I 0 W/m 3,2 C 4,2 C 1,6 km/h (1 Bft)
05.02.2023 03:12 4,2 C 3,3 C 93 % 1037,8 hPa 0,0 l/m 0,0 km/h (0 Bft) N 0 0 min 0,0 UV-I 0 W/m 3,2 C 4,2 C 0,0 km/h (0 Bft)
05.02.2023 03:13 4,2 C 3,3 C 93 % 1037,8 hPa 0,0 l/m 0,0 km/h (0 Bft) N 0 0 min 0,0 UV-I 0 W/m 3,2 C 4,2 C 0,0 km/h (0 Bft)
05.02.2023 03:14 4,2 C 3,3 C 93 % 1037,8 hPa 0,0 l/m 0,0 km/h (0 Bft) N 0 0 min 0,0 UV-I 0 W/m 3,2 C 4,2 C 0,0 km/h (0 Bft)
05.02.2023 03:15 4,2 C 3,3 C 93 % 1037,9 hPa 0,0 l/m 0,0 km/h (0 Bft) W 270 0 min 0,0 UV-I 0 W/m 3,2 C 4,2 C 1,6 km/h (1 Bft)
05.02.2023 03:16 4,2 C 3,3 C 93 % 1038,0 hPa 0,0 l/m 0,0 km/h (0 Bft) W 270 0 min 0,0 UV-I 0 W/m 3,2 C 4,2 C 1,6 km/h (1 Bft)
05.02.2023 03:17 4,2 C 3,3 C 93 % 1038,1 hPa 0,0 l/m 0,0 km/h (0 Bft) N 0 0 min 0,0 UV-I 0 W/m 3,2 C 4,2 C 0,0 km/h (0 Bft)
05.02.2023 03:18 4,2 C 3,3 C 93 % 1038,0 hPa 0,0 l/m 0,0 km/h (0 Bft) N 0 0 min 0,0 UV-I 0 W/m 3,2 C 4,2 C 0,0 km/h (0 Bft)
05.02.2023 03:19 4,2 C 3,3 C 93 % 1038,0 hPa 0,0 l/m 0,0 km/h (0 Bft) N 0 0 min 0,0 UV-I 0 W/m 3,2 C 4,2 C 0,0 km/h (0 Bft)
05.02.2023 03:20 4,2 C 3,3 C 93 % 1037,9 hPa 0,0 l/m 0,0 km/h (0 Bft) N 0 0 min 0,0 UV-I 0 W/m 3,2 C 4,2 C 0,0 km/h (0 Bft)
05.02.2023 03:21 4,2 C 3,3 C 93 % 1038,0 hPa 0,0 l/m 0,0 km/h (0 Bft) N 0 0 min 0,0 UV-I 0 W/m 3,2 C 4,2 C 0,0 km/h (0 Bft)
05.02.2023 03:22 4,2 C 3,3 C 93 % 1038,0 hPa 0,0 l/m 0,0 km/h (0 Bft) W 270 0 min 0,0 UV-I 0 W/m 3,2 C 4,2 C 1,6 km/h (1 Bft)
05.02.2023 03:23 4,2 C 3,3 C 93 % 1038,0 hPa 0,0 l/m 0,0 km/h (0 Bft) N 0 0 min 0,0 UV-I 0 W/m 3,2 C 4,2 C 0,0 km/h (0 Bft)
05.02.2023 03:24 4,2 C 3,3 C 93 % 1038,1 hPa 0,0 l/m 0,0 km/h (0 Bft) N 0 0 min 0,0 UV-I 0 W/m 3,2 C 4,2 C 0,0 km/h (0 Bft)
05.02.2023 03:25 4,2 C 3,3 C 93 % 1038,1 hPa 0,0 l/m 0,0 km/h (0 Bft) W 270 0 min 0,0 UV-I 0 W/m 3,2 C 4,2 C 1,6 km/h (1 Bft)
05.02.2023 03:26 4,2 C 3,3 C 93 % 1038,1 hPa 0,0 l/m 0,0 km/h (0 Bft) N 0 0 min 0,0 UV-I 0 W/m 3,2 C 4,2 C 0,0 km/h (0 Bft)
05.02.2023 03:27 4,1 C 3,3 C 93 % 1038,1 hPa 0,0 l/m 0,0 km/h (0 Bft) N 0 0 min 0,0 UV-I 0 W/m 3,1 C 4,1 C 0,0 km/h (0 Bft)
05.02.2023 03:28 4,1 C 3,3 C 93 % 1038,0 hPa 0,0 l/m 0,0 km/h (0 Bft) N 0 0 min 0,0 UV-I 0 W/m 3,1 C 4,1 C 0,0 km/h (0 Bft)
05.02.2023 03:29 4,1 C 3,3 C 93 % 1038,0 hPa 0,0 l/m 0,0 km/h (0 Bft) N 0 0 min 0,0 UV-I 0 W/m 3,1 C 4,1 C 0,0 km/h (0 Bft)
05.02.2023 03:30 4,1 C 3,3 C 93 % 1038,0 hPa 0,0 l/m 0,0 km/h (0 Bft) N 0 0 min 0,0 UV-I 0 W/m 3,1 C 4,1 C 0,0 km/h (0 Bft)
05.02.2023 03:31 4,1 C 3,3 C 93 % 1037,9 hPa 0,0 l/m 0,0 km/h (0 Bft) N 0 0 min 0,0 UV-I 0 W/m 3,1 C 4,1 C 0,0 km/h (0 Bft)
05.02.2023 03:32 4,1 C 3,3 C 93 % 1037,8 hPa 0,0 l/m 0,0 km/h (0 Bft) N 0 0 min 0,0 UV-I 0 W/m 3,1 C 4,1 C 0,0 km/h (0 Bft)
05.02.2023 03:33 4,1 C 3,3 C 93 % 1037,9 hPa 0,0 l/m 0,0 km/h (0 Bft) N 0 0 min 0,0 UV-I 0 W/m 3,1 C 4,1 C 0,0 km/h (0 Bft)
05.02.2023 03:34 4,1 C 3,3 C 93 % 1037,8 hPa 0,0 l/m 0,0 km/h (0 Bft) N 0 0 min 0,0 UV-I 0 W/m 3,1 C 4,1 C 0,0 km/h (0 Bft)
05.02.2023 03:35 4,1 C 3,3 C 93 % 1037,8 hPa 0,0 l/m 0,0 km/h (0 Bft) N 0 0 min 0,0 UV-I 0 W/m 3,1 C 4,1 C 0,0 km/h (0 Bft)
05.02.2023 03:36 4,1 C 3,3 C 93 % 1037,7 hPa 0,0 l/m 0,0 km/h (0 Bft) N 0 0 min 0,0 UV-I 0 W/m 3,1 C 4,1 C 0,0 km/h (0 Bft)
05.02.2023 03:37 4,1 C 3,3 C 93 % 1037,8 hPa 0,0 l/m 0,0 km/h (0 Bft) N 0 0 min 0,0 UV-I 0 W/m 3,1 C 4,1 C 0,0 km/h (0 Bft)
05.02.2023 03:38 4,1 C 3,3 C 93 % 1037,8 hPa 0,0 l/m 0,0 km/h (0 Bft) N 0 0 min 0,0 UV-I 0 W/m 3,1 C 4,1 C 0,0 km/h (0 Bft)
05.02.2023 03:39 4,1 C 3,3 C 93 % 1037,9 hPa 0,0 l/m 0,0 km/h (0 Bft) W 270 0 min 0,0 UV-I 0 W/m 3,1 C 4,1 C 1,6 km/h (1 Bft)
05.02.2023 03:40 4,1 C 3,3 C 93 % 1037,9 hPa 0,0 l/m 0,0 km/h (0 Bft) W 270 0 min 0,0 UV-I 0 W/m 3,1 C 4,1 C 1,6 km/h (1 Bft)
05.02.2023 03:41 4,1 C 3,3 C 93 % 1037,9 hPa 0,0 l/m 0,0 km/h (0 Bft) N 0 0 min 0,0 UV-I 0 W/m 3,1 C 4,1 C 0,0 km/h (0 Bft)
05.02.2023 03:42 4,1 C 3,3 C 93 % 1037,8 hPa 0,0 l/m 1,6 km/h (1 Bft) W 270 0 min 0,0 UV-I 0 W/m 3,1 C 4,1 C 3,2 km/h (1 Bft)
05.02.2023 03:43 4,1 C 3,3 C 93 % 1037,7 hPa 0,0 l/m 1,6 km/h (1 Bft) W 270 0 min 0,0 UV-I 0 W/m 3,1 C 4,1 C 3,2 km/h (1 Bft)
05.02.2023 03:44 4,0 C 3,3 C 93 % 1037,7 hPa 0,0 l/m 3,2 km/h (1 Bft) W 270 0 min 0,0 UV-I 0 W/m 3,0 C 4,0 C 4,8 km/h (1 Bft)
05.02.2023 03:45 4,1 C 3,3 C 93 % 1037,6 hPa 0,0 l/m 3,2 km/h (1 Bft) W 270 0 min 0,0 UV-I 0 W/m 3,1 C 4,1 C 3,2 km/h (1 Bft)
05.02.2023 03:46 4,0 C 3,3 C 93 % 1037,7 hPa 0,0 l/m 1,6 km/h (1 Bft) W 270 0 min 0,0 UV-I 0 W/m 3,0 C 4,0 C 4,8 km/h (1 Bft)
05.02.2023 03:47 4,0 C 3,3 C 93 % 1037,8 hPa 0,0 l/m 0,0 km/h (0 Bft) W 270 0 min 0,0 UV-I 0 W/m 3,0 C 4,0 C 1,6 km/h (1 Bft)
05.02.2023 03:48 4,1 C 3,3 C 93 % 1037,8 hPa 0,0 l/m 1,6 km/h (1 Bft) W 270 0 min 0,0 UV-I 0 W/m 3,1 C 4,1 C 3,2 km/h (1 Bft)
05.02.2023 03:49 4,0 C 3,3 C 93 % 1037,8 hPa 0,0 l/m 0,0 km/h (0 Bft) W 270 0 min 0,0 UV-I 0 W/m 3,0 C 4,0 C 1,6 km/h (1 Bft)
05.02.2023 03:50 4,0 C 3,3 C 93 % 1037,9 hPa 0,0 l/m 0,0 km/h (0 Bft) W 270 0 min 0,0 UV-I 0 W/m 3,0 C 4,0 C 1,6 km/h (1 Bft)
05.02.2023 03:51 4,0 C 3,3 C 93 % 1037,8 hPa 0,0 l/m 0,0 km/h (0 Bft) W 270 0 min 0,0 UV-I 0 W/m 3,0 C 4,0 C 3,2 km/h (1 Bft)
05.02.2023 03:52 4,0 C 3,3 C 93 % 1037,8 hPa 0,0 l/m 0,0 km/h (0 Bft) W 270 0 min 0,0 UV-I 0 W/m 3,0 C 4,0 C 3,2 km/h (1 Bft)
05.02.2023 03:53 4,0 C 3,3 C 93 % 1037,7 hPa 0,0 l/m 1,6 km/h (1 Bft) W 270 0 min 0,0 UV-I 0 W/m 3,0 C 4,0 C 3,2 km/h (1 Bft)
05.02.2023 03:54 4,0 C 3,3 C 93 % 1037,8 hPa 0,0 l/m 1,6 km/h (1 Bft) W 270 0 min 0,0 UV-I 0 W/m 3,0 C 4,0 C 3,2 km/h (1 Bft)
05.02.2023 03:55 4,0 C 3,3 C 93 % 1037,8 hPa 0,0 l/m 1,6 km/h (1 Bft) W 270 0 min 0,0 UV-I 0 W/m 3,0 C 4,0 C 4,8 km/h (1 Bft)
05.02.2023 03:56 4,0 C 3,3 C 93 % 1038,0 hPa 0,0 l/m 0,0 km/h (0 Bft) W 270 0 min 0,0 UV-I 0 W/m 3,0 C 4,0 C 1,6 km/h (1 Bft)
05.02.2023 03:57 4,0 C 3,3 C 93 % 1038,0 hPa 0,0 l/m 1,6 km/h (1 Bft) W 270 0 min 0,0 UV-I 0 W/m 3,0 C 4,0 C 3,2 km/h (1 Bft)
05.02.2023 03:58 4,0 C 3,3 C 93 % 1038,0 hPa 0,0 l/m 1,6 km/h (1 Bft) W 270 0 min 0,0 UV-I 0 W/m 3,0 C 4,0 C 3,2 km/h (1 Bft)
05.02.2023 03:59 4,0 C 3,3 C 93 % 1038,1 hPa 0,0 l/m 0,0 km/h (0 Bft) W 270 0 min 0,0 UV-I 0 W/m 3,0 C 4,0 C 1,6 km/h (1 Bft)
05.02.2023 04:00 4,0 C 3,3 C 93 % 1038,1 hPa 0,0 l/m 0,0 km/h (0 Bft) W 270 0 min 0,0 UV-I 0 W/m 3,0 C 4,0 C 3,2 km/h (1 Bft)
05.02.2023 04:01 4,0 C 3,3 C 93 % 1038,1 hPa 0,0 l/m 1,6 km/h (1 Bft) W 270 0 min 0,0 UV-I 0 W/m 3,0 C 4,0 C 3,2 km/h (1 Bft)
05.02.2023 04:02 4,0 C 3,3 C 93 % 1038,1 hPa 0,0 l/m 1,6 km/h (1 Bft) W 270 0 min 0,0 UV-I 0 W/m 3,0 C 4,0 C 3,2 km/h (1 Bft)
05.02.2023 04:03 4,0 C 3,3 C 93 % 1038,1 hPa 0,0 l/m 1,6 km/h (1 Bft) W 270 0 min 0,0 UV-I 0 W/m 3,0 C 4,0 C 3,2 km/h (1 Bft)
05.02.2023 04:04 4,0 C 3,3 C 93 % 1038,1 hPa 0,0 l/m 1,6 km/h (1 Bft) W 270 0 min 0,0 UV-I 0 W/m 3,0 C 4,0 C 4,8 km/h (1 Bft)
05.02.2023 04:05 4,0 C 3,3 C 93 % 1038,1 hPa 0,0 l/m 0,0 km/h (0 Bft) W 270 0 min 0,0 UV-I 0 W/m 3,0 C 4,0 C 3,2 km/h (1 Bft)
05.02.2023 04:06 4,0 C 3,3 C 93 % 1038,1 hPa 0,0 l/m 4,8 km/h (1 Bft) W 270 0 min 0,0 UV-I 0 W/m 3,0 C 4,0 C 8,0 km/h (2 Bft)
05.02.2023 04:07 4,0 C 3,3 C 93 % 1038,3 hPa 0,0 l/m 3,2 km/h (1 Bft) W 270 0 min 0,0 UV-I 0 W/m 3,0 C 4,0 C 4,8 km/h (1 Bft)
05.02.2023 04:08 4,0 C 3,3 C 93 % 1038,3 hPa 0,0 l/m 1,6 km/h (1 Bft) W 270 0 min 0,0 UV-I 0 W/m 3,0 C 4,0 C 3,2 km/h (1 Bft)
05.02.2023 04:09 4,0 C 3,3 C 93 % 1038,2 hPa 0,0 l/m 3,2 km/h (1 Bft) W 270 0 min 0,0 UV-I 0 W/m 3,0 C 4,0 C 4,8 km/h (1 Bft)
05.02.2023 04:10 4,0 C 3,3 C 93 % 1038,2 hPa 0,0 l/m 4,8 km/h (1 Bft) W 270 0 min 0,0 UV-I 0 W/m 3,0 C 4,0 C 6,4 km/h (2 Bft)
05.02.2023 04:11 4,0 C 3,3 C 93 % 1038,3 hPa 0,0 l/m 1,6 km/h (1 Bft) W 270 0 min 0,0 UV-I 0 W/m 3,0 C 4,0 C 4,8 km/h (1 Bft)
05.02.2023 04:12 4,0 C 3,3 C 93 % 1038,3 hPa 0,0 l/m 1,6 km/h (1 Bft) W 270 0 min 0,0 UV-I 0 W/m 3,0 C 4,0 C 3,2 km/h (1 Bft)
05.02.2023 04:13 4,0 C 3,3 C 93 % 1038,3 hPa 0,0 l/m 0,0 km/h (0 Bft) W 270 0 min 0,0 UV-I 0 W/m 3,0 C 4,0 C 3,2 km/h (1 Bft)
05.02.2023 04:14 4,1 C 3,3 C 93 % 1038,2 hPa 0,0 l/m 0,0 km/h (0 Bft) W 270 0 min 0,0 UV-I 0 W/m 3,1 C 4,1 C 3,2 km/h (1 Bft)
05.02.2023 04:15 4,1 C 3,3 C 93 % 1038,1 hPa 0,0 l/m 0,0 km/h (0 Bft) W 270 0 min 0,0 UV-I 0 W/m 3,1 C 4,1 C 3,2 km/h (1 Bft)
05.02.2023 04:16 4,0 C 3,3 C 93 % 1038,1 hPa 0,0 l/m 0,0 km/h (0 Bft) N 0 0 min 0,0 UV-I 0 W/m 3,0 C 4,0 C 0,0 km/h (0 Bft)
05.02.2023 04:17 4,1 C 3,3 C 93 % 1038,1 hPa 0,0 l/m 0,0 km/h (0 Bft) N 0 0 min 0,0 UV-I 0 W/m 3,1 C 4,1 C 0,0 km/h (0 Bft)
05.02.2023 04:18 4,1 C 3,3 C 93 % 1038,2 hPa 0,0 l/m 0,0 km/h (0 Bft) W 270 0 min 0,0 UV-I 0 W/m 3,1 C 4,1 C 3,2 km/h (1 Bft)
05.02.2023 04:19 4,1 C 3,3 C 93 % 1038,2 hPa 0,0 l/m 1,6 km/h (1 Bft) W 270 0 min 0,0 UV-I 0 W/m 3,1 C 4,1 C 3,2 km/h (1 Bft)
05.02.2023 04:20 4,0 C 3,3 C 93 % 1038,2 hPa 0,0 l/m 3,2 km/h (1 Bft) W 270 0 min 0,0 UV-I 0 W/m 3,0 C 4,0 C 3,2 km/h (1 Bft)
05.02.2023 04:21 4,1 C 3,3 C 93 % 1038,1 hPa 0,0 l/m 1,6 km/h (1 Bft) W 270 0 min 0,0 UV-I 0 W/m 3,1 C 4,1 C 4,8 km/h (1 Bft)
05.02.2023 04:22 4,1 C 3,3 C 93 % 1038,2 hPa 0,0 l/m 1,6 km/h (1 Bft) W 270 0 min 0,0 UV-I 0 W/m 3,1 C 4,1 C 3,2 km/h (1 Bft)
05.02.2023 04:23 4,1 C 3,3 C 93 % 1038,2 hPa 0,0 l/m 1,6 km/h (1 Bft) W 270 0 min 0,0 UV-I 0 W/m 3,1 C 4,1 C 3,2 km/h (1 Bft)
05.02.2023 04:24 4,1 C 3,3 C 93 % 1038,2 hPa 0,0 l/m 1,6 km/h (1 Bft) W 270 0 min 0,0 UV-I 0 W/m 3,1 C 4,1 C 4,8 km/h (1 Bft)
05.02.2023 04:25 4,1 C 3,3 C 93 % 1038,2 hPa 0,0 l/m 3,2 km/h (1 Bft) W 270 0 min 0,0 UV-I 0 W/m 3,1 C 4,1 C 4,8 km/h (1 Bft)
05.02.2023 04:26 4,1 C 3,3 C 93 % 1038,2 hPa 0,0 l/m 3,2 km/h (1 Bft) W 270 0 min 0,0 UV-I 0 W/m 3,1 C 4,1 C 4,8 km/h (1 Bft)
05.02.2023 04:27 4,1 C 3,3 C 93 % 1038,2 hPa 0,0 l/m 0,0 km/h (0 Bft) W 270 0 min 0,0 UV-I 0 W/m 3,1 C 4,1 C 3,2 km/h (1 Bft)
05.02.2023 04:28 4,1 C 3,3 C 93 % 1038,2 hPa 0,0 l/m 1,6 km/h (1 Bft) W 270 0 min 0,0 UV-I 0 W/m 3,1 C 4,1 C 4,8 km/h (1 Bft)
05.02.2023 04:29 4,1 C 3,3 C 93 % 1038,1 hPa 0,0 l/m 3,2 km/h (1 Bft) W 270 0 min 0,0 UV-I 0 W/m 3,1 C 4,1 C 4,8 km/h (1 Bft)
05.02.2023 04:30 4,1 C 3,3 C 93 % 1038,1 hPa 0,0 l/m 0,0 km/h (0 Bft) W 270 0 min 0,0 UV-I 0 W/m 3,1 C 4,1 C 3,2 km/h (1 Bft)
05.02.2023 04:31 4,1 C 3,3 C 93 % 1038,1 hPa 0,0 l/m 1,6 km/h (1 Bft) W 270 0 min 0,0 UV-I 0 W/m 3,1 C 4,1 C 4,8 km/h (1 Bft)
05.02.2023 04:32 4,1 C 3,3 C 93 % 1038,2 hPa 0,0 l/m 0,0 km/h (0 Bft) W 270 0 min 0,0 UV-I 0 W/m 3,1 C 4,1 C 3,2 km/h (1 Bft)
05.02.2023 04:33 4,1 C 3,3 C 93 % 1038,1 hPa 0,0 l/m 3,2 km/h (1 Bft) W 270 0 min 0,0 UV-I 0 W/m 3,1 C 4,1 C 4,8 km/h (1 Bft)
05.02.2023 04:34 4,1 C 3,3 C 93 % 1038,1 hPa 0,0 l/m 1,6 km/h (1 Bft) W 270 0 min 0,0 UV-I 0 W/m 3,1 C 4,1 C 3,2 km/h (1 Bft)
05.02.2023 04:35 4,1 C 3,3 C 93 % 1038,1 hPa 0,0 l/m 0,0 km/h (0 Bft) W 270 0 min 0,0 UV-I 0 W/m 3,1 C 4,1 C 3,2 km/h (1 Bft)
05.02.2023 04:36 4,1 C 3,3 C 93 % 1038,0 hPa 0,0 l/m 0,0 km/h (0 Bft) W 270 0 min 0,0 UV-I 0 W/m 3,1 C 4,1 C 1,6 km/h (1 Bft)
05.02.2023 04:37 4,1 C 3,3 C 93 % 1038,0 hPa 0,0 l/m 0,0 km/h (0 Bft) N 0 0 min 0,0 UV-I 0 W/m 3,1 C 4,1 C 0,0 km/h (0 Bft)
05.02.2023 04:38 4,1 C 3,3 C 93 % 1038,0 hPa 0,0 l/m 1,6 km/h (1 Bft) W 270 0 min 0,0 UV-I 0 W/m 3,1 C 4,1 C 4,8 km/h (1 Bft)
05.02.2023 04:39 4,1 C 3,3 C 93 % 1037,9 hPa 0,0 l/m 1,6 km/h (1 Bft) W 270 0 min 0,0 UV-I 0 W/m 3,1 C 4,1 C 4,8 km/h (1 Bft)
05.02.2023 04:40 4,1 C 3,3 C 93 % 1037,8 hPa 0,0 l/m 0,0 km/h (0 Bft) W 270 0 min 0,0 UV-I 0 W/m 3,1 C 4,1 C 1,6 km/h (1 Bft)
05.02.2023 04:41 4,1 C 3,3 C 93 % 1037,7 hPa 0,0 l/m 0,0 km/h (0 Bft) W 270 0 min 0,0 UV-I 0 W/m 3,1 C 4,1 C 1,6 km/h (1 Bft)
05.02.2023 04:42 4,1 C 3,3 C 93 % 1037,7 hPa 0,0 l/m 0,0 km/h (0 Bft) N 0 0 min 0,0 UV-I 0 W/m 3,1 C 4,1 C 0,0 km/h (0 Bft)
05.02.2023 04:43 4,1 C 3,3 C 93 % 1037,7 hPa 0,0 l/m 0,0 km/h (0 Bft) N 0 0 min 0,0 UV-I 0 W/m 3,1 C 4,1 C 0,0 km/h (0 Bft)
05.02.2023 04:44 4,1 C 3,3 C 93 % 1037,6 hPa 0,0 l/m 0,0 km/h (0 Bft) N 0 0 min 0,0 UV-I 0 W/m 3,1 C 4,1 C 0,0 km/h (0 Bft)
05.02.2023 04:45 4,1 C 3,3 C 93 % 1037,6 hPa 0,0 l/m 0,0 km/h (0 Bft) N 0 0 min 0,0 UV-I 0 W/m 3,1 C 4,1 C 0,0 km/h (0 Bft)
05.02.2023 04:46 4,1 C 3,3 C 93 % 1037,6 hPa 0,0 l/m 0,0 km/h (0 Bft) N 0 0 min 0,0 UV-I 0 W/m 3,1 C 4,1 C 0,0 km/h (0 Bft)
05.02.2023 04:47 4,1 C 3,3 C 93 % 1037,7 hPa 0,0 l/m 0,0 km/h (0 Bft) N 0 0 min 0,0 UV-I 0 W/m 3,1 C 4,1 C 0,0 km/h (0 Bft)
05.02.2023 04:48 4,1 C 3,3 C 93 % 1037,8 hPa 0,0 l/m 0,0 km/h (0 Bft) N 0 0 min 0,0 UV-I 0 W/m 3,1 C 4,1 C 0,0 km/h (0 Bft)
05.02.2023 04:49 4,1 C 3,3 C 93 % 1037,7 hPa 0,0 l/m 0,0 km/h (0 Bft) W 270 0 min 0,0 UV-I 0 W/m 3,1 C 4,1 C 3,2 km/h (1 Bft)
05.02.2023 04:50 4,1 C 3,3 C 93 % 1037,7 hPa 0,0 l/m 0,0 km/h (0 Bft) N 0 0 min 0,0 UV-I 0 W/m 3,1 C 4,1 C 0,0 km/h (0 Bft)
05.02.2023 04:51 4,1 C 3,3 C 93 % 1037,5 hPa 0,0 l/m 0,0 km/h (0 Bft) N 0 0 min 0,0 UV-I 0 W/m 3,1 C 4,1 C 0,0 km/h (0 Bft)
05.02.2023 04:52 4,1 C 3,3 C 93 % 1037,6 hPa 0,0 l/m 0,0 km/h (0 Bft) N 0 0 min 0,0 UV-I 0 W/m 3,1 C 4,1 C 0,0 km/h (0 Bft)
05.02.2023 04:53 4,1 C 3,3 C 93 % 1037,5 hPa 0,0 l/m 0,0 km/h (0 Bft) N 0 0 min 0,0 UV-I 0 W/m 3,1 C 4,1 C 0,0 km/h (0 Bft)
05.02.2023 04:54 4,1 C 3,3 C 93 % 1037,6 hPa 0,0 l/m 0,0 km/h (0 Bft) N 0 0 min 0,0 UV-I 0 W/m 3,1 C 4,1 C 0,0 km/h (0 Bft)
05.02.2023 04:55 4,1 C 3,3 C 93 % 1037,7 hPa 0,0 l/m 0,0 km/h (0 Bft) N 0 0 min 0,0 UV-I 0 W/m 3,1 C 4,1 C 0,0 km/h (0 Bft)
05.02.2023 04:56 4,1 C 3,3 C 93 % 1037,6 hPa 0,0 l/m 0,0 km/h (0 Bft) N 0 0 min 0,0 UV-I 0 W/m 3,1 C 4,1 C 0,0 km/h (0 Bft)
05.02.2023 04:57 4,1 C 3,3 C 93 % 1037,6 hPa 0,0 l/m 0,0 km/h (0 Bft) N 0 0 min 0,0 UV-I 0 W/m 3,1 C 4,1 C 0,0 km/h (0 Bft)
05.02.2023 04:58 4,1 C 3,3 C 93 % 1037,6 hPa 0,0 l/m 0,0 km/h (0 Bft) N 0 0 min 0,0 UV-I 0 W/m 3,1 C 4,1 C 0,0 km/h (0 Bft)
05.02.2023 04:59 4,1 C 3,3 C 93 % 1037,6 hPa 0,0 l/m 0,0 km/h (0 Bft) N 0 0 min 0,0 UV-I 0 W/m 3,1 C 4,1 C 0,0 km/h (0 Bft)
05.02.2023 05:00 4,1 C 3,3 C 93 % 1037,6 hPa 0,0 l/m 0,0 km/h (0 Bft) N 0 0 min 0,0 UV-I 0 W/m 3,1 C 4,1 C 0,0 km/h (0 Bft)
05.02.2023 05:01 4,1 C 3,3 C 93 % 1037,7 hPa 0,0 l/m 0,0 km/h (0 Bft) N 0 0 min 0,0 UV-I 0 W/m 3,1 C 4,1 C 0,0 km/h (0 Bft)
05.02.2023 05:02 4,1 C 3,3 C 93 % 1037,7 hPa 0,0 l/m 0,0 km/h (0 Bft) W 270 0 min 0,0 UV-I 0 W/m 3,1 C 4,1 C 1,6 km/h (1 Bft)
05.02.2023 05:03 4,1 C 3,3 C 93 % 1037,7 hPa 0,0 l/m 0,0 km/h (0 Bft) W 270 0 min 0,0 UV-I 0 W/m 3,1 C 4,1 C 1,6 km/h (1 Bft)
05.02.2023 05:04 4,1 C 3,3 C 93 % 1037,7 hPa 0,0 l/m 0,0 km/h (0 Bft) W 270 0 min 0,0 UV-I 0 W/m 3,1 C 4,1 C 3,2 km/h (1 Bft)
05.02.2023 05:05 4,1 C 3,3 C 93 % 1037,7 hPa 0,0 l/m 1,6 km/h (1 Bft) W 270 0 min 0,0 UV-I 0 W/m 3,1 C 4,1 C 3,2 km/h (1 Bft)
05.02.2023 05:06 4,1 C 3,3 C 93 % 1037,7 hPa 0,0 l/m 1,6 km/h (1 Bft) W 270 0 min 0,0 UV-I 0 W/m 3,1 C 4,1 C 3,2 km/h (1 Bft)
05.02.2023 05:07 4,1 C 3,3 C 93 % 1037,7 hPa 0,0 l/m 0,0 km/h (0 Bft) W 270 0 min 0,0 UV-I 0 W/m 3,1 C 4,1 C 3,2 km/h (1 Bft)
05.02.2023 05:08 4,1 C 3,3 C 93 % 1037,7 hPa 0,0 l/m 0,0 km/h (0 Bft) N 0 0 min 0,0 UV-I 0 W/m 3,1 C 4,1 C 0,0 km/h (0 Bft)
05.02.2023 05:09 4,1 C 3,3 C 93 % 1037,6 hPa 0,0 l/m 0,0 km/h (0 Bft) N 0 0 min 0,0 UV-I 0 W/m 3,1 C 4,1 C 0,0 km/h (0 Bft)
05.02.2023 05:10 4,1 C 3,3 C 93 % 1037,7 hPa 0,0 l/m 0,0 km/h (0 Bft) N 0 0 min 0,0 UV-I 0 W/m 3,1 C 4,1 C 0,0 km/h (0 Bft)
05.02.2023 05:11 4,1 C 3,3 C 93 % 1037,7 hPa 0,0 l/m 0,0 km/h (0 Bft) N 0 0 min 0,0 UV-I 0 W/m 3,1 C 4,1 C 0,0 km/h (0 Bft)
05.02.2023 05:12 4,1 C 3,3 C 93 % 1037,7 hPa 0,0 l/m 0,0 km/h (0 Bft) N 0 0 min 0,0 UV-I 0 W/m 3,1 C 4,1 C 0,0 km/h (0 Bft)
05.02.2023 05:13 4,1 C 3,3 C 93 % 1037,7 hPa 0,0 l/m 0,0 km/h (0 Bft) N 0 0 min 0,0 UV-I 0 W/m 3,1 C 4,1 C 0,0 km/h (0 Bft)
05.02.2023 05:14 4,1 C 3,3 C 93 % 1037,6 hPa 0,0 l/m 0,0 km/h (0 Bft) N 0 0 min 0,0 UV-I 0 W/m 3,1 C 4,1 C 0,0 km/h (0 Bft)
05.02.2023 05:15 4,1 C 3,3 C 93 % 1037,7 hPa 0,0 l/m 0,0 km/h (0 Bft) W 270 0 min 0,0 UV-I 0 W/m 3,1 C 4,1 C 1,6 km/h (1 Bft)
05.02.2023 05:16 4,1 C 3,3 C 93 % 1037,7 hPa 0,0 l/m 0,0 km/h (0 Bft) W 270 0 min 0,0 UV-I 0 W/m 3,1 C 4,1 C 1,6 km/h (1 Bft)
05.02.2023 05:17 4,1 C 3,3 C 93 % 1037,7 hPa 0,0 l/m 1,6 km/h (1 Bft) W 270 0 min 0,0 UV-I 0 W/m 3,1 C 4,1 C 3,2 km/h (1 Bft)
05.02.2023 05:18 4,1 C 3,3 C 93 % 1037,8 hPa 0,0 l/m 0,0 km/h (0 Bft) W 270 0 min 0,0 UV-I 0 W/m 3,1 C 4,1 C 3,2 km/h (1 Bft)
05.02.2023 05:19 4,1 C 3,3 C 93 % 1037,7 hPa 0,0 l/m 1,6 km/h (1 Bft) W 270 0 min 0,0 UV-I 0 W/m 3,1 C 4,1 C 6,4 km/h (2 Bft)
05.02.2023 05:20 4,1 C 3,3 C 93 % 1037,8 hPa 0,0 l/m 4,8 km/h (1 Bft) W-SW 247 0 min 0,0 UV-I 0 W/m 3,1 C 4,1 C 9,7 km/h (2 Bft)
05.02.2023 05:21 4,1 C 3,3 C 93 % 1037,8 hPa 0,0 l/m 6,4 km/h (2 Bft) W-SW 247 0 min 0,0 UV-I 0 W/m 3,1 C 4,1 C 9,7 km/h (2 Bft)
05.02.2023 05:22 4,1 C 3,3 C 93 % 1037,8 hPa 0,0 l/m 3,2 km/h (1 Bft) W-SW 247 0 min 0,0 UV-I 0 W/m 3,1 C 4,1 C 6,4 km/h (2 Bft)
05.02.2023 05:23 4,1 C 3,3 C 93 % 1037,8 hPa 0,0 l/m 8,0 km/h (2 Bft) W-SW 247 0 min 0,0 UV-I 0 W/m 3,1 C 2,7 C 12,9 km/h (3 Bft)
05.02.2023 05:24 4,1 C 3,3 C 93 % 1037,7 hPa 0,0 l/m 8,0 km/h (2 Bft) W-SW 247 0 min 0,0 UV-I 0 W/m 3,1 C 2,7 C 12,9 km/h (3 Bft)
05.02.2023 05:25 4,1 C 3,3 C 93 % 1037,7 hPa 0,0 l/m 6,4 km/h (2 Bft) W 270 0 min 0,0 UV-I 0 W/m 3,1 C 4,1 C 9,7 km/h (2 Bft)
05.02.2023 05:26 4,1 C 3,3 C 93 % 1037,7 hPa 0,0 l/m 12,9 km/h (3 Bft) W 270 0 min 0,0 UV-I 0 W/m 3,1 C -0,8 C 16,1 km/h (3 Bft)
05.02.2023 05:27 4,1 C 3,3 C 93 % 1037,7 hPa 0,0 l/m 9,7 km/h (2 Bft) W-SW 247 0 min 0,0 UV-I 0 W/m 3,1 C 1,3 C 16,1 km/h (3 Bft)
05.02.2023 05:28 4,1 C 3,3 C 93 % 1037,6 hPa 0,0 l/m 8,0 km/h (2 Bft) W 270 0 min 0,0 UV-I 0 W/m 3,1 C 2,7 C 14,5 km/h (3 Bft)
05.02.2023 05:29 4,0 C 3,3 C 93 % 1037,6 hPa 0,0 l/m 8,0 km/h (2 Bft) W-SW 247 0 min 0,0 UV-I 0 W/m 3,0 C 2,6 C 12,9 km/h (3 Bft)
05.02.2023 05:30 4,0 C 3,3 C 93 % 1037,7 hPa 0,0 l/m 4,8 km/h (1 Bft) W-SW 247 0 min 0,0 UV-I 0 W/m 3,0 C 4,0 C 11,3 km/h (2 Bft)
05.02.2023 05:31 4,0 C 3,3 C 93 % 1037,7 hPa 0,0 l/m 4,8 km/h (1 Bft) W-SW 247 0 min 0,0 UV-I 0 W/m 3,0 C 4,0 C 9,7 km/h (2 Bft)
05.02.2023 05:32 4,0 C 3,3 C 93 % 1037,7 hPa 0,0 l/m 4,8 km/h (1 Bft) W 270 0 min 0,0 UV-I 0 W/m 3,0 C 4,0 C 9,7 km/h (2 Bft)
05.02.2023 05:33 3,9 C 3,3 C 93 % 1037,8 hPa 0,0 l/m 4,8 km/h (1 Bft) W 270 0 min 0,0 UV-I 0 W/m 2,9 C 3,9 C 6,4 km/h (2 Bft)
05.02.2023 05:34 3,9 C 3,3 C 93 % 1037,8 hPa 0,0 l/m 3,2 km/h (1 Bft) W 270 0 min 0,0 UV-I 0 W/m 2,9 C 3,9 C 4,8 km/h (1 Bft)
05.02.2023 05:35 3,9 C 3,3 C 93 % 1037,8 hPa 0,0 l/m 4,8 km/h (1 Bft) W 270 0 min 0,0 UV-I 0 W/m 2,9 C 3,9 C 6,4 km/h (2 Bft)
05.02.2023 05:36 3,9 C 3,3 C 93 % 1037,9 hPa 0,0 l/m 3,2 km/h (1 Bft) W-SW 247 0 min 0,0 UV-I 0 W/m 2,9 C 3,9 C 4,8 km/h (1 Bft)
05.02.2023 05:37 3,9 C 3,3 C 93 % 1037,9 hPa 0,0 l/m 3,2 km/h (1 Bft) W-SW 247 0 min 0,0 UV-I 0 W/m 2,9 C 3,9 C 6,4 km/h (2 Bft)
05.02.2023 05:38 3,9 C 3,3 C 93 % 1038,0 hPa 0,0 l/m 1,6 km/h (1 Bft) W-SW 247 0 min 0,0 UV-I 0 W/m 2,9 C 3,9 C 3,2 km/h (1 Bft)
05.02.2023 05:39 3,8 C 3,3 C 93 % 1037,9 hPa 0,0 l/m 3,2 km/h (1 Bft) W-SW 247 0 min 0,0 UV-I 0 W/m 2,8 C 3,8 C 4,8 km/h (1 Bft)
05.02.2023 05:40 3,9 C 3,3 C 93 % 1037,9 hPa 0,0 l/m 1,6 km/h (1 Bft) W-SW 247 0 min 0,0 UV-I 0 W/m 2,9 C 3,9 C 4,8 km/h (1 Bft)
05.02.2023 05:41 3,8 C 3,3 C 93 % 1037,8 hPa 0,0 l/m 3,2 km/h (1 Bft) W-SW 247 0 min 0,0 UV-I 0 W/m 2,8 C 3,8 C 4,8 km/h (1 Bft)
05.02.2023 05:42 3,8 C 3,3 C 93 % 1037,9 hPa 0,0 l/m 1,6 km/h (1 Bft) W-SW 247 0 min 0,0 UV-I 0 W/m 2,8 C 3,8 C 4,8 km/h (1 Bft)
05.02.2023 05:43 3,8 C 3,3 C 93 % 1038,0 hPa 0,0 l/m 1,6 km/h (1 Bft) W-SW 247 0 min 0,0 UV-I 0 W/m 2,8 C 3,8 C 6,4 km/h (2 Bft)
05.02.2023 05:44 3,8 C 3,3 C 93 % 1037,9 hPa 0,0 l/m 3,2 km/h (1 Bft) W-SW 247 0 min 0,0 UV-I 0 W/m 2,8 C 3,8 C 4,8 km/h (1 Bft)
05.02.2023 05:45 3,8 C 3,3 C 93 % 1038,0 hPa 0,0 l/m 6,4 km/h (2 Bft) W-SW 247 0 min 0,0 UV-I 0 W/m 2,8 C 3,8 C 8,0 km/h (2 Bft)
05.02.2023 05:46 3,8 C 3,3 C 93 % 1038,0 hPa 0,0 l/m 4,8 km/h (1 Bft) W-SW 247 0 min 0,0 UV-I 0 W/m 2,8 C 3,8 C 6,4 km/h (2 Bft)
05.02.2023 05:47 3,8 C 3,3 C 93 % 1038,0 hPa 0,0 l/m 3,2 km/h (1 Bft) W-SW 247 0 min 0,0 UV-I 0 W/m 2,8 C 3,8 C 6,4 km/h (2 Bft)
05.02.2023 05:48 3,8 C 3,3 C 93 % 1038,0 hPa 0,0 l/m 4,8 km/h (1 Bft) W-SW 247 0 min 0,0 UV-I 0 W/m 2,8 C 3,8 C 6,4 km/h (2 Bft)
05.02.2023 05:49 3,8 C 3,3 C 93 % 1038,0 hPa 0,0 l/m 3,2 km/h (1 Bft) W-SW 247 0 min 0,0 UV-I 0 W/m 2,8 C 3,8 C 6,4 km/h (2 Bft)
05.02.2023 05:50 3,8 C 3,3 C 93 % 1038,1 hPa 0,0 l/m 3,2 km/h (1 Bft) W-SW 247 0 min 0,0 UV-I 0 W/m 2,8 C 3,8 C 6,4 km/h (2 Bft)
05.02.2023 05:51 3,8 C 3,3 C 93 % 1038,1 hPa 0,0 l/m 4,8 km/h (1 Bft) SW 225 0 min 0,0 UV-I 0 W/m 2,8 C 3,8 C 6,4 km/h (2 Bft)
05.02.2023 05:52 3,8 C 3,3 C 93 % 1038,2 hPa 0,0 l/m 3,2 km/h (1 Bft) SW 225 0 min 0,0 UV-I 0 W/m 2,8 C 3,8 C 4,8 km/h (1 Bft)
05.02.2023 05:53 3,8 C 3,3 C 93 % 1038,2 hPa 0,0 l/m 4,8 km/h (1 Bft) W-SW 247 0 min 0,0 UV-I 0 W/m 2,8 C 3,8 C 6,4 km/h (2 Bft)
05.02.2023 05:54 3,8 C 3,3 C 93 % 1038,1 hPa 0,0 l/m 3,2 km/h (1 Bft) W-SW 247 0 min 0,0 UV-I 0 W/m 2,8 C 3,8 C 4,8 km/h (1 Bft)
05.02.2023 05:55 3,8 C 3,3 C 93 % 1038,1 hPa 0,0 l/m 1,6 km/h (1 Bft) W-SW 247 0 min 0,0 UV-I 0 W/m 2,8 C 3,8 C 3,2 km/h (1 Bft)
05.02.2023 05:56 3,8 C 3,3 C 93 % 1038,1 hPa 0,2 l/m 3,2 km/h (1 Bft) W-SW 247 0 min 0,0 UV-I 0 W/m 2,8 C 3,8 C 6,4 km/h (2 Bft)
05.02.2023 05:57 3,8 C 3,3 C 93 % 1038,2 hPa 0,0 l/m 0,0 km/h (0 Bft) W-SW 247 0 min 0,0 UV-I 0 W/m 2,8 C 3,8 C 3,2 km/h (1 Bft)
05.02.2023 05:58 3,8 C 3,3 C 93 % 1038,2 hPa 0,0 l/m 4,8 km/h (1 Bft) W-SW 247 0 min 0,0 UV-I 0 W/m 2,8 C 3,8 C 4,8 km/h (1 Bft)
05.02.2023 05:59 3,8 C 3,3 C 93 % 1038,2 hPa 0,0 l/m 6,4 km/h (2 Bft) W 270 0 min 0,0 UV-I 0 W/m 2,8 C 3,8 C 12,9 km/h (3 Bft)
05.02.2023 06:00 3,8 C 3,3 C 93 % 1038,1 hPa 0,0 l/m 4,8 km/h (1 Bft) W-SW 247 0 min 0,0 UV-I 0 W/m 2,8 C 3,8 C 6,4 km/h (2 Bft)
05.02.2023 06:01 3,8 C 3,3 C 93 % 1038,0 hPa 0,0 l/m 1,6 km/h (1 Bft) W-SW 247 0 min 0,0 UV-I 0 W/m 2,8 C 3,8 C 4,8 km/h (1 Bft)
05.02.2023 06:02 3,8 C 3,3 C 93 % 1038,0 hPa 0,0 l/m 3,2 km/h (1 Bft) W-SW 247 0 min 0,0 UV-I 0 W/m 2,8 C 3,8 C 6,4 km/h (2 Bft)
05.02.2023 06:03 3,8 C 3,3 C 93 % 1038,0 hPa 0,2 l/m 1,6 km/h (1 Bft) W-SW 247 0 min 0,0 UV-I 0 W/m 2,8 C 3,8 C 3,2 km/h (1 Bft)
05.02.2023 06:04 3,8 C 3,3 C 93 % 1038,0 hPa 0,0 l/m 1,6 km/h (1 Bft) W-SW 247 0 min 0,0 UV-I 0 W/m 2,8 C 3,8 C 3,2 km/h (1 Bft)
05.02.2023 06:05 3,8 C 3,3 C 93 % 1038,1 hPa 0,0 l/m 3,2 km/h (1 Bft) W-SW 247 0 min 0,0 UV-I 0 W/m 2,8 C 3,8 C 6,4 km/h (2 Bft)
05.02.2023 06:06 3,8 C 3,3 C 93 % 1038,1 hPa 0,0 l/m 6,4 km/h (2 Bft) W 270 0 min 0,0 UV-I 0 W/m 2,8 C 3,8 C 11,3 km/h (2 Bft)
05.02.2023 06:07 3,8 C 3,3 C 93 % 1038,1 hPa 0,0 l/m 4,8 km/h (1 Bft) W-SW 247 0 min 0,0 UV-I 0 W/m 2,8 C 3,8 C 11,3 km/h (2 Bft)
05.02.2023 06:08 3,8 C 3,3 C 93 % 1038,1 hPa 0,0 l/m 1,6 km/h (1 Bft) W-SW 247 0 min 0,0 UV-I 0 W/m 2,8 C 3,8 C 6,4 km/h (2 Bft)
05.02.2023 06:09 3,8 C 3,3 C 93 % 1038,2 hPa 0,0 l/m 3,2 km/h (1 Bft) W-SW 247 0 min 0,0 UV-I 0 W/m 2,8 C 3,8 C 4,8 km/h (1 Bft)
05.02.2023 06:10 3,8 C 3,3 C 93 % 1038,1 hPa 0,0 l/m 1,6 km/h (1 Bft) W-SW 247 0 min 0,0 UV-I 0 W/m 2,8 C 3,8 C 3,2 km/h (1 Bft)
05.02.2023 06:11 3,8 C 3,3 C 93 % 1038,2 hPa 0,0 l/m 4,8 km/h (1 Bft) W-SW 247 0 min 0,0 UV-I 0 W/m 2,8 C 3,8 C 6,4 km/h (2 Bft)
05.02.2023 06:12 3,8 C 3,3 C 93 % 1038,2 hPa 0,0 l/m 3,2 km/h (1 Bft) W-SW 247 0 min 0,0 UV-I 0 W/m 2,8 C 3,8 C 3,2 km/h (1 Bft)
05.02.2023 06:13 3,8 C 3,3 C 93 % 1038,1 hPa 0,0 l/m 3,2 km/h (1 Bft) SW 225 0 min 0,0 UV-I 0 W/m 2,8 C 3,8 C 6,4 km/h (2 Bft)
05.02.2023 06:14 3,7 C 3,3 C 93 % 1038,0 hPa 0,0 l/m 1,6 km/h (1 Bft) SW 225 0 min 0,0 UV-I 0 W/m 2,7 C 3,7 C 4,8 km/h (1 Bft)
05.02.2023 06:15 3,7 C 3,3 C 93 % 1038,0 hPa 0,0 l/m 1,6 km/h (1 Bft) SW 225 0 min 0,0 UV-I 0 W/m 2,7 C 3,7 C 4,8 km/h (1 Bft)
05.02.2023 06:16 3,7 C 3,3 C 93 % 1038,1 hPa 0,0 l/m 3,2 km/h (1 Bft) SW 225 0 min 0,0 UV-I 0 W/m 2,7 C 3,7 C 4,8 km/h (1 Bft)
05.02.2023 06:17 3,7 C 3,3 C 93 % 1038,0 hPa 0,0 l/m 3,2 km/h (1 Bft) SW 225 0 min 0,0 UV-I 0 W/m 2,7 C 3,7 C 4,8 km/h (1 Bft)
05.02.2023 06:18 3,7 C 3,3 C 93 % 1038,0 hPa 0,0 l/m 1,6 km/h (1 Bft) SW 225 0 min 0,0 UV-I 0 W/m 2,7 C 3,7 C 3,2 km/h (1 Bft)
05.02.2023 06:19 3,7 C 3,3 C 93 % 1038,0 hPa 0,0 l/m 0,0 km/h (0 Bft) SW 225 0 min 0,0 UV-I 0 W/m 2,7 C 3,7 C 1,6 km/h (1 Bft)
05.02.2023 06:20 3,7 C 3,3 C 93 % 1038,1 hPa 0,0 l/m 0,0 km/h (0 Bft) SW 225 0 min 0,0 UV-I 0 W/m 2,7 C 3,7 C 4,8 km/h (1 Bft)
05.02.2023 06:21 3,7 C 3,3 C 93 % 1038,1 hPa 0,0 l/m 6,4 km/h (2 Bft) W-SW 247 0 min 0,0 UV-I 0 W/m 2,7 C 3,7 C 8,0 km/h (2 Bft)
05.02.2023 06:22 3,7 C 2,8 C 93 % 1038,1 hPa 0,0 l/m 3,2 km/h (1 Bft) W-SW 247 0 min 0,0 UV-I 0 W/m 2,7 C 3,7 C 4,8 km/h (1 Bft)
05.02.2023 06:23 3,7 C 2,8 C 93 % 1038,0 hPa 0,0 l/m 1,6 km/h (1 Bft) W-SW 247 0 min 0,0 UV-I 0 W/m 2,7 C 3,7 C 4,8 km/h (1 Bft)
05.02.2023 06:24 3,7 C 2,8 C 93 % 1038,0 hPa 0,0 l/m 3,2 km/h (1 Bft) W-SW 247 0 min 0,0 UV-I 0 W/m 2,7 C 3,7 C 6,4 km/h (2 Bft)
05.02.2023 06:25 3,7 C 2,8 C 93 % 1037,9 hPa 0,0 l/m 1,6 km/h (1 Bft) W-SW 247 0 min 0,0 UV-I 0 W/m 2,7 C 3,7 C 4,8 km/h (1 Bft)
05.02.2023 06:26 3,7 C 2,8 C 93 % 1037,9 hPa 0,0 l/m 4,8 km/h (1 Bft) W-SW 247 0 min 0,0 UV-I 0 W/m 2,7 C 3,7 C 8,0 km/h (2 Bft)
05.02.2023 06:27 3,7 C 2,8 C 93 % 1038,0 hPa 0,0 l/m 1,6 km/h (1 Bft) W-SW 247 0 min 0,0 UV-I 0 W/m 2,7 C 3,7 C 3,2 km/h (1 Bft)
05.02.2023 06:28 3,7 C 2,8 C 93 % 1038,0 hPa 0,0 l/m 3,2 km/h (1 Bft) W-SW 247 0 min 0,0 UV-I 0 W/m 2,7 C 3,7 C 8,0 km/h (2 Bft)
05.02.2023 06:29 3,7 C 2,8 C 93 % 1038,0 hPa 0,0 l/m 3,2 km/h (1 Bft) W 270 0 min 0,0 UV-I 0 W/m 2,7 C 3,7 C 8,0 km/h (2 Bft)
05.02.2023 06:30 3,7 C 2,8 C 93 % 1038,0 hPa 0,0 l/m 0,0 km/h (0 Bft) W 270 0 min 0,0 UV-I 0 W/m 2,7 C 3,7 C 1,6 km/h (1 Bft)
05.02.2023 06:31 3,7 C 2,8 C 93 % 1038,0 hPa 0,0 l/m 0,0 km/h (0 Bft) W 270 0 min 0,0 UV-I 0 W/m 2,7 C 3,7 C 1,6 km/h (1 Bft)
05.02.2023 06:32 3,7 C 2,8 C 93 % 1038,0 hPa 0,0 l/m 1,6 km/h (1 Bft) W 270 0 min 0,0 UV-I 0 W/m 2,7 C 3,7 C 1,6 km/h (1 Bft)
05.02.2023 06:33 3,7 C 2,8 C 93 % 1038,0 hPa 0,0 l/m 0,0 km/h (0 Bft) N 0 0 min 0,0 UV-I 0 W/m 2,7 C 3,7 C 0,0 km/h (0 Bft)
05.02.2023 06:34 3,7 C 2,8 C 93 % 1038,0 hPa 0,0 l/m 1,6 km/h (1 Bft) W 270 0 min 0,0 UV-I 0 W/m 2,7 C 3,7 C 3,2 km/h (1 Bft)
05.02.2023 06:35 3,7 C 2,8 C 93 % 1038,0 hPa 0,0 l/m 1,6 km/h (1 Bft) W 270 0 min 0,0 UV-I 0 W/m 2,7 C 3,7 C 4,8 km/h (1 Bft)
05.02.2023 06:36 3,7 C 2,8 C 93 % 1037,8 hPa 0,0 l/m 0,0 km/h (0 Bft) W 270 0 min 0,0 UV-I 0 W/m 2,7 C 3,7 C 1,6 km/h (1 Bft)
05.02.2023 06:37 3,7 C 2,8 C 93 % 1038,0 hPa 0,0 l/m 0,0 km/h (0 Bft) N 0 0 min 0,0 UV-I 0 W/m 2,7 C 3,7 C 0,0 km/h (0 Bft)
05.02.2023 06:38 3,7 C 2,8 C 93 % 1037,9 hPa 0,0 l/m 0,0 km/h (0 Bft) N 0 0 min 0,0 UV-I 0 W/m 2,7 C 3,7 C 0,0 km/h (0 Bft)
05.02.2023 06:39 3,7 C 2,8 C 93 % 1037,8 hPa 0,0 l/m 0,0 km/h (0 Bft) N 0 0 min 0,0 UV-I 0 W/m 2,7 C 3,7 C 0,0 km/h (0 Bft)
05.02.2023 06:40 3,7 C 2,8 C 93 % 1037,8 hPa 0,0 l/m 0,0 km/h (0 Bft) N 0 0 min 0,0 UV-I 0 W/m 2,7 C 3,7 C 0,0 km/h (0 Bft)
05.02.2023 06:41 3,7 C 2,8 C 93 % 1037,8 hPa 0,0 l/m 0,0 km/h (0 Bft) N 0 0 min 0,0 UV-I 0 W/m 2,7 C 3,7 C 0,0 km/h (0 Bft)
05.02.2023 06:42 3,7 C 2,8 C 93 % 1037,8 hPa 0,0 l/m 0,0 km/h (0 Bft) N 0 0 min 0,0 UV-I 0 W/m 2,7 C 3,7 C 0,0 km/h (0 Bft)
05.02.2023 06:43 3,7 C 2,8 C 93 % 1037,9 hPa 0,0 l/m 0,0 km/h (0 Bft) W 270 0 min 0,0 UV-I 0 W/m 2,7 C 3,7 C 1,6 km/h (1 Bft)
05.02.2023 06:44 3,7 C 2,8 C 93 % 1037,9 hPa 0,0 l/m 0,0 km/h (0 Bft) W 270 0 min 0,0 UV-I 0 W/m 2,7 C 3,7 C 1,6 km/h (1 Bft)
05.02.2023 06:45 3,7 C 2,8 C 93 % 1037,9 hPa 0,0 l/m 0,0 km/h (0 Bft) W 270 0 min 0,0 UV-I 0 W/m 2,7 C 3,7 C 1,6 km/h (1 Bft)
05.02.2023 06:46 3,7 C 2,8 C 93 % 1037,9 hPa 0,0 l/m 1,6 km/h (1 Bft) W 270 0 min 0,0 UV-I 0 W/m 2,7 C 3,7 C 3,2 km/h (1 Bft)
05.02.2023 06:47 3,7 C 2,8 C 93 % 1037,9 hPa 0,0 l/m 0,0 km/h (0 Bft) W 270 0 min 0,0 UV-I 0 W/m 2,7 C 3,7 C 1,6 km/h (1 Bft)
05.02.2023 06:48 3,7 C 3,3 C 93 % 1037,8 hPa 0,0 l/m 0,0 km/h (0 Bft) W 270 0 min 0,0 UV-I 0 W/m 2,7 C 3,7 C 1,6 km/h (1 Bft)
05.02.2023 06:49 3,7 C 3,3 C 93 % 1037,8 hPa 0,0 l/m 0,0 km/h (0 Bft) N 0 0 min 0,0 UV-I 0 W/m 2,7 C 3,7 C 0,0 km/h (0 Bft)
05.02.2023 06:50 3,7 C 3,3 C 93 % 1037,8 hPa 0,0 l/m 3,2 km/h (1 Bft) W 270 0 min 0,0 UV-I 0 W/m 2,7 C 3,7 C 4,8 km/h (1 Bft)
05.02.2023 06:51 3,7 C 3,3 C 93 % 1037,8 hPa 0,0 l/m 1,6 km/h (1 Bft) W 270 0 min 0,0 UV-I 0 W/m 2,7 C 3,7 C 3,2 km/h (1 Bft)
05.02.2023 06:52 3,7 C 3,3 C 93 % 1037,8 hPa 0,0 l/m 0,0 km/h (0 Bft) W 270 0 min 0,0 UV-I 0 W/m 2,7 C 3,7 C 1,6 km/h (1 Bft)
05.02.2023 06:53 3,7 C 3,3 C 93 % 1037,9 hPa 0,0 l/m 1,6 km/h (1 Bft) W 270 0 min 0,0 UV-I 0 W/m 2,7 C 3,7 C 4,8 km/h (1 Bft)
05.02.2023 06:54 3,7 C 3,3 C 93 % 1037,9 hPa 0,0 l/m 3,2 km/h (1 Bft) W 270 0 min 0,0 UV-I 0 W/m 2,7 C 3,7 C 4,8 km/h (1 Bft)
05.02.2023 06:55 3,7 C 3,3 C 93 % 1037,9 hPa 0,0 l/m 3,2 km/h (1 Bft) W 270 0 min 0,0 UV-I 0 W/m 2,7 C 3,7 C 12,9 km/h (3 Bft)
05.02.2023 06:56 3,7 C 3,3 C 93 % 1038,0 hPa 0,0 l/m 6,4 km/h (2 Bft) W 270 0 min 0,0 UV-I 0 W/m 2,7 C 3,7 C 9,7 km/h (2 Bft)
05.02.2023 06:57 3,7 C 3,3 C 93 % 1038,0 hPa 0,0 l/m 6,4 km/h (2 Bft) W 270 0 min 0,0 UV-I 0 W/m 2,7 C 3,7 C 11,3 km/h (2 Bft)
05.02.2023 06:58 3,7 C 3,3 C 93 % 1037,9 hPa 0,0 l/m 11,3 km/h (2 Bft) W 270 0 min 0,0 UV-I 0 W/m 2,7 C -0,3 C 20,9 km/h (4 Bft)
05.02.2023 06:59 3,8 C 3,3 C 93 % 1038,0 hPa 0,0 l/m 16,1 km/h (3 Bft) W-SW 247 0 min 0,0 UV-I 0 W/m 2,8 C -2,9 C 22,5 km/h (4 Bft)
05.02.2023 07:00 3,8 C 3,3 C 93 % 1038,0 hPa 0,0 l/m 11,3 km/h (2 Bft) W-SW 247 0 min 0,0 UV-I 0 W/m 2,8 C -0,2 C 22,5 km/h (4 Bft)
05.02.2023 07:01 3,8 C 3,3 C 93 % 1038,0 hPa 0,0 l/m 8,0 km/h (2 Bft) W-SW 247 0 min 0,0 UV-I 0 W/m 2,8 C 2,3 C 16,1 km/h (3 Bft)
05.02.2023 07:02 3,8 C 3,3 C 93 % 1037,9 hPa 0,0 l/m 11,3 km/h (2 Bft) W 270 0 min 0,0 UV-I 0 W/m 2,8 C -0,2 C 17,7 km/h (3 Bft)
05.02.2023 07:03 3,8 C 3,3 C 93 % 1037,9 hPa 0,0 l/m 9,7 km/h (2 Bft) W 270 0 min 0,0 UV-I 0 W/m 2,8 C 1,0 C 11,3 km/h (2 Bft)
05.02.2023 07:04 3,8 C 3,3 C 93 % 1037,9 hPa 0,0 l/m 3,2 km/h (1 Bft) W 270 0 min 0,0 UV-I 0 W/m 2,8 C 3,8 C 9,7 km/h (2 Bft)
05.02.2023 07:05 3,8 C 3,3 C 93 % 1037,8 hPa 0,0 l/m 1,6 km/h (1 Bft) W 270 0 min 0,0 UV-I 0 W/m 2,8 C 3,8 C 9,7 km/h (2 Bft)
05.02.2023 07:06 3,8 C 3,3 C 93 % 1037,9 hPa 0,0 l/m 8,0 km/h (2 Bft) W-NW 292 0 min 0,0 UV-I 0 W/m 2,8 C 2,3 C 11,3 km/h (2 Bft)
05.02.2023 07:07 3,8 C 3,3 C 93 % 1037,9 hPa 0,0 l/m 3,2 km/h (1 Bft) NW 315 0 min 0,0 UV-I 0 W/m 2,8 C 3,8 C 11,3 km/h (2 Bft)
05.02.2023 07:08 3,8 C 3,3 C 93 % 1038,0 hPa 0,0 l/m 1,6 km/h (1 Bft) NW 315 0 min 0,0 UV-I 0 W/m 2,8 C 3,8 C 3,2 km/h (1 Bft)
05.02.2023 07:09 3,8 C 3,3 C 92 % 1037,9 hPa 0,0 l/m 0,0 km/h (0 Bft) NW 315 0 min 0,0 UV-I 0 W/m 2,6 C 3,8 C 1,6 km/h (1 Bft)
05.02.2023 07:10 3,8 C 3,3 C 92 % 1037,9 hPa 0,0 l/m 0,0 km/h (0 Bft) NW 315 0 min 0,0 UV-I 0 W/m 2,6 C 3,8 C 1,6 km/h (1 Bft)
05.02.2023 07:11 3,8 C 3,3 C 92 % 1037,8 hPa 0,0 l/m 0,0 km/h (0 Bft) N 0 0 min 0,0 UV-I 0 W/m 2,6 C 3,8 C 0,0 km/h (0 Bft)
05.02.2023 07:12 3,8 C 3,3 C 92 % 1037,9 hPa 0,0 l/m 1,6 km/h (1 Bft) W 270 0 min 0,0 UV-I 0 W/m 2,6 C 3,8 C 4,8 km/h (1 Bft)
05.02.2023 07:13 3,8 C 3,3 C 92 % 1037,9 hPa 0,0 l/m 3,2 km/h (1 Bft) W-SW 247 0 min 0,0 UV-I 0 W/m 2,6 C 3,8 C 4,8 km/h (1 Bft)
05.02.2023 07:14 3,8 C 3,3 C 92 % 1037,8 hPa 0,0 l/m 3,2 km/h (1 Bft) W-SW 247 0 min 0,0 UV-I 0 W/m 2,6 C 3,8 C 4,8 km/h (1 Bft)
05.02.2023 07:15 3,8 C 3,3 C 92 % 1037,8 hPa 0,0 l/m 4,8 km/h (1 Bft) W 270 0 min 0,0 UV-I 0 W/m 2,6 C 3,8 C 9,7 km/h (2 Bft)
05.02.2023 07:16 3,8 C 3,3 C 92 % 1037,8 hPa 0,0 l/m 3,2 km/h (1 Bft) W 270 0 min 0,0 UV-I 0 W/m 2,6 C 3,8 C 6,4 km/h (2 Bft)
05.02.2023 07:17 3,8 C 3,3 C 92 % 1037,9 hPa 0,0 l/m 1,6 km/h (1 Bft) W 270 0 min 0,0 UV-I 0 W/m 2,6 C 3,8 C 4,8 km/h (1 Bft)
05.02.2023 07:18 3,8 C 3,3 C 92 % 1037,8 hPa 0,0 l/m 3,2 km/h (1 Bft) W 270 0 min 0,0 UV-I 0 W/m 2,6 C 3,8 C 6,4 km/h (2 Bft)
05.02.2023 07:19 3,8 C 3,3 C 92 % 1037,9 hPa 0,0 l/m 1,6 km/h (1 Bft) W 270 0 min 0,0 UV-I 0 W/m 2,6 C 3,8 C 3,2 km/h (1 Bft)
05.02.2023 07:20 3,8 C 3,3 C 92 % 1037,8 hPa 0,0 l/m 3,2 km/h (1 Bft) W 270 0 min 0,0 UV-I 0 W/m 2,6 C 3,8 C 6,4 km/h (2 Bft)
05.02.2023 07:21 3,8 C 3,3 C 92 % 1037,9 hPa 0,0 l/m 0,0 km/h (0 Bft) W-NW 292 0 min 0,0 UV-I 0 W/m 2,6 C 3,8 C 1,6 km/h (1 Bft)
05.02.2023 07:22 3,8 C 3,3 C 92 % 1037,8 hPa 0,0 l/m 1,6 km/h (1 Bft) W-NW 292 0 min 0,0 UV-I 0 W/m 2,6 C 3,8 C 4,8 km/h (1 Bft)
05.02.2023 07:23 3,8 C 3,3 C 92 % 1037,9 hPa 0,0 l/m 3,2 km/h (1 Bft) W-NW 292 0 min 0,0 UV-I 0 W/m 2,6 C 3,8 C 4,8 km/h (1 Bft)
05.02.2023 07:24 3,8 C 3,3 C 92 % 1037,8 hPa 0,0 l/m 8,0 km/h (2 Bft) W 270 0 min 0,0 UV-I 0 W/m 2,6 C 2,3 C 14,5 km/h (3 Bft)
05.02.2023 07:25 3,8 C 3,3 C 92 % 1037,9 hPa 0,0 l/m 4,8 km/h (1 Bft) W-SW 247 0 min 0,0 UV-I 0 W/m 2,6 C 3,8 C 9,7 km/h (2 Bft)
05.02.2023 07:26 3,8 C 3,3 C 92 % 1037,8 hPa 0,0 l/m 4,8 km/h (1 Bft) SW 225 0 min 0,0 UV-I 0 W/m 2,6 C 3,8 C 6,4 km/h (2 Bft)
05.02.2023 07:27 3,8 C 3,3 C 92 % 1037,7 hPa 0,0 l/m 3,2 km/h (1 Bft) W 270 0 min 0,0 UV-I 0 W/m 2,6 C 3,8 C 9,7 km/h (2 Bft)
05.02.2023 07:28 3,8 C 3,3 C 92 % 1037,7 hPa 0,0 l/m 4,8 km/h (1 Bft) SW 225 0 min 0,0 UV-I 0 W/m 2,6 C 3,8 C 9,7 km/h (2 Bft)
05.02.2023 07:29 3,8 C 3,3 C 92 % 1037,7 hPa 0,0 l/m 4,8 km/h (1 Bft) W 270 0 min 0,0 UV-I 0 W/m 2,6 C 3,8 C 12,9 km/h (3 Bft)
05.02.2023 07:30 3,8 C 3,3 C 92 % 1037,7 hPa 0,0 l/m 0,0 km/h (0 Bft) W 270 0 min 0,0 UV-I 0 W/m 2,6 C 3,8 C 3,2 km/h (1 Bft)
05.02.2023 07:31 3,8 C 3,3 C 92 % 1037,8 hPa 0,0 l/m 8,0 km/h (2 Bft) W 270 0 min 0,0 UV-I 0 W/m 2,6 C 2,3 C 12,9 km/h (3 Bft)
05.02.2023 07:32 3,8 C 3,3 C 92 % 1037,7 hPa 0,0 l/m 11,3 km/h (2 Bft) W-SW 247 0 min 0,0 UV-I 0 W/m 2,6 C -0,2 C 19,3 km/h (3 Bft)
05.02.2023 07:33 3,8 C 3,3 C 92 % 1037,7 hPa 0,0 l/m 8,0 km/h (2 Bft) W 270 0 min 0,0 UV-I 0 W/m 2,6 C 2,3 C 16,1 km/h (3 Bft)
05.02.2023 07:34 3,8 C 3,3 C 92 % 1037,7 hPa 0,0 l/m 6,4 km/h (2 Bft) W-SW 247 0 min 0,0 UV-I 0 W/m 2,6 C 3,8 C 12,9 km/h (3 Bft)
05.02.2023 07:35 3,8 C 3,3 C 92 % 1037,7 hPa 0,0 l/m 9,7 km/h (2 Bft) W-SW 247 0 min 0,0 UV-I 0 W/m 2,6 C 1,0 C 14,5 km/h (3 Bft)
05.02.2023 07:36 3,7 C 3,3 C 92 % 1037,7 hPa 0,0 l/m 11,3 km/h (2 Bft) W 270 0 min 0,0 UV-I 0 W/m 2,5 C -0,3 C 17,7 km/h (3 Bft)
05.02.2023 07:37 3,8 C 3,3 C 92 % 1037,6 hPa 0,0 l/m 12,9 km/h (3 Bft) W 270 0 min 0,0 UV-I 0 W/m 2,6 C -1,2 C 20,9 km/h (4 Bft)
05.02.2023 07:38 3,8 C 3,3 C 92 % 1037,6 hPa 0,0 l/m 9,7 km/h (2 Bft) W-SW 247 0 min 0,0 UV-I 0 W/m 2,6 C 1,0 C 14,5 km/h (3 Bft)
05.02.2023 07:39 3,8 C 3,3 C 92 % 1037,6 hPa 0,0 l/m 9,7 km/h (2 Bft) W-SW 247 0 min 0,0 UV-I 0 W/m 2,6 C 1,0 C 17,7 km/h (3 Bft)
05.02.2023 07:40 3,7 C 3,3 C 92 % 1037,7 hPa 0,0 l/m 11,3 km/h (2 Bft) W 270 0 min 0,0 UV-I 0 W/m 2,5 C -0,3 C 14,5 km/h (3 Bft)
05.02.2023 07:41 3,8 C 3,3 C 92 % 1037,7 hPa 0,0 l/m 8,0 km/h (2 Bft) W 270 0 min 0,0 UV-I 0 W/m 2,6 C 2,3 C 14,5 km/h (3 Bft)
05.02.2023 07:42 3,8 C 3,3 C 92 % 1037,8 hPa 0,0 l/m 9,7 km/h (2 Bft) W 270 0 min 0,0 UV-I 0 W/m 2,6 C 1,0 C 16,1 km/h (3 Bft)
05.02.2023 07:43 3,7 C 3,3 C 92 % 1037,7 hPa 0,0 l/m 8,0 km/h (2 Bft) W-SW 247 0 min 0,0 UV-I 0 W/m 2,5 C 2,2 C 14,5 km/h (3 Bft)
05.02.2023 07:44 3,8 C 3,3 C 92 % 1037,7 hPa 0,0 l/m 11,3 km/h (2 Bft) W-SW 247 0 min 0,0 UV-I 0 W/m 2,6 C -0,2 C 17,7 km/h (3 Bft)
05.02.2023 07:45 3,7 C 3,3 C 92 % 1037,6 hPa 0,0 l/m 9,7 km/h (2 Bft) W-SW 247 0 min 0,0 UV-I 0 W/m 2,5 C 0,9 C 14,5 km/h (3 Bft)
05.02.2023 07:46 3,7 C 3,3 C 92 % 1037,6 hPa 0,0 l/m 8,0 km/h (2 Bft) W 270 0 min 0,0 UV-I 0 W/m 2,5 C 2,2 C 14,5 km/h (3 Bft)
05.02.2023 07:47 3,7 C 3,3 C 92 % 1037,6 hPa 0,0 l/m 9,7 km/h (2 Bft) W 270 0 min 0,0 UV-I 0 W/m 2,5 C 0,9 C 14,5 km/h (3 Bft)
05.02.2023 07:48 3,7 C 3,3 C 92 % 1037,6 hPa 0,0 l/m 11,3 km/h (2 Bft) W 270 0 min 0,0 UV-I 0 W/m 2,5 C -0,3 C 17,7 km/h (3 Bft)
05.02.2023 07:49 3,7 C 2,8 C 92 % 1037,7 hPa 0,0 l/m 8,0 km/h (2 Bft) W 270 0 min 0,0 UV-I 0 W/m 2,5 C 2,2 C 12,9 km/h (3 Bft)
05.02.2023 07:50 3,7 C 3,3 C 92 % 1037,7 hPa 0,0 l/m 12,9 km/h (3 Bft) W 270 0 min 0,0 UV-I 0 W/m 2,5 C -1,3 C 20,9 km/h (4 Bft)
05.02.2023 07:51 3,7 C 3,3 C 92 % 1037,8 hPa 0,0 l/m 6,4 km/h (2 Bft) W-SW 247 0 min 0,0 UV-I 0 W/m 2,5 C 3,7 C 11,3 km/h (2 Bft)
05.02.2023 07:52 3,7 C 3,3 C 92 % 1037,7 hPa 0,0 l/m 11,3 km/h (2 Bft) W 270 0 min 0,0 UV-I 0 W/m 2,5 C -0,3 C 20,9 km/h (4 Bft)
05.02.2023 07:53 3,7 C 3,3 C 92 % 1037,7 hPa 0,0 l/m 8,0 km/h (2 Bft) W-SW 247 0 min 0,0 UV-I 0 W/m 2,5 C 2,2 C 11,3 km/h (2 Bft)
05.02.2023 07:54 3,7 C 3,3 C 92 % 1037,7 hPa 0,0 l/m 8,0 km/h (2 Bft) W-SW 247 0 min 0,0 UV-I 0 W/m 2,5 C 2,2 C 11,3 km/h (2 Bft)
05.02.2023 07:55 3,7 C 3,3 C 92 % 1037,8 hPa 0,0 l/m 9,7 km/h (2 Bft) W-SW 247 0 min 0,0 UV-I 0 W/m 2,5 C 0,9 C 16,1 km/h (3 Bft)
05.02.2023 07:56 3,7 C 3,3 C 92 % 1037,7 hPa 0,0 l/m 8,0 km/h (2 Bft) W 270 0 min 0,0 UV-I 0 W/m 2,5 C 2,2 C 12,9 km/h (3 Bft)
05.02.2023 07:57 3,7 C 3,3 C 92 % 1037,8 hPa 0,0 l/m 9,7 km/h (2 Bft) W 270 0 min 0,0 UV-I 0 W/m 2,5 C 0,9 C 14,5 km/h (3 Bft)
05.02.2023 07:58 3,7 C 3,3 C 92 % 1037,7 hPa 0,0 l/m 6,4 km/h (2 Bft) W-SW 247 0 min 0,0 UV-I 0 W/m 2,5 C 3,7 C 9,7 km/h (2 Bft)
05.02.2023 07:59 3,7 C 3,3 C 92 % 1037,8 hPa 0,0 l/m 8,0 km/h (2 Bft) W 270 0 min 0,0 UV-I 0 W/m 2,5 C 2,2 C 14,5 km/h (3 Bft)
05.02.2023 08:00 3,7 C 3,3 C 92 % 1037,7 hPa 0,0 l/m 11,3 km/h (2 Bft) W 270 0 min 0,0 UV-I 0 W/m 2,5 C -0,3 C 14,5 km/h (3 Bft)
05.02.2023 08:01 3,7 C 3,3 C 92 % 1037,7 hPa 0,0 l/m 8,0 km/h (2 Bft) W-SW 247 0 min 0,0 UV-I 0 W/m 2,5 C 2,2 C 12,9 km/h (3 Bft)
05.02.2023 08:02 3,7 C 3,3 C 92 % 1037,7 hPa 0,0 l/m 9,7 km/h (2 Bft) W-SW 247 0 min 0,0 UV-I 0 W/m 2,5 C 0,9 C 12,9 km/h (3 Bft)
05.02.2023 08:03 3,7 C 3,3 C 92 % 1037,7 hPa 0,0 l/m 8,0 km/h (2 Bft) W 270 0 min 0,0 UV-I 0 W/m 2,5 C 2,2 C 11,3 km/h (2 Bft)
05.02.2023 08:04 3,7 C 3,3 C 92 % 1037,7 hPa 0,0 l/m 9,7 km/h (2 Bft) W-SW 247 0 min 0,0 UV-I 0 W/m 2,5 C 0,9 C 14,5 km/h (3 Bft)
05.02.2023 08:05 3,7 C 3,3 C 92 % 1037,7 hPa 0,0 l/m 8,0 km/h (2 Bft) W 270 0 min 0,0 UV-I 0 W/m 2,5 C 2,2 C 12,9 km/h (3 Bft)
05.02.2023 08:06 3,7 C 3,3 C 92 % 1037,8 hPa 0,0 l/m 11,3 km/h (2 Bft) W 270 0 min 0,0 UV-I 0 W/m 2,5 C -0,3 C 16,1 km/h (3 Bft)
05.02.2023 08:07 3,7 C 3,3 C 92 % 1037,7 hPa 0,0 l/m 11,3 km/h (2 Bft) W 270 0 min 0,0 UV-I 0 W/m 2,5 C -0,3 C 16,1 km/h (3 Bft)
05.02.2023 08:08 3,7 C 3,3 C 92 % 1037,8 hPa 0,0 l/m 6,4 km/h (2 Bft) W-SW 247 0 min 0,0 UV-I 0 W/m 2,5 C 3,7 C 11,3 km/h (2 Bft)
05.02.2023 08:09 3,7 C 3,3 C 92 % 1037,8 hPa 0,0 l/m 8,0 km/h (2 Bft) W 270 0 min 0,0 UV-I 0 W/m 2,5 C 2,2 C 12,9 km/h (3 Bft)
05.02.2023 08:10 3,7 C 3,3 C 92 % 1037,7 hPa 0,0 l/m 8,0 km/h (2 Bft) W 270 0 min 0,0 UV-I 0 W/m 2,5 C 2,2 C 11,3 km/h (2 Bft)
05.02.2023 08:11 3,7 C 3,3 C 92 % 1037,7 hPa 0,0 l/m 6,4 km/h (2 Bft) W-SW 247 0 min 0,0 UV-I 0 W/m 2,5 C 3,7 C 9,7 km/h (2 Bft)
05.02.2023 08:12 3,7 C 3,3 C 92 % 1037,7 hPa 0,0 l/m 4,8 km/h (1 Bft) W-SW 247 0 min 0,0 UV-I 0 W/m 2,5 C 3,7 C 6,4 km/h (2 Bft)
05.02.2023 08:13 3,7 C 3,3 C 92 % 1037,6 hPa 0,0 l/m 6,4 km/h (2 Bft) W-SW 247 0 min 0,0 UV-I 5 W/m 2,5 C 3,7 C 9,7 km/h (2 Bft)
05.02.2023 08:14 3,7 C 3,3 C 92 % 1037,6 hPa 0,0 l/m 8,0 km/h (2 Bft) W-SW 247 0 min 0,0 UV-I 5 W/m 2,5 C 2,2 C 16,1 km/h (3 Bft)
05.02.2023 08:15 3,7 C 3,3 C 92 % 1037,6 hPa 0,0 l/m 8,0 km/h (2 Bft) W-SW 247 0 min 0,0 UV-I 7 W/m 2,5 C 2,2 C 12,9 km/h (3 Bft)
05.02.2023 08:16 3,7 C 3,3 C 92 % 1037,5 hPa 0,0 l/m 6,4 km/h (2 Bft) W-SW 247 0 min 0,0 UV-I 7 W/m 2,5 C 3,7 C 9,7 km/h (2 Bft)
05.02.2023 08:17 3,7 C 3,3 C 92 % 1037,6 hPa 0,0 l/m 6,4 km/h (2 Bft) W-SW 247 0 min 0,0 UV-I 9 W/m 2,5 C 3,7 C 8,0 km/h (2 Bft)
05.02.2023 08:18 3,7 C 3,3 C 92 % 1037,6 hPa 0,0 l/m 9,7 km/h (2 Bft) SW 225 0 min 0,0 UV-I 11 W/m 2,5 C 0,9 C 16,1 km/h (3 Bft)
05.02.2023 08:19 3,6 C 3,3 C 92 % 1037,6 hPa 0,0 l/m 8,0 km/h (2 Bft) W 270 0 min 0,0 UV-I 11 W/m 2,4 C 2,1 C 12,9 km/h (3 Bft)
05.02.2023 08:20 3,7 C 3,3 C 92 % 1037,6 hPa 0,0 l/m 9,7 km/h (2 Bft) W 270 0 min 0,0 UV-I 11 W/m 2,5 C 0,9 C 11,3 km/h (2 Bft)
05.02.2023 08:21 3,6 C 3,3 C 92 % 1037,6 hPa 0,0 l/m 4,8 km/h (1 Bft) W 270 0 min 0,0 UV-I 9 W/m 2,4 C 3,6 C 9,7 km/h (2 Bft)
05.02.2023 08:22 3,7 C 3,3 C 92 % 1037,6 hPa 0,0 l/m 4,8 km/h (1 Bft) W-SW 247 0 min 0,0 UV-I 9 W/m 2,5 C 3,7 C 9,7 km/h (2 Bft)
05.02.2023 08:23 3,6 C 3,3 C 92 % 1037,5 hPa 0,0 l/m 4,8 km/h (1 Bft) W-SW 247 0 min 0,0 UV-I 9 W/m 2,4 C 3,6 C 11,3 km/h (2 Bft)
05.02.2023 08:24 3,7 C 3,3 C 92 % 1037,6 hPa 0,0 l/m 8,0 km/h (2 Bft) W-SW 247 0 min 0,0 UV-I 11 W/m 2,5 C 2,2 C 16,1 km/h (3 Bft)
05.02.2023 08:25 3,6 C 3,3 C 92 % 1037,6 hPa 0,0 l/m 4,8 km/h (1 Bft) W-SW 247 0 min 0,0 UV-I 11 W/m 2,4 C 3,6 C 8,0 km/h (2 Bft)
05.02.2023 08:26 3,7 C 3,3 C 92 % 1037,6 hPa 0,0 l/m 8,0 km/h (2 Bft) W-SW 247 0 min 0,0 UV-I 11 W/m 2,5 C 2,2 C 11,3 km/h (2 Bft)
05.02.2023 08:27 3,6 C 3,3 C 92 % 1037,6 hPa 0,0 l/m 3,2 km/h (1 Bft) W 270 0 min 0,0 UV-I 12 W/m 2,4 C 3,6 C 6,4 km/h (2 Bft)
05.02.2023 08:28 3,6 C 3,3 C 92 % 1037,7 hPa 0,0 l/m 4,8 km/h (1 Bft) W-SW 247 0 min 0,0 UV-I 12 W/m 2,4 C 3,6 C 6,4 km/h (2 Bft)
05.02.2023 08:29 3,7 C 3,3 C 92 % 1037,5 hPa 0,0 l/m 4,8 km/h (1 Bft) W-SW 247 0 min 0,0 UV-I 12 W/m 2,5 C 3,7 C 6,4 km/h (2 Bft)
05.02.2023 08:30 3,7 C 3,3 C 92 % 1037,5 hPa 0,0 l/m 9,7 km/h (2 Bft) W-SW 247 0 min 0,0 UV-I 14 W/m 2,5 C 0,9 C 16,1 km/h (3 Bft)
05.02.2023 08:31 3,6 C 3,3 C 92 % 1037,6 hPa 0,0 l/m 6,4 km/h (2 Bft) W-SW 247 0 min 0,0 UV-I 14 W/m 2,4 C 3,6 C 11,3 km/h (2 Bft)
05.02.2023 08:32 3,6 C 3,3 C 92 % 1037,6 hPa 0,0 l/m 4,8 km/h (1 Bft) W-SW 247 0 min 0,0 UV-I 14 W/m 2,4 C 3,6 C 8,0 km/h (2 Bft)
05.02.2023 08:33 3,7 C 3,3 C 92 % 1037,6 hPa 0,0 l/m 6,4 km/h (2 Bft) W-SW 247 0 min 0,0 UV-I 14 W/m 2,5 C 3,7 C 9,7 km/h (2 Bft)
05.02.2023 08:34 3,7 C 3,3 C 92 % 1037,6 hPa 0,0 l/m 4,8 km/h (1 Bft) S-SW 202 0 min 0,0 UV-I 14 W/m 2,5 C 3,7 C 9,7 km/h (2 Bft)
05.02.2023 08:35 3,7 C 3,3 C 92 % 1037,6 hPa 0,0 l/m 4,8 km/h (1 Bft) W-SW 247 0 min 0,0 UV-I 13 W/m 2,5 C 3,7 C 6,4 km/h (2 Bft)
05.02.2023 08:36 3,7 C 3,3 C 92 % 1037,7 hPa 0,0 l/m 3,2 km/h (1 Bft) W-SW 247 0 min 0,0 UV-I 12 W/m 2,5 C 3,7 C 6,4 km/h (2 Bft)
05.02.2023 08:37 3,7 C 3,3 C 92 % 1037,7 hPa 0,0 l/m 3,2 km/h (1 Bft) W-SW 247 0 min 0,0 UV-I 11 W/m 2,5 C 3,7 C 6,4 km/h (2 Bft)
05.02.2023 08:38 3,7 C 3,3 C 92 % 1037,7 hPa 0,0 l/m 4,8 km/h (1 Bft) W-SW 247 0 min 0,0 UV-I 11 W/m 2,5 C 3,7 C 8,0 km/h (2 Bft)
05.02.2023 08:39 3,6 C 3,3 C 92 % 1037,7 hPa 0,0 l/m 4,8 km/h (1 Bft) SW 225 0 min 0,0 UV-I 9 W/m 2,4 C 3,6 C 8,0 km/h (2 Bft)
05.02.2023 08:40 3,7 C 3,3 C 92 % 1037,8 hPa 0,0 l/m 4,8 km/h (1 Bft) SW 225 0 min 0,0 UV-I 9 W/m 2,5 C 3,7 C 6,4 km/h (2 Bft)
05.02.2023 08:41 3,7 C 3,3 C 92 % 1037,7 hPa 0,0 l/m 4,8 km/h (1 Bft) W-SW 247 0 min 0,0 UV-I 9 W/m 2,5 C 3,7 C 8,0 km/h (2 Bft)
05.02.2023 08:42 3,7 C 3,3 C 92 % 1037,7 hPa 0,0 l/m 6,4 km/h (2 Bft) W-SW 247 0 min 0,0 UV-I 11 W/m 2,5 C 3,7 C 9,7 km/h (2 Bft)
05.02.2023 08:43 3,6 C 3,3 C 92 % 1037,6 hPa 0,0 l/m 4,8 km/h (1 Bft) W 270 0 min 0,0 UV-I 11 W/m 2,4 C 3,6 C 6,4 km/h (2 Bft)
05.02.2023 08:44 3,7 C 3,3 C 92 % 1037,6 hPa 0,0 l/m 4,8 km/h (1 Bft) W-SW 247 0 min 0,0 UV-I 11 W/m 2,5 C 3,7 C 8,0 km/h (2 Bft)
05.02.2023 08:45 3,7 C 3,3 C 92 % 1037,7 hPa 0,0 l/m 6,4 km/h (2 Bft) S 180 0 min 0,0 UV-I 11 W/m 2,5 C 3,7 C 11,3 km/h (2 Bft)
05.02.2023 08:46 3,7 C 3,3 C 92 % 1037,6 hPa 0,0 l/m 8,0 km/h (2 Bft) W-SW 247 0 min 0,0 UV-I 11 W/m 2,5 C 2,2 C 14,5 km/h (3 Bft)
05.02.2023 08:47 3,7 C 3,3 C 92 % 1037,7 hPa 0,0 l/m 4,8 km/h (1 Bft) W 270 0 min 0,0 UV-I 11 W/m 2,5 C 3,7 C 6,4 km/h (2 Bft)
05.02.2023 08:48 3,7 C 3,3 C 92 % 1037,7 hPa 0,0 l/m 6,4 km/h (2 Bft) W 270 0 min 0,0 UV-I 11 W/m 2,5 C 3,7 C 9,7 km/h (2 Bft)
05.02.2023 08:49 3,7 C 3,3 C 92 % 1037,7 hPa 0,0 l/m 6,4 km/h (2 Bft) W-SW 247 0 min 0,0 UV-I 9 W/m 2,5 C 3,7 C 8,0 km/h (2 Bft)
05.02.2023 08:50 3,7 C 3,3 C 92 % 1037,6 hPa 0,0 l/m 6,4 km/h (2 Bft) SW 225 0 min 0,0 UV-I 9 W/m 2,5 C 3,7 C 9,7 km/h (2 Bft)
05.02.2023 08:51 3,7 C 3,3 C 92 % 1037,6 hPa 0,0 l/m 4,8 km/h (1 Bft) W-SW 247 0 min 0,0 UV-I 11 W/m 2,5 C 3,7 C 6,4 km/h (2 Bft)
05.02.2023 08:52 3,7 C 3,3 C 92 % 1037,7 hPa 0,0 l/m 9,7 km/h (2 Bft) W-SW 247 0 min 0,0 UV-I 9 W/m 2,5 C 0,9 C 16,1 km/h (3 Bft)
05.02.2023 08:53 3,7 C 3,3 C 92 % 1037,6 hPa 0,0 l/m 9,7 km/h (2 Bft) W 270 0 min 0,0 UV-I 9 W/m 2,5 C 0,9 C 12,9 km/h (3 Bft)
05.02.2023 08:54 3,7 C 3,3 C 92 % 1037,7 hPa 0,0 l/m 6,4 km/h (2 Bft) W-SW 247 0 min 0,0 UV-I 11 W/m 2,5 C 3,7 C 9,7 km/h (2 Bft)
05.02.2023 08:55 3,7 C 3,3 C 92 % 1037,6 hPa 0,0 l/m 4,8 km/h (1 Bft) SW 225 0 min 0,0 UV-I 14 W/m 2,5 C 3,7 C 8,0 km/h (2 Bft)
05.02.2023 08:56 3,7 C 3,3 C 92 % 1037,6 hPa 0,0 l/m 4,8 km/h (1 Bft) W-SW 247 0 min 0,0 UV-I 14 W/m 2,5 C 3,7 C 8,0 km/h (2 Bft)
05.02.2023 08:57 3,7 C 3,3 C 92 % 1037,7 hPa 0,0 l/m 3,2 km/h (1 Bft) W-SW 247 0 min 0,0 UV-I 12 W/m 2,5 C 3,7 C 6,4 km/h (2 Bft)
05.02.2023 08:58 3,7 C 3,3 C 92 % 1037,7 hPa 0,0 l/m 6,4 km/h (2 Bft) W-SW 247 0 min 0,0 UV-I 11 W/m 2,5 C 3,7 C 8,0 km/h (2 Bft)
05.02.2023 08:59 3,7 C 3,3 C 92 % 1037,7 hPa 0,0 l/m 3,2 km/h (1 Bft) W 270 0 min 0,0 UV-I 11 W/m 2,5 C 3,7 C 6,4 km/h (2 Bft)
05.02.2023 09:00 3,7 C 3,3 C 92 % 1037,6 hPa 0,0 l/m 4,8 km/h (1 Bft) W 270 0 min 0,0 UV-I 11 W/m 2,5 C 3,7 C 11,3 km/h (2 Bft)
05.02.2023 09:01 3,7 C 3,3 C 92 % 1037,7 hPa 0,0 l/m 6,4 km/h (2 Bft) W-SW 247 0 min 0,0 UV-I 12 W/m 2,5 C 3,7 C 11,3 km/h (2 Bft)
05.02.2023 09:02 3,7 C 3,3 C 92 % 1037,6 hPa 0,0 l/m 3,2 km/h (1 Bft) W-SW 247 0 min 0,0 UV-I 18 W/m 2,5 C 3,7 C 6,4 km/h (2 Bft)
05.02.2023 09:03 3,7 C 3,3 C 92 % 1037,7 hPa 0,0 l/m 6,4 km/h (2 Bft) W-SW 247 0 min 0,0 UV-I 19 W/m 2,5 C 3,7 C 11,3 km/h (2 Bft)
05.02.2023 09:04 3,7 C 3,3 C 92 % 1037,7 hPa 0,0 l/m 11,3 km/h (2 Bft) W-SW 247 0 min 0,0 UV-I 19 W/m 2,5 C -0,3 C 16,1 km/h (3 Bft)
05.02.2023 09:05 3,7 C 3,3 C 92 % 1037,7 hPa 0,0 l/m 4,8 km/h (1 Bft) W-SW 247 0 min 0,0 UV-I 18 W/m 2,5 C 3,7 C 9,7 km/h (2 Bft)
05.02.2023 09:06 3,7 C 3,3 C 92 % 1037,7 hPa 0,0 l/m 6,4 km/h (2 Bft) SW 225 0 min 0,0 UV-I 19 W/m 2,5 C 3,7 C 12,9 km/h (3 Bft)
05.02.2023 09:07 3,7 C 3,3 C 92 % 1037,7 hPa 0,0 l/m 8,0 km/h (2 Bft) W 270 0 min 0,0 UV-I 18 W/m 2,5 C 2,2 C 11,3 km/h (2 Bft)
05.02.2023 09:08 3,7 C 3,3 C 92 % 1037,6 hPa 0,0 l/m 8,0 km/h (2 Bft) W 270 0 min 0,0 UV-I 18 W/m 2,5 C 2,2 C 14,5 km/h (3 Bft)
05.02.2023 09:09 3,7 C 3,3 C 92 % 1037,7 hPa 0,0 l/m 16,1 km/h (3 Bft) W 270 0 min 0,0 UV-I 21 W/m 2,5 C -3,1 C 20,9 km/h (4 Bft)
05.02.2023 09:10 3,7 C 3,3 C 92 % 1037,8 hPa 0,0 l/m 8,0 km/h (2 Bft) W-SW 247 0 min 0,0 UV-I 21 W/m 2,5 C 2,2 C 12,9 km/h (3 Bft)
05.02.2023 09:11 3,7 C 3,3 C 91 % 1037,7 hPa 0,0 l/m 9,7 km/h (2 Bft) W 270 0 min 0,0 UV-I 25 W/m 2,4 C 0,9 C 16,1 km/h (3 Bft)
05.02.2023 09:12 3,7 C 3,3 C 91 % 1037,7 hPa 0,0 l/m 9,7 km/h (2 Bft) W 270 0 min 0,0 UV-I 28 W/m 2,4 C 0,9 C 12,9 km/h (3 Bft)
05.02.2023 09:13 3,7 C 3,3 C 91 % 1037,7 hPa 0,0 l/m 9,7 km/h (2 Bft) W-SW 247 0 min 0,0 UV-I 30 W/m 2,4 C 0,9 C 16,1 km/h (3 Bft)
05.02.2023 09:14 3,7 C 3,3 C 91 % 1037,6 hPa 0,0 l/m 11,3 km/h (2 Bft) W 270 0 min 0,0 UV-I 30 W/m 2,4 C -0,3 C 14,5 km/h (3 Bft)
05.02.2023 09:15 3,7 C 3,3 C 91 % 1037,6 hPa 0,0 l/m 11,3 km/h (2 Bft) W 270 0 min 0,0 UV-I 30 W/m 2,4 C -0,3 C 16,1 km/h (3 Bft)
05.02.2023 09:16 3,7 C 3,3 C 91 % 1037,5 hPa 0,0 l/m 4,8 km/h (1 Bft) SW 225 0 min 0,0 UV-I 32 W/m 2,4 C 3,7 C 9,7 km/h (2 Bft)
05.02.2023 09:17 3,7 C 3,3 C 91 % 1037,6 hPa 0,0 l/m 11,3 km/h (2 Bft) W 270 0 min 0,0 UV-I 33 W/m 2,4 C -0,3 C 16,1 km/h (3 Bft)
05.02.2023 09:18 3,7 C 3,3 C 91 % 1037,6 hPa 0,0 l/m 6,4 km/h (2 Bft) W-SW 247 0 min 0,0 UV-I 35 W/m 2,4 C 3,7 C 14,5 km/h (3 Bft)
05.02.2023 09:19 3,6 C 3,3 C 91 % 1037,5 hPa 0,0 l/m 4,8 km/h (1 Bft) W-SW 247 0 min 0,0 UV-I 39 W/m 2,3 C 3,6 C 9,7 km/h (2 Bft)
05.02.2023 09:20 3,7 C 3,3 C 91 % 1037,5 hPa 0,0 l/m 12,9 km/h (3 Bft) W-SW 247 0 min 0,0 UV-I 40 W/m 2,4 C -1,3 C 19,3 km/h (3 Bft)
05.02.2023 09:21 3,7 C 3,3 C 92 % 1037,5 hPa 0,0 l/m 9,7 km/h (2 Bft) W 270 0 min 0,0 UV-I 42 W/m 2,5 C 0,9 C 16,1 km/h (3 Bft)
05.02.2023 09:22 3,6 C 3,3 C 92 % 1037,5 hPa 0,0 l/m 6,4 km/h (2 Bft) W-SW 247 0 min 0,0 UV-I 41 W/m 2,4 C 3,6 C 11,3 km/h (2 Bft)
05.02.2023 09:23 3,7 C 3,3 C 92 % 1037,5 hPa 0,0 l/m 11,3 km/h (2 Bft) W 270 0 min 0,0 UV-I 39 W/m 2,5 C -0,3 C 16,1 km/h (3 Bft)
05.02.2023 09:24 3,6 C 3,3 C 92 % 1037,5 hPa 0,0 l/m 4,8 km/h (1 Bft) W-SW 247 0 min 0,0 UV-I 39 W/m 2,4 C 3,6 C 9,7 km/h (2 Bft)
05.02.2023 09:25 3,6 C 3,3 C 92 % 1037,5 hPa 0,0 l/m 9,7 km/h (2 Bft) W-SW 247 0 min 0,0 UV-I 40 W/m 2,4 C 0,8 C 12,9 km/h (3 Bft)
05.02.2023 09:26 3,6 C 3,3 C 91 % 1037,4 hPa 0,0 l/m 9,7 km/h (2 Bft) W-SW 247 0 min 0,0 UV-I 42 W/m 2,3 C 0,8 C 14,5 km/h (3 Bft)
05.02.2023 09:27 3,6 C 3,3 C 92 % 1037,4 hPa 0,0 l/m 12,9 km/h (3 Bft) SW 225 0 min 0,0 UV-I 42 W/m 2,4 C -1,4 C 20,9 km/h (4 Bft)
05.02.2023 09:28 3,6 C 3,3 C 92 % 1037,4 hPa 0,0 l/m 16,1 km/h (3 Bft) W-SW 247 0 min 0,0 UV-I 49 W/m 2,4 C -3,2 C 20,9 km/h (4 Bft)
05.02.2023 09:29 3,6 C 3,3 C 91 % 1037,4 hPa 0,0 l/m 11,3 km/h (2 Bft) W 270 0 min 0,0 UV-I 56 W/m 2,3 C -0,4 C 20,9 km/h (4 Bft)
05.02.2023 09:30 3,6 C 3,3 C 91 % 1037,5 hPa 0,0 l/m 11,3 km/h (2 Bft) W 270 0 min 0,0 UV-I 62 W/m 2,3 C -0,4 C 14,5 km/h (3 Bft)
05.02.2023 09:31 3,6 C 3,3 C 91 % 1037,5 hPa 0,0 l/m 8,0 km/h (2 Bft) W 270 0 min 0,0 UV-I 63 W/m 2,3 C 2,1 C 12,9 km/h (3 Bft)
05.02.2023 09:32 3,6 C 3,3 C 91 % 1037,5 hPa 0,0 l/m 6,4 km/h (2 Bft) W-SW 247 0 min 0,0 UV-I 62 W/m 2,3 C 3,6 C 11,3 km/h (2 Bft)
05.02.2023 09:33 3,6 C 3,3 C 91 % 1037,5 hPa 0,0 l/m 4,8 km/h (1 Bft) W-SW 247 0 min 0,0 UV-I 60 W/m 2,3 C 3,6 C 8,0 km/h (2 Bft)
05.02.2023 09:34 3,6 C 3,3 C 91 % 1037,5 hPa 0,0 l/m 4,8 km/h (1 Bft) W-SW 247 0 min 0,0 UV-I 55 W/m 2,3 C 3,6 C 11,3 km/h (2 Bft)
05.02.2023 09:35 3,6 C 3,3 C 91 % 1037,5 hPa 0,0 l/m 8,0 km/h (2 Bft) W 270 0 min 0,0 UV-I 47 W/m 2,3 C 2,1 C 12,9 km/h (3 Bft)
05.02.2023 09:36 3,6 C 3,3 C 91 % 1037,5 hPa 0,0 l/m 8,0 km/h (2 Bft) W 270 0 min 0,0 UV-I 44 W/m 2,3 C 2,1 C 12,9 km/h (3 Bft)
05.02.2023 09:37 3,6 C 3,3 C 91 % 1037,5 hPa 0,0 l/m 9,7 km/h (2 Bft) W 270 0 min 0,0 UV-I 44 W/m 2,3 C 0,8 C 20,9 km/h (4 Bft)
05.02.2023 09:38 3,6 C 3,3 C 91 % 1037,6 hPa 0,0 l/m 8,0 km/h (2 Bft) W-SW 247 0 min 0,0 UV-I 42 W/m 2,3 C 2,1 C 16,1 km/h (3 Bft)
05.02.2023 09:39 3,6 C 3,3 C 91 % 1037,6 hPa 0,0 l/m 9,7 km/h (2 Bft) W-SW 247 0 min 0,0 UV-I 44 W/m 2,3 C 0,8 C 16,1 km/h (3 Bft)
05.02.2023 09:40 3,6 C 3,3 C 91 % 1037,6 hPa 0,0 l/m 12,9 km/h (3 Bft) W-SW 247 0 min 0,0 UV-I 41 W/m 2,3 C -1,4 C 16,1 km/h (3 Bft)
05.02.2023 09:41 3,6 C 3,3 C 91 % 1037,5 hPa 0,0 l/m 12,9 km/h (3 Bft) W 270 0 min 0,0 UV-I 40 W/m 2,3 C -1,4 C 19,3 km/h (3 Bft)
05.02.2023 09:42 3,6 C 3,3 C 91 % 1037,5 hPa 0,0 l/m 9,7 km/h (2 Bft) W 270 0 min 0,0 UV-I 39 W/m 2,3 C 0,8 C 14,5 km/h (3 Bft)
05.02.2023 09:43 3,6 C 3,3 C 91 % 1037,6 hPa 0,0 l/m 4,8 km/h (1 Bft) SW 225 0 min 0,0 UV-I 35 W/m 2,3 C 3,6 C 6,4 km/h (2 Bft)
05.02.2023 09:44 3,6 C 3,3 C 91 % 1037,5 hPa 0,0 l/m 14,5 km/h (3 Bft) W-SW 247 0 min 0,0 UV-I 33 W/m 2,3 C -2,3 C 25,7 km/h (4 Bft)
05.02.2023 09:45 3,6 C 3,3 C 91 % 1037,5 hPa 0,0 l/m 9,7 km/h (2 Bft) W-SW 247 0 min 0,0 UV-I 38 W/m 2,3 C 0,8 C 20,9 km/h (4 Bft)
05.02.2023 09:46 3,6 C 3,3 C 91 % 1037,5 hPa 0,0 l/m 8,0 km/h (2 Bft) SW 225 0 min 0,0 UV-I 35 W/m 2,3 C 2,1 C 25,7 km/h (4 Bft)
05.02.2023 09:47 3,6 C 3,3 C 91 % 1037,5 hPa 0,0 l/m 11,3 km/h (2 Bft) W 270 0 min 0,0 UV-I 32 W/m 2,3 C -0,4 C 14,5 km/h (3 Bft)
05.02.2023 09:48 3,6 C 3,3 C 91 % 1037,6 hPa 0,0 l/m 11,3 km/h (2 Bft) W-SW 247 0 min 0,0 UV-I 32 W/m 2,3 C -0,4 C 16,1 km/h (3 Bft)
05.02.2023 09:49 3,6 C 2,8 C 91 % 1037,6 hPa 0,0 l/m 11,3 km/h (2 Bft) W-SW 247 0 min 0,0 UV-I 37 W/m 2,3 C -0,4 C 14,5 km/h (3 Bft)
05.02.2023 09:50 3,6 C 2,8 C 91 % 1037,6 hPa 0,0 l/m 12,9 km/h (3 Bft) W 270 0 min 0,0 UV-I 44 W/m 2,3 C -1,4 C 17,7 km/h (3 Bft)
05.02.2023 09:51 3,5 C 2,8 C 91 % 1037,6 hPa 0,0 l/m 14,5 km/h (3 Bft) W 270 0 min 0,0 UV-I 48 W/m 2,2 C -2,5 C 20,9 km/h (4 Bft)
05.02.2023 09:52 3,5 C 2,8 C 91 % 1037,7 hPa 0,0 l/m 14,5 km/h (3 Bft) W 270 0 min 0,0 UV-I 35 W/m 2,2 C -2,5 C 19,3 km/h (3 Bft)
05.02.2023 09:53 3,5 C 2,8 C 91 % 1037,7 hPa 0,0 l/m 11,3 km/h (2 Bft) W-SW 247 0 min 0,0 UV-I 26 W/m 2,2 C -0,5 C 17,7 km/h (3 Bft)
05.02.2023 09:54 3,5 C 2,8 C 91 % 1037,8 hPa 0,0 l/m 11,3 km/h (2 Bft) W-SW 247 0 min 0,0 UV-I 21 W/m 2,2 C -0,5 C 14,5 km/h (3 Bft)
05.02.2023 09:55 3,4 C 2,8 C 91 % 1037,8 hPa 0,0 l/m 12,9 km/h (3 Bft) W 270 0 min 0,0 UV-I 19 W/m 2,1 C -1,7 C 16,1 km/h (3 Bft)
05.02.2023 09:56 3,4 C 2,8 C 91 % 1037,8 hPa 0,0 l/m 12,9 km/h (3 Bft) W 270 0 min 0,0 UV-I 18 W/m 2,1 C -1,7 C 20,9 km/h (4 Bft)
05.02.2023 09:57 3,4 C 2,8 C 91 % 1037,7 hPa 0,2 l/m 9,7 km/h (2 Bft) W-SW 247 0 min 0,0 UV-I 17 W/m 2,1 C 0,5 C 19,3 km/h (3 Bft)
05.02.2023 09:58 3,4 C 2,8 C 91 % 1037,6 hPa 0,0 l/m 8,0 km/h (2 Bft) SW 225 0 min 0,0 UV-I 23 W/m 2,1 C 1,9 C 16,1 km/h (3 Bft)
05.02.2023 09:59 3,4 C 2,8 C 91 % 1037,6 hPa 0,0 l/m 8,0 km/h (2 Bft) W 270 0 min 0,0 UV-I 28 W/m 2,1 C 1,9 C 12,9 km/h (3 Bft)
05.02.2023 10:00 3,4 C 2,8 C 91 % 1037,6 hPa 0,0 l/m 12,9 km/h (3 Bft) W 270 0 min 0,0 UV-I 30 W/m 2,1 C -1,7 C 17,7 km/h (3 Bft)
05.02.2023 10:01 3,4 C 2,8 C 91 % 1037,7 hPa 0,0 l/m 9,7 km/h (2 Bft) W-SW 247 0 min 0,0 UV-I 32 W/m 2,1 C 0,5 C 12,9 km/h (3 Bft)
05.02.2023 10:02 3,4 C 2,8 C 91 % 1037,7 hPa 0,0 l/m 9,7 km/h (2 Bft) W 270 0 min 0,0 UV-I 30 W/m 2,1 C 0,5 C 12,9 km/h (3 Bft)
05.02.2023 10:03 3,4 C 2,8 C 91 % 1037,6 hPa 0,0 l/m 4,8 km/h (1 Bft) W 270 0 min 0,0 UV-I 28 W/m 2,1 C 3,4 C 6,4 km/h (2 Bft)
05.02.2023 10:04 3,3 C 2,8 C 91 % 1037,6 hPa 0,0 l/m 8,0 km/h (2 Bft) W 270 0 min 0,0 UV-I 35 W/m 2,0 C 1,8 C 12,9 km/h (3 Bft)
05.02.2023 10:05 3,4 C 2,8 C 91 % 1037,7 hPa 0,0 l/m 6,4 km/h (2 Bft) W-SW 247 0 min 0,0 UV-I 42 W/m 2,1 C 3,4 C 11,3 km/h (2 Bft)
05.02.2023 10:06 3,3 C 2,8 C 91 % 1037,6 hPa 0,0 l/m 9,7 km/h (2 Bft) W 270 0 min 0,0 UV-I 53 W/m 2,0 C 0,4 C 12,9 km/h (3 Bft)
05.02.2023 10:07 3,3 C 2,8 C 91 % 1037,6 hPa 0,0 l/m 6,4 km/h (2 Bft) W 270 0 min 0,0 UV-I 58 W/m 2,0 C 3,3 C 11,3 km/h (2 Bft)
05.02.2023 10:08 3,3 C 2,8 C 91 % 1037,5 hPa 0,0 l/m 6,4 km/h (2 Bft) W-SW 247 0 min 0,0 UV-I 58 W/m 2,0 C 3,3 C 9,7 km/h (2 Bft)
05.02.2023 10:09 3,3 C 2,8 C 91 % 1037,7 hPa 0,2 l/m 6,4 km/h (2 Bft) W-SW 247 0 min 0,0 UV-I 57 W/m 2,0 C 3,3 C 11,3 km/h (2 Bft)
05.02.2023 10:10 3,3 C 2,8 C 91 % 1037,5 hPa 0,0 l/m 8,0 km/h (2 Bft) SW 225 0 min 0,0 UV-I 60 W/m 2,0 C 1,8 C 12,9 km/h (3 Bft)
05.02.2023 10:11 3,3 C 2,8 C 91 % 1037,6 hPa 0,0 l/m 11,3 km/h (2 Bft) W 270 0 min 0,0 UV-I 65 W/m 2,0 C -0,7 C 16,1 km/h (3 Bft)
05.02.2023 10:12 3,4 C 2,8 C 91 % 1037,5 hPa 0,0 l/m 8,0 km/h (2 Bft) W 270 0 min 0,0 UV-I 63 W/m 2,1 C 1,9 C 9,7 km/h (2 Bft)
05.02.2023 10:13 3,4 C 2,8 C 91 % 1037,6 hPa 0,0 l/m 4,8 km/h (1 Bft) W 270 0 min 0,0 UV-I 56 W/m 2,1 C 3,4 C 8,0 km/h (2 Bft)
05.02.2023 10:14 3,4 C 3,3 C 91 % 1037,6 hPa 0,0 l/m 11,3 km/h (2 Bft) W 270 0 min 0,0 UV-I 47 W/m 2,1 C -0,6 C 14,5 km/h (3 Bft)
05.02.2023 10:15 3,3 C 2,8 C 91 % 1037,6 hPa 0,0 l/m 11,3 km/h (2 Bft) W 270 0 min 0,0 UV-I 54 W/m 2,0 C -0,7 C 14,5 km/h (3 Bft)
05.02.2023 10:16 3,3 C 2,8 C 91 % 1037,4 hPa 0,0 l/m 9,7 km/h (2 Bft) W-NW 292 0 min 0,0 UV-I 51 W/m 2,0 C 0,4 C 14,5 km/h (3 Bft)
05.02.2023 10:17 3,3 C 2,8 C 91 % 1037,5 hPa 0,0 l/m 6,4 km/h (2 Bft) W 270 0 min 0,0 UV-I 49 W/m 2,0 C 3,3 C 11,3 km/h (2 Bft)
05.02.2023 10:18 3,3 C 2,8 C 91 % 1037,5 hPa 0,0 l/m 8,0 km/h (2 Bft) W 270 0 min 0,0 UV-I 44 W/m 2,0 C 1,8 C 14,5 km/h (3 Bft)
05.02.2023 10:19 3,3 C 2,8 C 91 % 1037,5 hPa 0,0 l/m 9,7 km/h (2 Bft) W 270 0 min 0,0 UV-I 40 W/m 2,0 C 0,4 C 14,5 km/h (3 Bft)
05.02.2023 10:20 3,3 C 2,8 C 91 % 1037,5 hPa 0,0 l/m 8,0 km/h (2 Bft) W 270 0 min 0,0 UV-I 37 W/m 2,0 C 1,8 C 12,9 km/h (3 Bft)
05.02.2023 10:21 3,3 C 2,8 C 91 % 1037,4 hPa 0,0 l/m 8,0 km/h (2 Bft) W 270 0 min 0,0 UV-I 42 W/m 2,0 C 1,8 C 12,9 km/h (3 Bft)
05.02.2023 10:22 3,3 C 2,8 C 91 % 1037,5 hPa 0,0 l/m 4,8 km/h (1 Bft) W 270 0 min 0,0 UV-I 51 W/m 2,0 C 3,3 C 9,7 km/h (2 Bft)
05.02.2023 10:23 3,3 C 2,8 C 91 % 1037,5 hPa 0,0 l/m 6,4 km/h (2 Bft) W-SW 247 0 min 0,0 UV-I 62 W/m 2,0 C 3,3 C 11,3 km/h (2 Bft)
05.02.2023 10:24 3,3 C 2,8 C 91 % 1037,5 hPa 0,0 l/m 6,4 km/h (2 Bft) W 270 0 min 0,0 UV-I 74 W/m 2,0 C 3,3 C 9,7 km/h (2 Bft)
05.02.2023 10:25 3,3 C 2,8 C 91 % 1037,5 hPa 0,0 l/m 1,6 km/h (1 Bft) W-SW 247 0 min 0,0 UV-I 67 W/m 2,0 C 3,3 C 4,8 km/h (1 Bft)
05.02.2023 10:26 3,3 C 2,8 C 91 % 1037,5 hPa 0,0 l/m 1,6 km/h (1 Bft) W-SW 247 0 min 0,0 UV-I 44 W/m 2,0 C 3,3 C 4,8 km/h (1 Bft)
05.02.2023 10:27 3,3 C 2,8 C 91 % 1037,5 hPa 0,0 l/m 6,4 km/h (2 Bft) W-SW 247 0 min 0,0 UV-I 26 W/m 2,0 C 3,3 C 11,3 km/h (2 Bft)
05.02.2023 10:28 3,3 C 2,8 C 91 % 1037,6 hPa 0,2 l/m 6,4 km/h (2 Bft) W-NW 292 0 min 0,0 UV-I 19 W/m 2,0 C 3,3 C 14,5 km/h (3 Bft)
05.02.2023 10:29 3,3 C 2,8 C 91 % 1037,6 hPa 0,0 l/m 9,7 km/h (2 Bft) W-NW 292 0 min 0,0 UV-I 19 W/m 2,0 C 0,4 C 16,1 km/h (3 Bft)
05.02.2023 10:30 3,3 C 2,8 C 91 % 1037,6 hPa 0,0 l/m 8,0 km/h (2 Bft) W-NW 292 0 min 0,0 UV-I 21 W/m 2,0 C 1,8 C 16,1 km/h (3 Bft)
05.02.2023 10:31 3,3 C 2,8 C 91 % 1037,8 hPa 0,0 l/m 9,7 km/h (2 Bft) N-NW 337 0 min 0,0 UV-I 28 W/m 2,0 C 0,4 C 14,5 km/h (3 Bft)
05.02.2023 10:32 3,3 C 2,8 C 91 % 1037,6 hPa 0,2 l/m 9,7 km/h (2 Bft) NW 315 0 min 0,0 UV-I 29 W/m 2,0 C 0,4 C 16,1 km/h (3 Bft)
05.02.2023 10:33 3,3 C 2,8 C 91 % 1037,6 hPa 0,0 l/m 8,0 km/h (2 Bft) NW 315 0 min 0,0 UV-I 26 W/m 2,0 C 1,8 C 14,5 km/h (3 Bft)
05.02.2023 10:34 3,3 C 2,8 C 91 % 1037,6 hPa 0,0 l/m 8,0 km/h (2 Bft) NW 315 0 min 0,0 UV-I 37 W/m 2,0 C 1,8 C 17,7 km/h (3 Bft)
05.02.2023 10:35 3,3 C 2,8 C 91 % 1037,6 hPa 0,0 l/m 12,9 km/h (3 Bft) W-NW 292 0 min 0,0 UV-I 37 W/m 2,0 C -1,8 C 27,4 km/h (4 Bft)
05.02.2023 10:36 3,3 C 2,8 C 91 % 1037,6 hPa 0,0 l/m 12,9 km/h (3 Bft) W 270 0 min 0,0 UV-I 69 W/m 2,0 C -1,8 C 27,4 km/h (4 Bft)
05.02.2023 10:37 3,2 C 2,8 C 91 % 1037,6 hPa 0,0 l/m 12,9 km/h (3 Bft) W-NW 292 0 min 0,0 UV-I 49 W/m 1,9 C -1,9 C 27,4 km/h (4 Bft)
05.02.2023 10:38 3,2 C 2,8 C 91 % 1037,7 hPa 0,0 l/m 16,1 km/h (3 Bft) W-NW 292 0 min 0,0 UV-I 35 W/m 1,9 C -3,7 C 29,0 km/h (5 Bft)
05.02.2023 10:39 3,2 C 2,8 C 91 % 1037,7 hPa 0,0 l/m 14,5 km/h (3 Bft) NW 315 0 min 0,0 UV-I 49 W/m 1,9 C -2,8 C 24,1 km/h (4 Bft)
05.02.2023 10:42 3,2 C 2,8 C 91 % 1037,7 hPa 0,0 l/m 14,0 km/h (3 Bft) N-NW 346 0 min 0,0 UV-I 44 W/m 1,9 C -2,5 C 35,4 km/h (5 Bft)
05.02.2023 10:45 3,2 C 2,8 C 91 % 1037,8 hPa 0,0 l/m 15,7 km/h (3 Bft) N 5 0 min 0,0 UV-I 44 W/m 1,9 C -3,5 C 37,0 km/h (5 Bft)
05.02.2023 10:48 3,2 C 2,8 C 91 % 1037,8 hPa 0,0 l/m 19,5 km/h (3 Bft) NW 309 0 min 0,1 UV-I 52 W/m 1,9 C -5,3 C 32,2 km/h (5 Bft)
05.02.2023 10:51 3,2 C 3,3 C 91 % 1037,9 hPa 0,0 l/m 11,5 km/h (2 Bft) N-NW 338 0 min 0,0 UV-I 80 W/m 1,9 C -1,0 C 27,4 km/h (4 Bft)
05.02.2023 10:54 3,2 C 3,3 C 91 % 1037,8 hPa 0,0 l/m 18,1 km/h (3 Bft) W 273 0 min 0,0 UV-I 70 W/m 1,9 C -4,7 C 30,6 km/h (5 Bft)
05.02.2023 10:57 3,2 C 3,3 C 91 % 1037,9 hPa 0,0 l/m 15,3 km/h (3 Bft) NW 309 0 min 0,5 UV-I 92 W/m 1,9 C -3,3 C 25,7 km/h (4 Bft)
05.02.2023 11:00 3,3 C 3,3 C 91 % 1037,8 hPa 0,0 l/m 9,4 km/h (2 Bft) N-NW 331 0 min 0,5 UV-I 107 W/m 2,0 C 0,7 C 25,7 km/h (4 Bft)
05.02.2023 11:03 3,3 C 3,3 C 91 % 1037,9 hPa 0,0 l/m 11,4 km/h (2 Bft) NW 319 0 min 0,2 UV-I 87 W/m 2,0 C -0,8 C 24,1 km/h (4 Bft)
05.02.2023 11:06 3,3 C 3,9 C 91 % 1037,9 hPa 0,0 l/m 10,7 km/h (2 Bft) W-NW 300 0 min 0,3 UV-I 105 W/m 2,0 C -0,3 C 29,0 km/h (5 Bft)
05.02.2023 11:09 3,3 C 3,3 C 91 % 1037,9 hPa 0,0 l/m 20,0 km/h (4 Bft) N-NW 339 0 min 0,1 UV-I 69 W/m 2,0 C -5,4 C 38,6 km/h (5 Bft)
05.02.2023 11:12 3,3 C 3,3 C 91 % 1037,9 hPa 0,0 l/m 14,5 km/h (3 Bft) N-NW 346 0 min 0,3 UV-I 65 W/m 2,0 C -2,7 C 25,7 km/h (4 Bft)
05.02.2023 11:15 3,2 C 3,3 C 91 % 1037,8 hPa 0,0 l/m 15,9 km/h (3 Bft) N-NW 327 0 min 0,5 UV-I 85 W/m 1,9 C -3,6 C 30,6 km/h (5 Bft)
05.02.2023 11:18 3,2 C 3,3 C 91 % 1037,9 hPa 0,0 l/m 16,2 km/h (3 Bft) N-NW 343 0 min 0,6 UV-I 117 W/m 1,9 C -3,7 C 25,7 km/h (4 Bft)
05.02.2023 11:21 3,2 C 3,3 C 91 % 1037,9 hPa 0,0 l/m 15,4 km/h (3 Bft) N 360 0 min 0,4 UV-I 106 W/m 1,9 C -3,3 C 27,4 km/h (4 Bft)
05.02.2023 11:24 3,2 C 3,3 C 91 % 1038,0 hPa 0,0 l/m 11,8 km/h (2 Bft) N-NW 338 0 min 0,0 UV-I 47 W/m 1,9 C -1,2 C 25,7 km/h (4 Bft)
05.02.2023 11:27 3,2 C 2,8 C 90 % 1038,1 hPa 0,2 l/m 12,6 km/h (3 Bft) NW 307 0 min 0,0 UV-I 48 W/m 1,7 C -1,7 C 20,9 km/h (4 Bft)
05.02.2023 11:30 3,1 C 2,8 C 91 % 1038,0 hPa 0,0 l/m 7,6 km/h (2 Bft) NW 319 0 min 0,0 UV-I 69 W/m 1,8 C 2,0 C 16,1 km/h (3 Bft)
05.02.2023 11:33 3,1 C 3,3 C 91 % 1038,0 hPa 0,0 l/m 9,1 km/h (2 Bft) N-NW 346 0 min 0,2 UV-I 90 W/m 1,8 C 0,7 C 19,3 km/h (3 Bft)
05.02.2023 11:36 3,1 C 3,3 C 91 % 1038,1 hPa 0,0 l/m 9,0 km/h (2 Bft) W 275 0 min 0,4 UV-I 122 W/m 1,8 C 0,8 C 20,9 km/h (4 Bft)
05.02.2023 11:39 3,1 C 3,3 C 91 % 1038,0 hPa 0,0 l/m 11,2 km/h (2 Bft) W-NW 296 0 min 0,0 UV-I 75 W/m 1,8 C -0,9 C 22,5 km/h (4 Bft)
05.02.2023 11:42 3,0 C 2,8 C 90 % 1038,0 hPa 0,0 l/m 10,9 km/h (2 Bft) NW 308 0 min 0,0 UV-I 60 W/m 1,5 C -0,8 C 20,9 km/h (4 Bft)
05.02.2023 11:45 3,0 C 2,8 C 90 % 1038,0 hPa 0,0 l/m 9,4 km/h (2 Bft) NW 322 0 min 0,0 UV-I 51 W/m 1,5 C 0,3 C 20,9 km/h (4 Bft)
05.02.2023 11:48 2,9 C 2,8 C 90 % 1038,1 hPa 0,0 l/m 13,9 km/h (3 Bft) NW 325 0 min 0,1 UV-I 64 W/m 1,4 C -2,8 C 22,5 km/h (4 Bft)
05.02.2023 11:51 2,9 C 2,8 C 90 % 1038,0 hPa 0,0 l/m 13,9 km/h (3 Bft) NW 311 0 min 0,2 UV-I 88 W/m 1,4 C -2,8 C 27,4 km/h (4 Bft)
05.02.2023 11:54 3,1 C 2,8 C 91 % 1037,9 hPa 0,0 l/m 10,1 km/h (2 Bft) N-NW 336 0 min 0,1 UV-I 80 W/m 1,8 C -0,1 C 27,4 km/h (4 Bft)
05.02.2023 11:57 3,0 C 2,8 C 90 % 1038,0 hPa 0,0 l/m 16,7 km/h (3 Bft) W-NW 303 0 min 0,0 UV-I 60 W/m 1,5 C -4,2 C 27,4 km/h (4 Bft)
05.02.2023 12:00 3,0 C 2,8 C 91 % 1037,7 hPa 0,0 l/m 10,4 km/h (2 Bft) W-NW 290 0 min 0,3 UV-I 81 W/m 1,7 C -0,4 C 25,7 km/h (4 Bft)
05.02.2023 12:03 3,1 C 3,3 C 91 % 1037,6 hPa 0,0 l/m 8,7 km/h (2 Bft) NW 307 0 min 0,4 UV-I 94 W/m 1,8 C 1,0 C 16,1 km/h (3 Bft)
05.02.2023 12:06 3,0 C 2,8 C 91 % 1037,5 hPa 0,2 l/m 11,0 km/h (2 Bft) NW 310 0 min 0,0 UV-I 60 W/m 1,7 C -0,9 C 24,1 km/h (4 Bft)
05.02.2023 12:09 3,0 C 2,8 C 90 % 1037,5 hPa 0,0 l/m 12,1 km/h (2 Bft) W-NW 300 0 min 0,4 UV-I 86 W/m 1,5 C -1,6 C 24,1 km/h (4 Bft)
05.02.2023 12:12 2,9 C 2,8 C 90 % 1037,6 hPa 0,0 l/m 12,8 km/h (3 Bft) W 265 0 min 0,2 UV-I 96 W/m 1,4 C -2,2 C 24,1 km/h (4 Bft)
05.02.2023 12:15 3,0 C 2,8 C 90 % 1037,6 hPa 0,0 l/m 12,4 km/h (3 Bft) N-NW 330 0 min 0,1 UV-I 79 W/m 1,5 C -1,8 C 25,7 km/h (4 Bft)
05.02.2023 12:18 2,9 C 2,8 C 90 % 1037,6 hPa 0,2 l/m 15,4 km/h (3 Bft) N-NW 334 0 min 0,0 UV-I 75 W/m 1,4 C -3,7 C 27,4 km/h (4 Bft)
05.02.2023 12:21 2,8 C 2,8 C 90 % 1037,5 hPa 0,0 l/m 8,3 km/h (2 Bft) W-NW 294 0 min 0,3 UV-I 87 W/m 1,3 C 1,0 C 16,1 km/h (3 Bft)
05.02.2023 12:24 2,8 C 2,8 C 90 % 1037,7 hPa 0,0 l/m 6,3 km/h (2 Bft) W 275 0 min 0,0 UV-I 68 W/m 1,3 C 2,8 C 16,1 km/h (3 Bft)
05.02.2023 12:27 2,8 C 2,8 C 90 % 1037,5 hPa 0,0 l/m 9,3 km/h (2 Bft) N-NW 340 0 min 0,1 UV-I 72 W/m 1,3 C 0,2 C 19,3 km/h (3 Bft)
05.02.2023 12:30 2,9 C 3,3 C 90 % 1037,5 hPa 0,2 l/m 11,4 km/h (2 Bft) N-NW 340 0 min 0,6 UV-I 122 W/m 1,4 C -1,3 C 22,5 km/h (4 Bft)
05.02.2023 12:33 2,9 C 3,3 C 91 % 1037,6 hPa 0,0 l/m 7,0 km/h (2 Bft) W-NW 287 0 min 0,3 UV-I 96 W/m 1,6 C 2,3 C 19,3 km/h (3 Bft)
05.02.2023 12:36 2,9 C 3,3 C 90 % 1037,6 hPa 0,0 l/m 10,9 km/h (2 Bft) N-NW 348 0 min 0,0 UV-I 79 W/m 1,4 C -0,9 C 20,9 km/h (4 Bft)
05.02.2023 12:39 2,8 C 2,8 C 90 % 1037,5 hPa 0,2 l/m 11,7 km/h (2 Bft) NW 308 0 min 0,4 UV-I 73 W/m 1,3 C -1,6 C 22,5 km/h (4 Bft)
05.02.2023 12:42 2,8 C 2,8 C 90 % 1037,6 hPa 0,0 l/m 14,1 km/h (3 Bft) NW 310 0 min 0,1 UV-I 51 W/m 1,3 C -3,1 C 24,1 km/h (4 Bft)
05.02.2023 12:45 2,9 C 3,3 C 91 % 1037,4 hPa 0,0 l/m 13,6 km/h (3 Bft) W-NW 300 0 min 0,6 UV-I 108 W/m 1,6 C -2,7 C 30,6 km/h (5 Bft)
05.02.2023 12:48 3,0 C 3,3 C 91 % 1037,5 hPa 0,0 l/m 12,5 km/h (3 Bft) NW 323 0 min 0,5 UV-I 105 W/m 1,7 C -1,9 C 27,4 km/h (4 Bft)
05.02.2023 12:51 3,1 C 3,3 C 91 % 1037,5 hPa 0,0 l/m 10,4 km/h (2 Bft) NW 306 0 min 0,1 UV-I 82 W/m 1,8 C -0,3 C 20,9 km/h (4 Bft)
05.02.2023 12:54 3,1 C 2,8 C 91 % 1037,5 hPa 0,0 l/m 11,9 km/h (2 Bft) N-NW 328 0 min 0,1 UV-I 71 W/m 1,8 C -1,4 C 20,9 km/h (4 Bft)
05.02.2023 12:57 2,9 C 2,8 C 91 % 1037,3 hPa 0,2 l/m 19,1 km/h (3 Bft) NW 315 0 min 0,4 UV-I 90 W/m 1,6 C -5,5 C 35,4 km/h (5 Bft)
05.02.2023 13:00 3,0 C 3,3 C 91 % 1037,4 hPa 0,0 l/m 17,2 km/h (3 Bft) NW 322 0 min 0,5 UV-I 92 W/m 1,7 C -4,5 C 30,6 km/h (5 Bft)
05.02.2023 13:03 3,0 C 3,3 C 91 % 1037,4 hPa 0,0 l/m 14,9 km/h (3 Bft) NW 307 0 min 0,5 UV-I 95 W/m 1,7 C -3,3 C 24,1 km/h (4 Bft)
05.02.2023 13:06 3,1 C 3,3 C 91 % 1037,5 hPa 0,0 l/m 13,8 km/h (3 Bft) NW 315 0 min 0,0 UV-I 76 W/m 1,8 C -2,5 C 24,1 km/h (4 Bft)
05.02.2023 13:09 3,0 C 2,8 C 91 % 1037,5 hPa 0,0 l/m 16,6 km/h (3 Bft) N 9 0 min 0,2 UV-I 76 W/m 1,7 C -4,2 C 25,7 km/h (4 Bft)
05.02.2023 13:12 3,0 C 2,8 C 90 % 1037,4 hPa 0,2 l/m 18,5 km/h (3 Bft) N-NW 336 0 min 0,5 UV-I 81 W/m 1,5 C -5,1 C 32,2 km/h (5 Bft)
05.02.2023 13:15 2,9 C 2,8 C 91 % 1037,5 hPa 0,0 l/m 15,4 km/h (3 Bft) W-NW 300 0 min 0,5 UV-I 79 W/m 1,6 C -3,7 C 29,0 km/h (5 Bft)
05.02.2023 13:18 3,0 C 3,3 C 91 % 1037,4 hPa 0,0 l/m 11,3 km/h (2 Bft) N-NW 330 0 min 0,5 UV-I 93 W/m 1,7 C -1,1 C 29,0 km/h (5 Bft)
05.02.2023 13:21 3,0 C 3,3 C 91 % 1037,4 hPa 0,0 l/m 19,5 km/h (3 Bft) N-NW 340 0 min 0,5 UV-I 104 W/m 1,7 C -5,5 C 32,2 km/h (5 Bft)
05.02.2023 13:24 3,1 C 3,3 C 91 % 1037,5 hPa 0,0 l/m 14,1 km/h (3 Bft) N-NW 338 0 min 0,6 UV-I 116 W/m 1,8 C -2,7 C 29,0 km/h (5 Bft)
05.02.2023 13:27 3,1 C 3,3 C 91 % 1037,4 hPa 0,0 l/m 13,0 km/h (3 Bft) W-NW 301 0 min 0,5 UV-I 95 W/m 1,8 C -2,1 C 25,7 km/h (4 Bft)
05.02.2023 13:30 3,1 C 3,3 C 91 % 1037,5 hPa 0,2 l/m 14,6 km/h (3 Bft) W-NW 300 0 min 0,6 UV-I 109 W/m 1,8 C -3,0 C 30,6 km/h (5 Bft)
05.02.2023 13:33 3,2 C 3,3 C 91 % 1037,4 hPa 0,0 l/m 13,0 km/h (3 Bft) N 5 0 min 0,6 UV-I 115 W/m 1,9 C -1,9 C 24,1 km/h (4 Bft)
05.02.2023 13:36 3,2 C 3,3 C 91 % 1037,5 hPa 0,0 l/m 12,6 km/h (3 Bft) NW 319 0 min 0,5 UV-I 92 W/m 1,9 C -1,7 C 32,2 km/h (5 Bft)
05.02.2023 13:39 3,1 C 3,3 C 91 % 1037,4 hPa 0,0 l/m 15,3 km/h (3 Bft) N-NW 338 0 min 0,5 UV-I 83 W/m 1,8 C -3,4 C 27,4 km/h (4 Bft)
05.02.2023 13:42 3,1 C 3,3 C 91 % 1037,4 hPa 0,0 l/m 13,1 km/h (3 Bft) W-NW 297 0 min 0,5 UV-I 92 W/m 1,8 C -2,1 C 27,4 km/h (4 Bft)
05.02.2023 13:45 3,1 C 3,3 C 91 % 1037,5 hPa 0,0 l/m 13,8 km/h (3 Bft) N-NW 336 0 min 0,5 UV-I 98 W/m 1,8 C -2,5 C 27,4 km/h (4 Bft)
05.02.2023 13:48 3,1 C 3,3 C 91 % 1037,4 hPa 0,2 l/m 10,3 km/h (2 Bft) N-NW 333 0 min 0,2 UV-I 85 W/m 1,8 C -0,2 C 19,3 km/h (3 Bft)
05.02.2023 13:51 3,0 C 2,8 C 91 % 1037,4 hPa 0,0 l/m 14,6 km/h (3 Bft) W-NW 294 0 min 0,1 UV-I 76 W/m 1,7 C -3,1 C 25,7 km/h (4 Bft)
05.02.2023 13:54 2,9 C 2,8 C 91 % 1037,5 hPa 0,0 l/m 14,7 km/h (3 Bft) N-NW 336 0 min 0,0 UV-I 58 W/m 1,6 C -3,3 C 24,1 km/h (4 Bft)
05.02.2023 13:57 2,9 C 2,8 C 91 % 1037,4 hPa 0,2 l/m 16,2 km/h (3 Bft) NW 323 0 min 0,0 UV-I 72 W/m 1,6 C -4,1 C 24,1 km/h (4 Bft)
05.02.2023 14:00 2,9 C 2,8 C 91 % 1037,3 hPa 0,0 l/m 11,6 km/h (2 Bft) W-NW 302 0 min 0,0 UV-I 62 W/m 1,6 C -1,4 C 22,5 km/h (4 Bft)
05.02.2023 14:03 2,9 C 2,8 C 91 % 1037,4 hPa 0,0 l/m 9,8 km/h (2 Bft) NW 306 0 min 0,0 UV-I 68 W/m 1,6 C -0,1 C 22,5 km/h (4 Bft)
05.02.2023 14:06 3,0 C 2,8 C 91 % 1037,3 hPa 0,0 l/m 15,5 km/h (3 Bft) W-NW 292 0 min 0,0 UV-I 64 W/m 1,7 C -3,6 C 25,7 km/h (4 Bft)
05.02.2023 14:09 3,0 C 2,8 C 91 % 1037,3 hPa 0,0 l/m 17,0 km/h (3 Bft) N 349 0 min 0,0 UV-I 63 W/m 1,7 C -4,4 C 29,0 km/h (5 Bft)
05.02.2023 14:12 3,0 C 2,8 C 91 % 1037,3 hPa 0,0 l/m 16,4 km/h (3 Bft) NW 321 0 min 0,0 UV-I 82 W/m 1,7 C -4,1 C 37,0 km/h (5 Bft)
05.02.2023 14:15 3,0 C 2,8 C 91 % 1037,1 hPa 0,0 l/m 16,2 km/h (3 Bft) NW 317 0 min 0,0 UV-I 80 W/m 1,7 C -4,0 C 27,4 km/h (4 Bft)
05.02.2023 14:18 3,1 C 3,3 C 91 % 1037,3 hPa 0,0 l/m 15,3 km/h (3 Bft) NW 306 0 min 0,1 UV-I 74 W/m 1,8 C -3,4 C 30,6 km/h (5 Bft)
05.02.2023 14:21 3,1 C 3,3 C 91 % 1037,2 hPa 0,0 l/m 15,2 km/h (3 Bft) N-NW 334 0 min 0,5 UV-I 99 W/m 1,8 C -3,3 C 25,7 km/h (4 Bft)
05.02.2023 14:24 3,1 C 2,8 C 91 % 1037,3 hPa 0,0 l/m 17,1 km/h (3 Bft) W 273 0 min 0,5 UV-I 84 W/m 1,8 C -4,3 C 32,2 km/h (5 Bft)
05.02.2023 14:27 3,2 C 3,3 C 91 % 1037,2 hPa 0,0 l/m 15,7 km/h (3 Bft) N 360 0 min 0,4 UV-I 95 W/m 1,9 C -3,5 C 35,4 km/h (5 Bft)
05.02.2023 14:30 3,2 C 2,8 C 90 % 1037,2 hPa 0,2 l/m 21,3 km/h (4 Bft) N-NO 16 0 min 0,0 UV-I 74 W/m 1,7 C -6,0 C 38,6 km/h (5 Bft)
05.02.2023 14:33 3,1 C 2,8 C 90 % 1037,3 hPa 0,0 l/m 14,9 km/h (3 Bft) NW 312 0 min 0,0 UV-I 79 W/m 1,6 C -3,2 C 32,2 km/h (5 Bft)
05.02.2023 14:36 3,1 C 2,8 C 90 % 1037,3 hPa 0,0 l/m 17,3 km/h (3 Bft) N-NW 331 0 min 0,0 UV-I 71 W/m 1,6 C -4,4 C 33,8 km/h (5 Bft)
05.02.2023 14:39 3,1 C 2,8 C 90 % 1037,3 hPa 0,0 l/m 20,7 km/h (4 Bft) NW 326 0 min 0,0 UV-I 60 W/m 1,6 C -5,9 C 38,6 km/h (5 Bft)
05.02.2023 14:42 3,1 C 2,8 C 90 % 1037,3 hPa 0,0 l/m 19,7 km/h (3 Bft) N-NW 337 0 min 0,0 UV-I 55 W/m 1,6 C -5,5 C 30,6 km/h (5 Bft)
05.02.2023 14:45 3,1 C 2,8 C 90 % 1037,2 hPa 0,0 l/m 19,4 km/h (3 Bft) NW 313 0 min 0,0 UV-I 47 W/m 1,6 C -5,4 C 29,0 km/h (5 Bft)
05.02.2023 14:48 3,1 C 2,8 C 90 % 1037,3 hPa 0,0 l/m 13,0 km/h (3 Bft) W-NW 290 0 min 0,0 UV-I 40 W/m 1,6 C -2,1 C 24,1 km/h (4 Bft)
05.02.2023 14:51 3,0 C 2,8 C 90 % 1037,3 hPa 0,0 l/m 15,0 km/h (3 Bft) N-NW 327 0 min 0,0 UV-I 44 W/m 1,5 C -3,3 C 29,0 km/h (5 Bft)
05.02.2023 14:54 3,0 C 2,8 C 90 % 1037,3 hPa 0,0 l/m 15,8 km/h (3 Bft) N-NW 342 0 min 0,0 UV-I 41 W/m 1,5 C -3,8 C 29,0 km/h (5 Bft)
05.02.2023 14:57 3,0 C 2,8 C 90 % 1037,3 hPa 0,0 l/m 15,8 km/h (3 Bft) NW 324 0 min 0,0 UV-I 33 W/m 1,5 C -3,8 C 29,0 km/h (5 Bft)
05.02.2023 15:00 3,0 C 2,8 C 91 % 1037,2 hPa 0,0 l/m 17,4 km/h (3 Bft) N-NW 340 0 min 0,0 UV-I 32 W/m 1,7 C -4,6 C 33,8 km/h (5 Bft)
05.02.2023 15:03 2,9 C 2,8 C 90 % 1037,4 hPa 0,0 l/m 18,8 km/h (3 Bft) NW 318 0 min 0,0 UV-I 34 W/m 1,4 C -5,4 C 33,8 km/h (5 Bft)
05.02.2023 15:06 3,0 C 2,8 C 90 % 1037,5 hPa 0,2 l/m 21,4 km/h (4 Bft) NW 317 0 min 0,0 UV-I 30 W/m 1,5 C -6,3 C 33,8 km/h (5 Bft)
05.02.2023 15:09 2,9 C 2,8 C 90 % 1037,5 hPa 0,0 l/m 16,1 km/h (3 Bft) NW 319 0 min 0,0 UV-I 32 W/m 1,4 C -4,1 C 33,8 km/h (5 Bft)
05.02.2023 15:12 2,9 C 2,8 C 90 % 1037,5 hPa 0,0 l/m 17,1 km/h (3 Bft) NW 312 0 min 0,0 UV-I 38 W/m 1,4 C -4,6 C 32,2 km/h (5 Bft)
05.02.2023 15:15 2,9 C 2,8 C 90 % 1037,6 hPa 0,0 l/m 20,8 km/h (4 Bft) N 360 0 min 0,0 UV-I 36 W/m 1,4 C -6,2 C 30,6 km/h (5 Bft)
05.02.2023 15:18 2,9 C 2,8 C 90 % 1037,5 hPa 0,0 l/m 17,7 km/h (3 Bft) N 355 0 min 0,0 UV-I 34 W/m 1,4 C -4,8 C 33,8 km/h (5 Bft)
05.02.2023 15:21 2,9 C 2,8 C 91 % 1037,7 hPa 0,2 l/m 17,2 km/h (3 Bft) NW 304 0 min 0,0 UV-I 27 W/m 1,6 C -4,6 C 27,4 km/h (4 Bft)
05.02.2023 15:24 2,9 C 2,8 C 91 % 1037,6 hPa 0,0 l/m 16,9 km/h (3 Bft) N-NW 327 0 min 0,0 UV-I 26 W/m 1,6 C -4,5 C 30,6 km/h (5 Bft)
05.02.2023 15:27 2,8 C 2,2 C 91 % 1037,8 hPa 0,0 l/m 17,6 km/h (3 Bft) N-NW 327 0 min 0,0 UV-I 26 W/m 1,5 C -4,9 C 27,4 km/h (4 Bft)
05.02.2023 15:30 2,8 C 2,2 C 91 % 1037,7 hPa 0,0 l/m 15,0 km/h (3 Bft) NW 317 0 min 0,0 UV-I 27 W/m 1,5 C -3,6 C 35,4 km/h (5 Bft)
05.02.2023 15:33 2,8 C 2,2 C 91 % 1037,8 hPa 0,0 l/m 13,6 km/h (3 Bft) N 5 0 min 0,0 UV-I 24 W/m 1,5 C -2,8 C 27,4 km/h (4 Bft)
05.02.2023 15:36 2,8 C 2,2 C 91 % 1037,7 hPa 0,2 l/m 13,3 km/h (3 Bft) N-NW 348 0 min 0,0 UV-I 27 W/m 1,5 C -2,6 C 24,1 km/h (4 Bft)
05.02.2023 15:39 2,8 C 2,2 C 91 % 1037,8 hPa 0,0 l/m 15,5 km/h (3 Bft) N-NW 346 0 min 0,0 UV-I 29 W/m 1,5 C -3,9 C 25,7 km/h (4 Bft)
05.02.2023 15:42 2,7 C 2,2 C 91 % 1037,9 hPa 0,0 l/m 12,9 km/h (3 Bft) N-NW 338 0 min 0,0 UV-I 30 W/m 1,4 C -2,5 C 25,7 km/h (4 Bft)
05.02.2023 15:45 2,7 C 2,2 C 91 % 1037,9 hPa 0,0 l/m 18,6 km/h (3 Bft) W-NW 293 0 min 0,0 UV-I 30 W/m 1,4 C -5,5 C 35,4 km/h (5 Bft)
05.02.2023 15:48 2,6 C 2,2 C 91 % 1037,8 hPa 0,2 l/m 18,6 km/h (3 Bft) N 360 0 min 0,0 UV-I 34 W/m 1,3 C -5,7 C 37,0 km/h (5 Bft)
05.02.2023 15:51 2,7 C 2,2 C 91 % 1037,8 hPa 0,0 l/m 17,7 km/h (3 Bft) W-NW 287 0 min 0,0 UV-I 38 W/m 1,4 C -5,1 C 30,6 km/h (5 Bft)
05.02.2023 15:54 2,7 C 2,2 C 91 % 1037,9 hPa 0,0 l/m 20,5 km/h (4 Bft) N-NW 347 0 min 0,0 UV-I 33 W/m 1,4 C -6,4 C 37,0 km/h (5 Bft)
05.02.2023 15:57 2,7 C 2,2 C 91 % 1037,9 hPa 0,0 l/m 14,2 km/h (3 Bft) N-NW 347 0 min 0,0 UV-I 34 W/m 1,4 C -3,3 C 33,8 km/h (5 Bft)
05.02.2023 16:00 2,7 C 2,2 C 91 % 1037,9 hPa 0,0 l/m 22,6 km/h (4 Bft) N-NW 337 0 min 0,0 UV-I 31 W/m 1,4 C -7,2 C 38,6 km/h (5 Bft)
05.02.2023 16:03 2,7 C 2,2 C 91 % 1038,0 hPa 0,0 l/m 24,4 km/h (4 Bft) N 5 0 min 0,0 UV-I 28 W/m 1,4 C -7,9 C 40,2 km/h (6 Bft)
05.02.2023 16:06 2,7 C 2,2 C 91 % 1038,0 hPa 0,2 l/m 22,0 km/h (4 Bft) N-NW 331 0 min 0,0 UV-I 25 W/m 1,4 C -7,0 C 35,4 km/h (5 Bft)
05.02.2023 16:09 2,7 C 2,2 C 91 % 1038,2 hPa 0,0 l/m 21,1 km/h (4 Bft) N 355 0 min 0,0 UV-I 26 W/m 1,4 C -6,6 C 30,6 km/h (5 Bft)
05.02.2023 16:12 2,8 C 2,2 C 91 % 1038,2 hPa 0,0 l/m 22,5 km/h (4 Bft) N 5 0 min 0,0 UV-I 23 W/m 1,5 C -7,0 C 33,8 km/h (5 Bft)
05.02.2023 16:15 2,7 C 2,2 C 91 % 1038,2 hPa 0,0 l/m 21,3 km/h (4 Bft) N-NW 332 0 min 0,0 UV-I 20 W/m 1,4 C -6,7 C 32,2 km/h (5 Bft)
05.02.2023 16:18 2,7 C 2,2 C 91 % 1038,3 hPa 0,0 l/m 25,2 km/h (4 Bft) N 349 0 min 0,0 UV-I 19 W/m 1,4 C -8,1 C 35,4 km/h (5 Bft)
05.02.2023 16:21 2,7 C 2,2 C 91 % 1038,3 hPa 0,2 l/m 23,7 km/h (4 Bft) N 355 0 min 0,0 UV-I 24 W/m 1,4 C -7,6 C 33,8 km/h (5 Bft)
05.02.2023 16:24 2,7 C 2,2 C 91 % 1038,3 hPa 0,0 l/m 21,1 km/h (4 Bft) N 5 0 min 0,0 UV-I 22 W/m 1,4 C -6,6 C 29,0 km/h (5 Bft)
05.02.2023 16:27 2,7 C 2,2 C 91 % 1038,2 hPa 0,0 l/m 19,6 km/h (3 Bft) N 355 0 min 0,0 UV-I 25 W/m 1,4 C -6,0 C 32,2 km/h (5 Bft)
05.02.2023 16:30 2,7 C 2,2 C 91 % 1038,3 hPa 0,0 l/m 26,5 km/h (4 Bft) N-NW 338 0 min 0,0 UV-I 21 W/m 1,4 C -8,6 C 43,5 km/h (6 Bft)
05.02.2023 16:33 2,7 C 2,2 C 91 % 1038,3 hPa 0,0 l/m 20,2 km/h (4 Bft) N-NW 342 0 min 0,0 UV-I 20 W/m 1,4 C -6,2 C 32,2 km/h (5 Bft)
05.02.2023 16:36 2,7 C 2,2 C 91 % 1038,2 hPa 0,0 l/m 19,9 km/h (4 Bft) W-NW 299 0 min 0,0 UV-I 17 W/m 1,4 C -6,1 C 35,4 km/h (5 Bft)
05.02.2023 16:39 2,7 C 2,2 C 91 % 1038,2 hPa 0,0 l/m 21,7 km/h (4 Bft) N 350 0 min 0,0 UV-I 16 W/m 1,4 C -6,8 C 33,8 km/h (5 Bft)
05.02.2023 16:42 2,7 C 2,2 C 91 % 1038,3 hPa 0,2 l/m 18,7 km/h (3 Bft) N-NW 345 0 min 0,0 UV-I 13 W/m 1,4 C -5,6 C 29,0 km/h (5 Bft)
05.02.2023 16:45 2,6 C 2,2 C 91 % 1038,4 hPa 0,0 l/m 20,1 km/h (4 Bft) N-NW 342 0 min 0,0 UV-I 12 W/m 1,3 C -6,3 C 32,2 km/h (5 Bft)
05.02.2023 16:48 2,6 C 2,2 C 91 % 1038,4 hPa 0,0 l/m 15,3 km/h (3 Bft) N 360 0 min 0,0 UV-I 17 W/m 1,3 C -4,0 C 25,7 km/h (4 Bft)
05.02.2023 16:51 2,5 C 2,2 C 91 % 1038,4 hPa 0,0 l/m 17,7 km/h (3 Bft) NO 39 0 min 0,0 UV-I 17 W/m 1,2 C -5,4 C 25,7 km/h (4 Bft)
05.02.2023 16:54 2,5 C 2,2 C 91 % 1038,5 hPa 0,2 l/m 14,2 km/h (3 Bft) N 355 0 min 0,0 UV-I 12 W/m 1,2 C -3,5 C 20,9 km/h (4 Bft)
05.02.2023 16:57 2,4 C 2,2 C 91 % 1038,6 hPa 0,0 l/m 16,0 km/h (3 Bft) N-NW 335 0 min 0,0 UV-I 11 W/m 1,1 C -4,6 C 25,7 km/h (4 Bft)
05.02.2023 17:00 2,4 C 2,2 C 91 % 1038,4 hPa 0,0 l/m 14,7 km/h (3 Bft) N-NW 338 0 min 0,0 UV-I 9 W/m 1,1 C -3,9 C 22,5 km/h (4 Bft)
05.02.2023 17:03 2,5 C 2,2 C 91 % 1038,7 hPa 0,0 l/m 19,0 km/h (3 Bft) N 5 0 min 0,0 UV-I 7 W/m 1,2 C -6,0 C 27,4 km/h (4 Bft)
05.02.2023 17:06 2,6 C 2,2 C 91 % 1038,8 hPa 0,0 l/m 19,1 km/h (3 Bft) N 351 0 min 0,0 UV-I 5 W/m 1,3 C -5,9 C 27,4 km/h (4 Bft)
05.02.2023 17:09 2,6 C 2,2 C 91 % 1038,8 hPa 0,2 l/m 19,9 km/h (4 Bft) N 355 0 min 0,0 UV-I 5 W/m 1,3 C -6,2 C 32,2 km/h (5 Bft)
05.02.2023 17:12 2,6 C 2,2 C 91 % 1039,0 hPa 0,0 l/m 19,8 km/h (3 Bft) N-NW 331 0 min 0,0 UV-I 2 W/m 1,3 C -6,2 C 25,7 km/h (4 Bft)
05.02.2023 17:15 2,6 C 2,2 C 91 % 1039,0 hPa 0,0 l/m 18,3 km/h (3 Bft) N 350 0 min 0,0 UV-I 0 W/m 1,3 C -5,5 C 27,4 km/h (4 Bft)
05.02.2023 17:18 2,5 C 2,2 C 91 % 1038,9 hPa 0,2 l/m 25,3 km/h (4 Bft) N-NO 13 0 min 0,0 UV-I 0 W/m 1,2 C -8,4 C 37,0 km/h (5 Bft)
05.02.2023 17:21 2,5 C 2,2 C 91 % 1039,2 hPa 0,0 l/m 19,0 km/h (3 Bft) N-NO 13 0 min 0,0 UV-I 0 W/m 1,2 C -6,0 C 25,7 km/h (4 Bft)
05.02.2023 17:24 2,4 C 1,7 C 91 % 1039,3 hPa 0,2 l/m 20,8 km/h (4 Bft) N 355 0 min 0,0 UV-I 0 W/m 1,1 C -6,9 C 29,0 km/h (5 Bft)
05.02.2023 17:27 2,4 C 1,7 C 91 % 1039,3 hPa 0,0 l/m 20,2 km/h (4 Bft) NW 320 0 min 0,0 UV-I 0 W/m 1,1 C -6,6 C 25,7 km/h (4 Bft)
05.02.2023 17:30 2,3 C 1,7 C 91 % 1039,4 hPa 0,2 l/m 21,0 km/h (4 Bft) N 355 0 min 0,0 UV-I 0 W/m 1,0 C -7,1 C 40,2 km/h (6 Bft)
05.02.2023 17:33 2,2 C 1,7 C 91 % 1039,4 hPa 0,0 l/m 21,2 km/h (4 Bft) N-NW 342 0 min 0,0 UV-I 0 W/m 0,9 C -7,3 C 29,0 km/h (5 Bft)
05.02.2023 17:36 2,2 C 1,7 C 91 % 1039,4 hPa 0,2 l/m 22,5 km/h (4 Bft) N-NW 333 0 min 0,0 UV-I 0 W/m 0,9 C -7,8 C 32,2 km/h (5 Bft)
05.02.2023 17:39 2,1 C 1,7 C 91 % 1039,5 hPa 0,0 l/m 20,7 km/h (4 Bft) N 5 0 min 0,0 UV-I 0 W/m 0,8 C -7,2 C 30,6 km/h (5 Bft)
05.02.2023 17:42 2,1 C 1,7 C 91 % 1039,4 hPa 0,0 l/m 19,9 km/h (4 Bft) N-NO 30 0 min 0,0 UV-I 0 W/m 0,8 C -6,9 C 30,6 km/h (5 Bft)
05.02.2023 17:45 2,1 C 1,7 C 91 % 1039,6 hPa 0,0 l/m 22,1 km/h (4 Bft) N 351 0 min 0,0 UV-I 0 W/m 0,8 C -7,8 C 29,0 km/h (5 Bft)
05.02.2023 17:48 2,2 C 1,7 C 91 % 1039,6 hPa 0,0 l/m 21,9 km/h (4 Bft) N 5 0 min 0,0 UV-I 0 W/m 0,9 C -7,6 C 33,8 km/h (5 Bft)
05.02.2023 17:51 2,2 C 1,7 C 92 % 1039,6 hPa 0,0 l/m 21,1 km/h (4 Bft) N 349 0 min 0,0 UV-I 0 W/m 1,0 C -7,3 C 32,2 km/h (5 Bft)
05.02.2023 17:54 2,3 C 1,7 C 92 % 1039,7 hPa 0,0 l/m 24,1 km/h (4 Bft) N-NW 346 0 min 0,0 UV-I 0 W/m 1,1 C -8,3 C 33,8 km/h (5 Bft)
05.02.2023 17:57 2,3 C 1,7 C 92 % 1039,7 hPa 0,0 l/m 26,9 km/h (4 Bft) N-NW 340 0 min 0,0 UV-I 0 W/m 1,1 C -9,2 C 38,6 km/h (5 Bft)
05.02.2023 18:00 2,4 C 1,7 C 92 % 1039,8 hPa 0,0 l/m 26,7 km/h (4 Bft) N 350 0 min 0,0 UV-I 0 W/m 1,2 C -9,0 C 37,0 km/h (5 Bft)
05.02.2023 18:03 2,4 C 1,7 C 92 % 1039,9 hPa 0,0 l/m 26,7 km/h (4 Bft) N 355 0 min 0,0 UV-I 0 W/m 1,2 C -9,0 C 37,0 km/h (5 Bft)
05.02.2023 18:06 2,4 C 1,7 C 92 % 1039,9 hPa 0,0 l/m 19,7 km/h (3 Bft) N-NW 338 0 min 0,0 UV-I 0 W/m 1,2 C -6,4 C 29,0 km/h (5 Bft)
05.02.2023 18:09 2,4 C 1,7 C 91 % 1039,9 hPa 0,2 l/m 24,1 km/h (4 Bft) N 351 0 min 0,0 UV-I 0 W/m 1,1 C -8,1 C 33,8 km/h (5 Bft)
05.02.2023 18:12 2,4 C 2,2 C 91 % 1039,8 hPa 0,0 l/m 27,6 km/h (4 Bft) N-NW 348 0 min 0,0 UV-I 0 W/m 1,1 C -9,3 C 43,5 km/h (6 Bft)
05.02.2023 18:15 2,5 C 1,7 C 91 % 1039,8 hPa 0,0 l/m 26,9 km/h (4 Bft) N 350 0 min 0,0 UV-I 0 W/m 1,2 C -9,0 C 41,8 km/h (6 Bft)
05.02.2023 18:18 2,5 C 1,7 C 91 % 1039,8 hPa 0,0 l/m 29,3 km/h (5 Bft) N 349 0 min 0,0 UV-I 0 W/m 1,2 C -9,7 C 40,2 km/h (6 Bft)
05.02.2023 18:21 2,6 C 2,2 C 91 % 1039,8 hPa 0,0 l/m 23,4 km/h (4 Bft) N 355 0 min 0,0 UV-I 0 W/m 1,3 C -7,6 C 33,8 km/h (5 Bft)
05.02.2023 18:24 2,6 C 2,2 C 91 % 1040,0 hPa 0,0 l/m 23,2 km/h (4 Bft) N 355 0 min 0,0 UV-I 0 W/m 1,3 C -7,6 C 32,2 km/h (5 Bft)
05.02.2023 18:27 2,6 C 1,7 C 91 % 1040,0 hPa 0,0 l/m 29,7 km/h (5 Bft) N-NO 24 0 min 0,0 UV-I 0 W/m 1,3 C -9,7 C 40,2 km/h (6 Bft)
05.02.2023 18:30 2,6 C 1,7 C 91 % 1040,2 hPa 0,0 l/m 19,7 km/h (3 Bft) N-NW 342 0 min 0,0 UV-I 0 W/m 1,3 C -6,1 C 27,4 km/h (4 Bft)
05.02.2023 18:33 2,6 C 2,2 C 91 % 1040,2 hPa 0,0 l/m 18,1 km/h (3 Bft) N-NW 342 0 min 0,0 UV-I 0 W/m 1,3 C -5,4 C 25,7 km/h (4 Bft)
05.02.2023 18:36 2,6 C 2,2 C 91 % 1040,1 hPa 0,0 l/m 20,1 km/h (4 Bft) N 351 0 min 0,0 UV-I 0 W/m 1,3 C -6,3 C 29,0 km/h (5 Bft)
05.02.2023 18:39 2,6 C 2,2 C 91 % 1040,1 hPa 0,0 l/m 23,1 km/h (4 Bft) N 5 0 min 0,0 UV-I 0 W/m 1,3 C -7,5 C 33,8 km/h (5 Bft)
05.02.2023 18:42 2,5 C 2,2 C 91 % 1040,2 hPa 0,0 l/m 14,7 km/h (3 Bft) N 355 0 min 0,0 UV-I 0 W/m 1,2 C -3,8 C 22,5 km/h (4 Bft)
05.02.2023 18:45 2,5 C 1,7 C 91 % 1040,2 hPa 0,0 l/m 19,3 km/h (3 Bft) N 5 0 min 0,0 UV-I 0 W/m 1,2 C -6,1 C 29,0 km/h (5 Bft)
05.02.2023 18:48 2,4 C 1,7 C 91 % 1040,2 hPa 0,0 l/m 16,5 km/h (3 Bft) N 351 0 min 0,0 UV-I 0 W/m 1,1 C -4,9 C 24,1 km/h (4 Bft)
05.02.2023 18:51 2,4 C 1,7 C 91 % 1040,3 hPa 0,2 l/m 18,6 km/h (3 Bft) N-NW 348 0 min 0,0 UV-I 0 W/m 1,1 C -5,9 C 25,7 km/h (4 Bft)
05.02.2023 18:54 2,4 C 1,7 C 91 % 1040,4 hPa 0,0 l/m 14,0 km/h (3 Bft) N 9 0 min 0,0 UV-I 0 W/m 1,1 C -3,5 C 20,9 km/h (4 Bft)
05.02.2023 18:57 2,4 C 1,7 C 91 % 1040,3 hPa 0,0 l/m 19,2 km/h (3 Bft) N 5 0 min 0,0 UV-I 0 W/m 1,1 C -6,2 C 29,0 km/h (5 Bft)
05.02.2023 19:00 2,4 C 1,7 C 91 % 1040,3 hPa 0,0 l/m 15,3 km/h (3 Bft) N-NO 28 0 min 0,0 UV-I 0 W/m 1,1 C -4,2 C 25,7 km/h (4 Bft)
05.02.2023 19:03 2,4 C 1,7 C 91 % 1040,4 hPa 0,0 l/m 16,0 km/h (3 Bft) N-NO 13 0 min 0,0 UV-I 0 W/m 1,1 C -4,6 C 27,4 km/h (4 Bft)
05.02.2023 19:06 2,4 C 1,7 C 91 % 1040,4 hPa 0,0 l/m 16,4 km/h (3 Bft) N-NO 13 0 min 0,0 UV-I 0 W/m 1,1 C -4,8 C 24,1 km/h (4 Bft)
05.02.2023 19:09 2,3 C 1,7 C 91 % 1040,3 hPa 0,0 l/m 18,3 km/h (3 Bft) N-NW 348 0 min 0,0 UV-I 0 W/m 1,0 C -5,9 C 32,2 km/h (5 Bft)
05.02.2023 19:12 2,4 C 1,7 C 91 % 1040,5 hPa 0,0 l/m 19,5 km/h (3 Bft) N-NW 348 0 min 0,0 UV-I 0 W/m 1,1 C -6,3 C 29,0 km/h (5 Bft)
05.02.2023 19:15 2,4 C 1,7 C 91 % 1040,5 hPa 0,0 l/m 18,3 km/h (3 Bft) N 355 0 min 0,0 UV-I 0 W/m 1,1 C -5,8 C 29,0 km/h (5 Bft)
05.02.2023 19:18 2,4 C 1,7 C 91 % 1040,6 hPa 0,0 l/m 20,6 km/h (4 Bft) N 360 0 min 0,0 UV-I 0 W/m 1,1 C -6,8 C 29,0 km/h (5 Bft)
05.02.2023 19:21 2,4 C 1,7 C 91 % 1040,5 hPa 0,0 l/m 18,2 km/h (3 Bft) N 9 0 min 0,0 UV-I 0 W/m 1,1 C -5,7 C 32,2 km/h (5 Bft)
05.02.2023 19:24 2,4 C 1,7 C 91 % 1040,4 hPa 0,0 l/m 17,1 km/h (3 Bft) N-NW 348 0 min 0,0 UV-I 0 W/m 1,1 C -5,2 C 27,4 km/h (4 Bft)
05.02.2023 19:27 2,4 C 1,7 C 91 % 1040,4 hPa 0,0 l/m 17,8 km/h (3 Bft) N-NW 345 0 min 0,0 UV-I 0 W/m 1,1 C -5,5 C 29,0 km/h (5 Bft)
05.02.2023 19:30 2,4 C 1,7 C 91 % 1040,5 hPa 0,0 l/m 20,3 km/h (4 Bft) N-NW 327 0 min 0,0 UV-I 0 W/m 1,1 C -6,7 C 29,0 km/h (5 Bft)
05.02.2023 19:33 2,4 C 1,7 C 91 % 1040,4 hPa 0,0 l/m 14,5 km/h (3 Bft) N-NW 329 0 min 0,0 UV-I 0 W/m 1,1 C -3,8 C 20,9 km/h (4 Bft)
05.02.2023 19:36 2,4 C 1,7 C 91 % 1040,5 hPa 0,0 l/m 11,9 km/h (2 Bft) N-NW 333 0 min 0,0 UV-I 0 W/m 1,1 C -2,2 C 22,5 km/h (4 Bft)
05.02.2023 19:39 2,4 C 1,7 C 91 % 1040,5 hPa 0,0 l/m 20,1 km/h (4 Bft) N-NW 342 0 min 0,0 UV-I 0 W/m 1,1 C -6,6 C 27,4 km/h (4 Bft)
05.02.2023 19:42 2,4 C 1,7 C 90 % 1040,7 hPa 0,0 l/m 14,5 km/h (3 Bft) N-NW 342 0 min 0,0 UV-I 0 W/m 0,9 C -3,8 C 22,5 km/h (4 Bft)
05.02.2023 19:45 2,4 C 1,7 C 90 % 1040,6 hPa 0,0 l/m 16,6 km/h (3 Bft) N 355 0 min 0,0 UV-I 0 W/m 0,9 C -4,9 C 25,7 km/h (4 Bft)
05.02.2023 19:48 2,3 C 1,7 C 90 % 1040,5 hPa 0,0 l/m 12,7 km/h (3 Bft) NW 313 0 min 0,0 UV-I 0 W/m 0,8 C -2,8 C 22,5 km/h (4 Bft)
05.02.2023 19:51 2,3 C 1,1 C 90 % 1040,6 hPa 0,0 l/m 11,2 km/h (2 Bft) N 360 0 min 0,0 UV-I 0 W/m 0,8 C -1,8 C 20,9 km/h (4 Bft)
05.02.2023 19:54 2,3 C 1,1 C 90 % 1040,6 hPa 0,0 l/m 13,3 km/h (3 Bft) NW 321 0 min 0,0 UV-I 0 W/m 0,8 C -3,2 C 24,1 km/h (4 Bft)
05.02.2023 19:57 2,3 C 1,1 C 90 % 1040,5 hPa 0,0 l/m 15,1 km/h (3 Bft) N 355 0 min 0,0 UV-I 0 W/m 0,8 C -4,3 C 24,1 km/h (4 Bft)
05.02.2023 20:00 2,2 C 1,1 C 90 % 1040,5 hPa 0,0 l/m 16,0 km/h (3 Bft) N-NW 348 0 min 0,0 UV-I 0 W/m 0,7 C -4,9 C 22,5 km/h (4 Bft)
05.02.2023 20:03 2,2 C 1,1 C 90 % 1040,5 hPa 0,0 l/m 13,5 km/h (3 Bft) N-NW 344 0 min 0,0 UV-I 0 W/m 0,7 C -3,4 C 27,4 km/h (4 Bft)
05.02.2023 20:06 2,2 C 1,1 C 90 % 1040,6 hPa 0,0 l/m 14,4 km/h (3 Bft) N-NW 336 0 min 0,0 UV-I 0 W/m 0,7 C -4,0 C 20,9 km/h (4 Bft)
05.02.2023 20:09 2,2 C 1,1 C 90 % 1040,7 hPa 0,0 l/m 11,8 km/h (2 Bft) N-NW 344 0 min 0,0 UV-I 0 W/m 0,7 C -2,3 C 24,1 km/h (4 Bft)
05.02.2023 20:12 2,2 C 1,1 C 90 % 1040,7 hPa 0,0 l/m 13,7 km/h (3 Bft) N-NW 340 0 min 0,0 UV-I 0 W/m 0,7 C -3,6 C 22,5 km/h (4 Bft)
05.02.2023 20:15 2,2 C 1,1 C 90 % 1040,8 hPa 0,0 l/m 9,5 km/h (2 Bft) N 355 0 min 0,0 UV-I 0 W/m 0,7 C -0,6 C 19,3 km/h (3 Bft)
05.02.2023 20:18 2,2 C 1,1 C 90 % 1040,7 hPa 0,0 l/m 5,7 km/h (1 Bft) NW 321 0 min 0,0 UV-I 0 W/m 0,7 C 2,2 C 9,7 km/h (2 Bft)
05.02.2023 20:21 2,2 C 1,1 C 90 % 1040,8 hPa 0,0 l/m 10,9 km/h (2 Bft) N-NW 346 0 min 0,0 UV-I 0 W/m 0,7 C -1,7 C 20,9 km/h (4 Bft)
05.02.2023 20:24 2,2 C 1,1 C 90 % 1040,8 hPa 0,0 l/m 10,7 km/h (2 Bft) N 5 0 min 0,0 UV-I 0 W/m 0,7 C -1,6 C 20,9 km/h (4 Bft)
05.02.2023 20:27 2,2 C 1,7 C 90 % 1040,9 hPa 0,0 l/m 13,3 km/h (3 Bft) N 349 0 min 0,0 UV-I 0 W/m 0,7 C -3,3 C 24,1 km/h (4 Bft)
05.02.2023 20:30 2,2 C 1,7 C 90 % 1040,7 hPa 0,0 l/m 14,7 km/h (3 Bft) N-NW 347 0 min 0,0 UV-I 0 W/m 0,7 C -4,1 C 22,5 km/h (4 Bft)
05.02.2023 20:33 2,2 C 1,7 C 90 % 1040,9 hPa 0,0 l/m 13,7 km/h (3 Bft) N-NW 348 0 min 0,0 UV-I 0 W/m 0,7 C -3,6 C 22,5 km/h (4 Bft)
05.02.2023 20:36 2,3 C 1,7 C 90 % 1041,0 hPa 0,0 l/m 13,6 km/h (3 Bft) N 355 0 min 0,0 UV-I 0 W/m 0,8 C -3,4 C 29,0 km/h (5 Bft)
05.02.2023 20:39 2,3 C 1,7 C 90 % 1041,0 hPa 0,0 l/m 13,3 km/h (3 Bft) N-NW 342 0 min 0,0 UV-I 0 W/m 0,8 C -3,2 C 19,3 km/h (3 Bft)
05.02.2023 20:42 2,3 C 1,7 C 90 % 1040,8 hPa 0,0 l/m 11,7 km/h (2 Bft) N 5 0 min 0,0 UV-I 0 W/m 0,8 C -2,1 C 19,3 km/h (3 Bft)
05.02.2023 20:45 2,3 C 1,7 C 90 % 1041,0 hPa 0,0 l/m 11,1 km/h (2 Bft) N 5 0 min 0,0 UV-I 0 W/m 0,8 C -1,7 C 19,3 km/h (3 Bft)
05.02.2023 20:48 2,3 C 1,7 C 90 % 1041,0 hPa 0,0 l/m 14,7 km/h (3 Bft) N-NW 344 0 min 0,0 UV-I 0 W/m 0,8 C -4,0 C 24,1 km/h (4 Bft)
05.02.2023 20:51 2,3 C 1,7 C 90 % 1041,0 hPa 0,0 l/m 14,8 km/h (3 Bft) N 349 0 min 0,0 UV-I 0 W/m 0,8 C -4,1 C 20,9 km/h (4 Bft)
05.02.2023 20:54 2,3 C 1,7 C 90 % 1041,0 hPa 0,0 l/m 14,5 km/h (3 Bft) N 355 0 min 0,0 UV-I 0 W/m 0,8 C -3,9 C 29,0 km/h (5 Bft)
05.02.2023 20:57 2,3 C 1,7 C 90 % 1041,1 hPa 0,0 l/m 16,7 km/h (3 Bft) N 10 0 min 0,0 UV-I 0 W/m 0,8 C -5,1 C 24,1 km/h (4 Bft)
05.02.2023 21:00 2,3 C 1,7 C 90 % 1041,1 hPa 0,0 l/m 17,8 km/h (3 Bft) N-NO 14 0 min 0,0 UV-I 0 W/m 0,8 C -5,7 C 24,1 km/h (4 Bft)
05.02.2023 21:03 2,2 C 1,7 C 90 % 1041,0 hPa 0,0 l/m 15,2 km/h (3 Bft) N-NW 346 0 min 0,0 UV-I 0 W/m 0,7 C -4,4 C 30,6 km/h (5 Bft)
05.02.2023 21:06 2,2 C 1,1 C 90 % 1041,0 hPa 0,0 l/m 19,1 km/h (3 Bft) N-NW 346 0 min 0,0 UV-I 0 W/m 0,7 C -6,4 C 33,8 km/h (5 Bft)
05.02.2023 21:09 2,2 C 1,1 C 89 % 1041,0 hPa 0,0 l/m 16,9 km/h (3 Bft) N-NW 344 0 min 0,0 UV-I 0 W/m 0,6 C -5,3 C 33,8 km/h (5 Bft)
05.02.2023 21:12 2,1 C 1,1 C 89 % 1041,1 hPa 0,0 l/m 17,7 km/h (3 Bft) N 5 0 min 0,0 UV-I 0 W/m 0,5 C -5,9 C 22,5 km/h (4 Bft)
05.02.2023 21:15 2,1 C 1,1 C 89 % 1041,0 hPa 0,0 l/m 15,1 km/h (3 Bft) N-NW 344 0 min 0,0 UV-I 0 W/m 0,5 C -4,5 C 25,7 km/h (4 Bft)
05.02.2023 21:18 2,1 C 1,1 C 89 % 1041,0 hPa 0,0 l/m 17,0 km/h (3 Bft) N 5 0 min 0,0 UV-I 0 W/m 0,5 C -5,5 C 20,9 km/h (4 Bft)
05.02.2023 21:21 2,1 C 1,1 C 89 % 1041,1 hPa 0,0 l/m 16,2 km/h (3 Bft) N-NW 342 0 min 0,0 UV-I 0 W/m 0,5 C -5,1 C 24,1 km/h (4 Bft)
05.02.2023 21:24 2,1 C 1,1 C 89 % 1041,1 hPa 0,0 l/m 14,5 km/h (3 Bft) N 360 0 min 0,0 UV-I 0 W/m 0,5 C -4,2 C 22,5 km/h (4 Bft)
05.02.2023 21:27 2,1 C 1,1 C 89 % 1041,1 hPa 0,0 l/m 12,8 km/h (3 Bft) N-NO 15 0 min 0,0 UV-I 0 W/m 0,5 C -3,1 C 20,9 km/h (4 Bft)
05.02.2023 21:30 2,1 C 1,7 C 89 % 1041,1 hPa 0,0 l/m 14,8 km/h (3 Bft) N 5 0 min 0,0 UV-I 0 W/m 0,5 C -4,3 C 29,0 km/h (5 Bft)
05.02.2023 21:33 2,1 C 1,7 C 89 % 1041,1 hPa 0,0 l/m 16,0 km/h (3 Bft) N-NW 343 0 min 0,0 UV-I 0 W/m 0,5 C -5,0 C 29,0 km/h (5 Bft)
05.02.2023 21:36 2,1 C 1,7 C 89 % 1041,1 hPa 0,0 l/m 11,4 km/h (2 Bft) N-NO 24 0 min 0,0 UV-I 0 W/m 0,5 C -2,2 C 17,7 km/h (3 Bft)
05.02.2023 21:39 2,1 C 1,7 C 89 % 1041,1 hPa 0,0 l/m 16,3 km/h (3 Bft) N 9 0 min 0,0 UV-I 0 W/m 0,5 C -5,1 C 24,1 km/h (4 Bft)
05.02.2023 21:42 2,1 C 1,7 C 89 % 1041,2 hPa 0,0 l/m 18,0 km/h (3 Bft) N-NW 348 0 min 0,0 UV-I 0 W/m 0,5 C -6,0 C 33,8 km/h (5 Bft)
05.02.2023 21:45 2,1 C 1,7 C 89 % 1041,3 hPa 0,0 l/m 12,0 km/h (2 Bft) N 5 0 min 0,0 UV-I 0 W/m 0,5 C -2,6 C 22,5 km/h (4 Bft)
05.02.2023 21:48 2,1 C 1,7 C 89 % 1041,2 hPa 0,0 l/m 17,7 km/h (3 Bft) N 349 0 min 0,0 UV-I 0 W/m 0,5 C -5,9 C 32,2 km/h (5 Bft)
05.02.2023 21:51 2,1 C 1,7 C 89 % 1041,3 hPa 0,0 l/m 13,0 km/h (3 Bft) N 5 0 min 0,0 UV-I 0 W/m 0,5 C -3,2 C 25,7 km/h (4 Bft)
05.02.2023 21:54 2,1 C 1,7 C 89 % 1041,3 hPa 0,0 l/m 14,0 km/h (3 Bft) N 351 0 min 0,0 UV-I 0 W/m 0,5 C -3,9 C 22,5 km/h (4 Bft)
05.02.2023 21:57 2,1 C 1,7 C 89 % 1041,3 hPa 0,0 l/m 13,6 km/h (3 Bft) N-NO 13 0 min 0,0 UV-I 0 W/m 0,5 C -3,6 C 20,9 km/h (4 Bft)
05.02.2023 22:00 2,0 C 1,7 C 89 % 1041,3 hPa 0,0 l/m 16,7 km/h (3 Bft) N 351 0 min 0,0 UV-I 0 W/m 0,4 C -5,5 C 25,7 km/h (4 Bft)
05.02.2023 22:03 2,1 C 1,7 C 89 % 1041,3 hPa 0,0 l/m 18,0 km/h (3 Bft) N 360 0 min 0,0 UV-I 0 W/m 0,5 C -6,0 C 29,0 km/h (5 Bft)
05.02.2023 22:06 2,0 C 1,7 C 89 % 1041,4 hPa 0,0 l/m 20,1 km/h (4 Bft) N-NW 338 0 min 0,0 UV-I 0 W/m 0,4 C -7,1 C 29,0 km/h (5 Bft)
05.02.2023 22:09 2,0 C 1,7 C 89 % 1041,3 hPa 0,0 l/m 17,2 km/h (3 Bft) N-NW 328 0 min 0,0 UV-I 0 W/m 0,4 C -5,7 C 29,0 km/h (5 Bft)
05.02.2023 22:12 2,0 C 1,7 C 89 % 1041,4 hPa 0,0 l/m 17,3 km/h (3 Bft) N-NW 337 0 min 0,0 UV-I 0 W/m 0,4 C -5,8 C 30,6 km/h (5 Bft)
05.02.2023 22:15 2,0 C 1,7 C 89 % 1041,4 hPa 0,0 l/m 26,5 km/h (4 Bft) N-NO 18 0 min 0,0 UV-I 0 W/m 0,4 C -9,5 C 40,2 km/h (6 Bft)
05.02.2023 22:18 2,0 C 1,1 C 89 % 1041,4 hPa 0,0 l/m 21,1 km/h (4 Bft) N 5 0 min 0,0 UV-I 0 W/m 0,4 C -7,5 C 33,8 km/h (5 Bft)
05.02.2023 22:21 1,9 C 1,1 C 89 % 1041,4 hPa 0,0 l/m 20,0 km/h (4 Bft) N 5 0 min 0,0 UV-I 0 W/m 0,3 C -7,2 C 29,0 km/h (5 Bft)
05.02.2023 22:24 1,9 C 1,1 C 89 % 1041,7 hPa 0,0 l/m 19,5 km/h (3 Bft) N-NW 328 0 min 0,0 UV-I 0 W/m 0,3 C -7,0 C 30,6 km/h (5 Bft)
05.02.2023 22:27 1,9 C 1,1 C 89 % 1041,6 hPa 0,0 l/m 24,1 km/h (4 Bft) N 5 0 min 0,0 UV-I 0 W/m 0,3 C -8,8 C 33,8 km/h (5 Bft)
05.02.2023 22:30 1,9 C 1,1 C 89 % 1041,6 hPa 0,0 l/m 17,6 km/h (3 Bft) N-NW 345 0 min 0,0 UV-I 0 W/m 0,3 C -6,1 C 25,7 km/h (4 Bft)
05.02.2023 22:33 1,9 C 1,1 C 89 % 1041,5 hPa 0,0 l/m 14,3 km/h (3 Bft) N-NW 339 0 min 0,0 UV-I 0 W/m 0,3 C -4,3 C 24,1 km/h (4 Bft)
05.02.2023 22:36 1,9 C 1,1 C 89 % 1041,6 hPa 0,0 l/m 19,7 km/h (3 Bft) N 10 0 min 0,0 UV-I 0 W/m 0,3 C -7,0 C 30,6 km/h (5 Bft)
05.02.2023 22:39 1,9 C 1,1 C 89 % 1041,6 hPa 0,0 l/m 24,0 km/h (4 Bft) N-NW 346 0 min 0,0 UV-I 0 W/m 0,3 C -8,8 C 32,2 km/h (5 Bft)
05.02.2023 22:42 1,9 C 1,1 C 89 % 1041,6 hPa 0,0 l/m 19,6 km/h (3 Bft) N 355 0 min 0,0 UV-I 0 W/m 0,3 C -7,0 C 32,2 km/h (5 Bft)
05.02.2023 22:45 1,9 C 1,1 C 89 % 1041,7 hPa 0,0 l/m 20,2 km/h (4 Bft) N-NW 342 0 min 0,0 UV-I 0 W/m 0,3 C -7,3 C 30,6 km/h (5 Bft)
05.02.2023 22:48 1,9 C 1,1 C 89 % 1041,7 hPa 0,0 l/m 18,3 km/h (3 Bft) N 355 0 min 0,0 UV-I 0 W/m 0,3 C -6,4 C 22,5 km/h (4 Bft)
05.02.2023 22:51 1,9 C 1,1 C 89 % 1041,6 hPa 0,0 l/m 14,2 km/h (3 Bft) N-NO 25 0 min 0,0 UV-I 0 W/m 0,3 C -4,2 C 22,5 km/h (4 Bft)
05.02.2023 22:54 1,9 C 1,1 C 89 % 1041,6 hPa 0,0 l/m 15,1 km/h (3 Bft) N-NW 346 0 min 0,0 UV-I 0 W/m 0,3 C -4,7 C 20,9 km/h (4 Bft)
05.02.2023 22:57 1,8 C 1,1 C 89 % 1041,7 hPa 0,0 l/m 21,3 km/h (4 Bft) N 355 0 min 0,0 UV-I 0 W/m 0,2 C -7,9 C 27,4 km/h (4 Bft)
05.02.2023 23:00 1,9 C 1,1 C 89 % 1041,7 hPa 0,0 l/m 19,3 km/h (3 Bft) N 360 0 min 0,0 UV-I 0 W/m 0,3 C -6,9 C 29,0 km/h (5 Bft)
05.02.2023 23:03 1,8 C 1,1 C 89 % 1041,7 hPa 0,0 l/m 22,1 km/h (4 Bft) N 355 0 min 0,0 UV-I 0 W/m 0,2 C -8,2 C 30,6 km/h (5 Bft)
05.02.2023 23:06 1,8 C 1,1 C 89 % 1041,8 hPa 0,0 l/m 19,2 km/h (3 Bft) N-NW 344 0 min 0,0 UV-I 0 W/m 0,2 C -6,9 C 27,4 km/h (4 Bft)
05.02.2023 23:09 1,8 C 1,1 C 89 % 1041,7 hPa 0,0 l/m 18,2 km/h (3 Bft) N-NW 346 0 min 0,0 UV-I 0 W/m 0,2 C -6,5 C 25,7 km/h (4 Bft)
05.02.2023 23:12 1,8 C 1,1 C 89 % 1041,7 hPa 0,0 l/m 14,7 km/h (3 Bft) N-NW 346 0 min 0,0 UV-I 0 W/m 0,2 C -4,6 C 24,1 km/h (4 Bft)
05.02.2023 23:15 1,8 C 1,1 C 89 % 1041,8 hPa 0,0 l/m 16,4 km/h (3 Bft) N 5 0 min 0,0 UV-I 0 W/m 0,2 C -5,6 C 24,1 km/h (4 Bft)
05.02.2023 23:18 1,8 C 1,1 C 89 % 1041,8 hPa 0,0 l/m 14,8 km/h (3 Bft) N 355 0 min 0,0 UV-I 0 W/m 0,2 C -4,7 C 22,5 km/h (4 Bft)
05.02.2023 23:21 1,8 C 1,1 C 89 % 1041,8 hPa 0,0 l/m 14,8 km/h (3 Bft) N 5 0 min 0,0 UV-I 0 W/m 0,2 C -4,7 C 20,9 km/h (4 Bft)
05.02.2023 23:24 1,8 C 1,1 C 89 % 1041,9 hPa 0,0 l/m 13,2 km/h (3 Bft) N 5 0 min 0,0 UV-I 0 W/m 0,2 C -3,7 C 22,5 km/h (4 Bft)
05.02.2023 23:27 1,7 C 1,1 C 89 % 1042,0 hPa 0,0 l/m 21,3 km/h (4 Bft) N-NW 347 0 min 0,0 UV-I 0 W/m 0,1 C -8,0 C 30,6 km/h (5 Bft)
05.02.2023 23:30 1,7 C 1,1 C 89 % 1042,0 hPa 0,0 l/m 18,2 km/h (3 Bft) N 351 0 min 0,0 UV-I 0 W/m 0,1 C -6,6 C 27,4 km/h (4 Bft)
05.02.2023 23:33 1,7 C 1,1 C 89 % 1042,0 hPa 0,0 l/m 16,7 km/h (3 Bft) N 360 0 min 0,0 UV-I 0 W/m 0,1 C -5,9 C 24,1 km/h (4 Bft)
05.02.2023 23:36 1,8 C 1,1 C 89 % 1042,0 hPa 0,0 l/m 16,1 km/h (3 Bft) N 355 0 min 0,0 UV-I 0 W/m 0,2 C -5,4 C 29,0 km/h (5 Bft)
05.02.2023 23:39 1,7 C 1,1 C 89 % 1042,0 hPa 0,0 l/m 15,4 km/h (3 Bft) N 11 0 min 0,0 UV-I 0 W/m 0,1 C -5,1 C 24,1 km/h (4 Bft)
05.02.2023 23:42 1,7 C 1,1 C 89 % 1042,1 hPa 0,0 l/m 18,3 km/h (3 Bft) N-NW 339 0 min 0,0 UV-I 0 W/m 0,1 C -6,7 C 30,6 km/h (5 Bft)
05.02.2023 23:45 1,7 C 1,1 C 89 % 1042,0 hPa 0,0 l/m 15,1 km/h (3 Bft) N-NW 344 0 min 0,0 UV-I 0 W/m 0,1 C -5,0 C 22,5 km/h (4 Bft)
05.02.2023 23:48 1,7 C 1,1 C 89 % 1042,0 hPa 0,0 l/m 17,3 km/h (3 Bft) N 355 0 min 0,0 UV-I 0 W/m 0,1 C -6,2 C 25,7 km/h (4 Bft)
05.02.2023 23:51 1,7 C 1,1 C 89 % 1042,1 hPa 0,0 l/m 16,1 km/h (3 Bft) N-NO 15 0 min 0,0 UV-I 0 W/m 0,1 C -5,5 C 25,7 km/h (4 Bft)
05.02.2023 23:54 1,7 C 1,1 C 89 % 1042,1 hPa 0,0 l/m 15,6 km/h (3 Bft) N 5 0 min 0,0 UV-I 0 W/m 0,1 C -5,3 C 22,5 km/h (4 Bft)
05.02.2023 23:57 1,7 C 1,1 C 89 % 1042,1 hPa 0,0 l/m 15,7 km/h (3 Bft) N-NW 348 0 min 0,0 UV-I 0 W/m 0,1 C -5,3 C 20,9 km/h (4 Bft)
05.02.2023 23:58 1,7 C 1,1 C 89 % 1042,0 hPa 0,0 l/m 14,5 km/h (3 Bft) N 360 0 min 0,0 UV-I 0 W/m 0,1 C -4,6 C 17,7 km/h (3 Bft)
05.02.2023 23:59 1,7 C 1,1 C 89 % 1042,1 hPa 0,0 l/m 9,7 km/h (2 Bft) N 360 0 min 0,0 UV-I 0 W/m 0,1 C -1,3 C 17,7 km/h (3 Bft)
_ Min-Zeit 23:21 19:51 21:09 14:15 - 00:00 - - - - - 23:27 18:18 00:00
Minimum _ 1,7 C 1,1 C 89 % 1037,1 hPa - 0,0 km/h (0 Bft) - - - - - 0,1 C -9,7 C 0,0 km/h (0 Bft)
_ Max-Zeit 02:28 01:07 00:28 23:42 05:56 18:27 - - 00:00 11:18 11:36 02:29 02:29 16:30
Maximum _ 4,4 C 3,9 C 93 % 1042,1 hPa 0,2 l/m 29,7 km/h
N-NO (5 Bft)
- - 0 min 0,6 UV-I 122 W/m 3,4 C 4,4 C 43,5 km/h
N (6 Bft)
Durchschnitt _ 3,1 C 2,7 C 91 % 1038,8 hPa #6,4 l/m 10,7 km/h (2 Bft) W - #0 min. 0,4 UV-I 51 W/m 1,8 C -1,1 C 18,1 km/h (3 Bft)